[[{"header":{"parameterUnit":"m.s-1","parameterCategory":1,"la1":30.6,"la2":29.2853,"lo1":-89.7004,"lo2":-87.6739,"dy":0.0162,"dx":0.0183,"nx":112,"ny":82,"refTime":"2026-03-21T00:00:00:Z","depth":0,"parameterNumber":2,"parameterNumberName":"U-component_of_WINDS"},"data":[0.0,0.0,0.0,0.0,0.0,0.0,0.0,0.0,0.0,0.0,0.0,0.0,0.0,0.0,0.0,0.0,0.0,0.0,0.0,0.0,0.0,0.0,0.0,0.0,0.0,0.0,0.0,0.0,0.0,0.0,0.0,0.0,0.0,0.0,0.0,0.0,0.0,0.0,0.0,0.0,0.0,0.0,0.0,0.0,0.0,0.0,0.0,0.0,0.0,0.0,0.0,0.0,0.0,0.0,0.0,0.0,0.0,0.0,0.0,0.0,0.0,0.0,0.0,0.0,0.0,0.0,0.0,0.0,0.0,0.0,0.0,0.0,0.0,0.0,0.0,0.0,0.0,0.0,0.0,0.0,0.0,0.0,0.0,0.0,0.0,0.0,0.0,0.0,0.0,0.0,-3.0177,-3.0472,-3.062,-3.0728,-3.0789,-3.0794,-3.037,-2.9361,0.0,0.0,0.0,0.0,0.0,0.0,0.0,0.0,0.0,0.0,0.0,0.0,0.0,0.0,0.0,0.0,0.0,0.0,0.0,0.0,0.0,0.0,0.0,0.0,0.0,0.0,0.0,0.0,0.0,0.0,0.0,0.0,0.0,0.0,0.0,0.0,0.0,0.0,0.0,0.0,0.0,0.0,0.0,0.0,0.0,0.0,0.0,0.0,0.0,0.0,0.0,0.0,0.0,0.0,0.0,0.0,0.0,0.0,0.0,0.0,0.0,0.0,0.0,0.0,0.0,0.0,0.0,0.0,0.0,0.0,0.0,0.0,0.0,0.0,0.0,0.0,0.0,0.0,0.0,0.0,0.0,0.0,0.0,0.0,0.0,0.0,0.0,0.0,0.0,0.0,0.0,0.0,0.0,0.0,0.0,0.0,0.0,0.0,0.0,0.0,0.0,0.0,0.0,0.0,-3.0071,-3.0453,-3.0615,-3.0734,-3.0784,-3.0799,-3.0111,-2.8502,0.0,0.0,0.0,0.0,0.0,0.0,0.0,0.0,0.0,0.0,0.0,0.0,0.0,0.0,0.0,0.0,0.0,0.0,0.0,0.0,0.0,0.0,0.0,0.0,0.0,0.0,0.0,0.0,0.0,0.0,0.0,0.0,0.0,0.0,0.0,0.0,0.0,0.0,0.0,0.0,0.0,0.0,0.0,0.0,0.0,0.0,0.0,0.0,0.0,0.0,0.0,0.0,0.0,0.0,0.0,0.0,0.0,0.0,0.0,0.0,0.0,0.0,0.0,0.0,0.0,0.0,0.0,0.0,0.0,0.0,0.0,0.0,0.0,0.0,0.0,0.0,0.0,0.0,0.0,0.0,0.0,0.0,0.0,0.0,0.0,0.0,0.0,0.0,0.0,0.0,0.0,0.0,0.0,0.0,0.0,0.0,0.0,0.0,0.0,0.0,0.0,0.0,0.0,-2.9992,-3.02,-3.0424,-3.0601,-3.0724,-3.0789,-3.0804,-3.0257,-2.8977,-3.0099,0.0,0.0,0.0,0.0,0.0,0.0,0.0,0.0,0.0,0.0,0.0,0.0,0.0,0.0,0.0,0.0,0.0,0.0,0.0,0.0,0.0,0.0,0.0,0.0,0.0,0.0,0.0,0.0,0.0,0.0,0.0,0.0,0.0,0.0,0.0,0.0,0.0,0.0,0.0,0.0,0.0,0.0,0.0,0.0,0.0,0.0,0.0,0.0,0.0,0.0,0.0,0.0,0.0,0.0,0.0,0.0,0.0,0.0,0.0,0.0,0.0,0.0,0.0,0.0,0.0,0.0,0.0,0.0,0.0,0.0,0.0,0.0,0.0,0.0,0.0,0.0,0.0,0.0,0.0,0.0,0.0,0.0,0.0,0.0,0.0,0.0,0.0,0.0,0.0,0.0,0.0,0.0,0.0,0.0,0.0,0.0,0.0,0.0,0.0,0.0,0.0,0.0,-3.0085,-3.0294,-3.0413,-3.0578,-3.0709,-3.0789,-3.0794,-3.0433,-2.9556,-3.0323,0.0,0.0,0.0,0.0,0.0,0.0,0.0,0.0,0.0,0.0,0.0,0.0,0.0,0.0,0.0,0.0,0.0,0.0,0.0,0.0,0.0,0.0,0.0,0.0,0.0,0.0,0.0,0.0,0.0,0.0,0.0,0.0,0.0,0.0,0.0,0.0,0.0,0.0,0.0,0.0,0.0,0.0,0.0,0.0,0.0,0.0,0.0,0.0,0.0,0.0,0.0,0.0,0.0,0.0,0.0,0.0,0.0,0.0,0.0,0.0,0.0,0.0,0.0,0.0,0.0,0.0,0.0,0.0,0.0,0.0,0.0,0.0,0.0,0.0,0.0,0.0,0.0,0.0,0.0,0.0,0.0,0.0,0.0,0.0,0.0,0.0,0.0,0.0,0.0,0.0,0.0,0.0,0.0,0.0,0.0,0.0,0.0,0.0,0.0,0.0,0.0,0.0,-3.0056,-3.0209,-3.0472,-3.0553,-3.0658,-3.0793,-3.0794,-3.0433,-2.9556,-3.032,0.0,0.0,0.0,0.0,0.0,0.0,0.0,0.0,0.0,0.0,0.0,0.0,0.0,0.0,0.0,0.0,0.0,0.0,0.0,0.0,0.0,0.0,0.0,0.0,0.0,0.0,0.0,0.0,0.0,0.0,0.0,0.0,0.0,0.0,0.0,0.0,0.0,0.0,0.0,0.0,0.0,0.0,0.0,0.0,0.0,0.0,0.0,0.0,0.0,0.0,0.0,0.0,0.0,0.0,0.0,0.0,0.0,0.0,0.0,0.0,0.0,0.0,0.0,0.0,0.0,0.0,0.0,0.0,0.0,0.0,0.0,0.0,0.0,0.0,0.0,0.0,0.0,0.0,0.0,0.0,0.0,0.0,0.0,0.0,0.0,0.0,0.0,0.0,0.0,0.0,0.0,0.0,0.0,0.0,0.0,0.0,0.0,0.0,0.0,0.0,0.0,0.0,-2.9937,-3.0099,-3.0244,-3.0393,-3.0499,-3.0548,-3.0585,-3.0503,-3.0263,0.0,0.0,0.0,0.0,0.0,0.0,0.0,0.0,0.0,0.0,0.0,0.0,0.0,0.0,0.0,0.0,0.0,0.0,0.0,0.0,0.0,0.0,0.0,0.0,0.0,0.0,0.0,0.0,0.0,0.0,0.0,0.0,0.0,0.0,0.0,0.0,0.0,0.0,0.0,0.0,0.0,0.0,0.0,0.0,0.0,0.0,0.0,0.0,0.0,0.0,0.0,0.0,0.0,0.0,0.0,0.0,0.0,0.0,0.0,0.0,0.0,0.0,0.0,0.0,0.0,0.0,0.0,0.0,0.0,0.0,0.0,0.0,0.0,0.0,0.0,0.0,0.0,0.0,0.0,0.0,0.0,0.0,0.0,0.0,0.0,0.0,0.0,0.0,0.0,0.0,0.0,0.0,0.0,0.0,0.0,0.0,0.0,0.0,0.0,0.0,0.0,0.0,-2.9727,-2.9862,-2.9996,-3.009,-3.0244,-3.0351,-3.0365,-3.0182,-3.0208,-3.0578,0.0,0.0,0.0,0.0,0.0,0.0,0.0,0.0,0.0,0.0,0.0,0.0,0.0,0.0,0.0,0.0,0.0,0.0,0.0,0.0,0.0,0.0,0.0,0.0,0.0,0.0,0.0,0.0,0.0,0.0,0.0,0.0,0.0,0.0,0.0,0.0,0.0,0.0,0.0,0.0,0.0,0.0,0.0,0.0,0.0,0.0,0.0,0.0,0.0,0.0,0.0,0.0,0.0,0.0,0.0,0.0,0.0,0.0,0.0,0.0,0.0,0.0,0.0,0.0,0.0,0.0,0.0,0.0,0.0,0.0,0.0,0.0,0.0,0.0,0.0,0.0,0.0,0.0,0.0,0.0,0.0,0.0,0.0,0.0,0.0,0.0,0.0,0.0,0.0,0.0,0.0,0.0,0.0,0.0,0.0,0.0,0.0,0.0,0.0,0.0,0.0,0.0,-2.9771,-2.9823,-2.9914,-3.0041,-3.014,-3.0205,-3.0261,-2.9543,-2.9448,0.0,0.0,0.0,0.0,0.0,0.0,0.0,0.0,0.0,0.0,0.0,0.0,0.0,0.0,0.0,0.0,0.0,0.0,0.0,0.0,0.0,0.0,0.0,0.0,0.0,0.0,0.0,0.0,0.0,0.0,0.0,0.0,0.0,0.0,0.0,0.0,0.0,0.0,0.0,0.0,0.0,0.0,0.0,0.0,0.0,0.0,0.0,0.0,0.0,0.0,0.0,0.0,0.0,0.0,0.0,0.0,0.0,0.0,0.0,0.0,0.0,0.0,0.0,0.0,0.0,0.0,0.0,0.0,0.0,0.0,0.0,0.0,0.0,0.0,0.0,0.0,0.0,0.0,0.0,0.0,0.0,0.0,0.0,0.0,0.0,0.0,0.0,0.0,0.0,0.0,0.0,0.0,0.0,0.0,0.0,0.0,0.0,0.0,0.0,0.0,0.0,0.0,0.0,-2.8662,-2.8311,-2.8037,-2.813,-2.8227,-2.8303,-2.8324,-2.8154,-2.8183,-2.8539,0.0,0.0,0.0,0.0,0.0,0.0,0.0,0.0,0.0,0.0,0.0,0.0,0.0,0.0,0.0,0.0,0.0,0.0,0.0,0.0,0.0,0.0,0.0,0.0,0.0,0.0,0.0,0.0,0.0,0.0,0.0,0.0,0.0,0.0,0.0,0.0,0.0,0.0,0.0,0.0,0.0,0.0,0.0,0.0,0.0,0.0,0.0,0.0,0.0,0.0,0.0,0.0,0.0,0.0,0.0,0.0,0.0,0.0,0.0,0.0,0.0,0.0,0.0,0.0,0.0,0.0,0.0,0.0,0.0,0.0,0.0,0.0,0.0,0.0,0.0,0.0,0.0,0.0,0.0,0.0,0.0,0.0,0.0,0.0,0.0,0.0,0.0,0.0,0.0,0.0,0.0,0.0,0.0,0.0,0.0,0.0,0.0,0.0,0.0,0.0,0.0,0.0,-2.7727,-2.7381,-2.7142,-2.7276,-2.7405,-2.7465,-2.7504,-2.7229,-2.7212,-2.7649,0.0,0.0,0.0,0.0,0.0,0.0,0.0,0.0,0.0,0.0,0.0,0.0,0.0,0.0,0.0,0.0,0.0,0.0,0.0,0.0,0.0,0.0,0.0,0.0,0.0,0.0,0.0,0.0,0.0,0.0,0.0,0.0,0.0,0.0,0.0,0.0,0.0,0.0,0.0,0.0,0.0,0.0,0.0,0.0,0.0,0.0,0.0,0.0,0.0,0.0,0.0,0.0,0.0,0.0,0.0,0.0,0.0,0.0,0.0,0.0,0.0,0.0,0.0,0.0,0.0,0.0,0.0,0.0,0.0,0.0,0.0,0.0,0.0,0.0,0.0,0.0,0.0,0.0,0.0,0.0,0.0,0.0,0.0,0.0,0.0,0.0,0.0,0.0,0.0,0.0,0.0,0.0,0.0,0.0,0.0,0.0,0.0,0.0,0.0,0.0,0.0,0.0,-2.7009,-2.6823,-2.673,-2.7003,-2.7085,-2.7157,-2.7212,-2.6493,-2.6375,-2.7153,0.0,0.0,0.0,0.0,0.0,0.0,0.0,0.0,0.0,0.0,0.0,0.0,0.0,0.0,0.0,0.0,0.0,0.0,0.0,0.0,0.0,0.0,0.0,0.0,0.0,0.0,0.0,0.0,0.0,0.0,0.0,0.0,0.0,0.0,0.0,0.0,0.0,0.0,0.0,0.0,0.0,0.0,0.0,0.0,0.0,0.0,0.0,0.0,0.0,0.0,0.0,0.0,0.0,0.0,0.0,0.0,0.0,0.0,0.0,0.0,-2.7801,-2.7943,0.0,0.0,0.0,0.0,0.0,0.0,0.0,0.0,0.0,0.0,0.0,0.0,0.0,0.0,0.0,0.0,0.0,0.0,0.0,0.0,0.0,0.0,0.0,0.0,0.0,0.0,0.0,0.0,0.0,0.0,0.0,0.0,0.0,0.0,0.0,0.0,0.0,0.0,0.0,0.0,-2.6586,-2.5558,-2.4774,-2.4998,-2.5084,-2.5117,-2.5143,-2.4975,-2.4895,-2.4985,-2.4919,0.0,0.0,0.0,0.0,0.0,0.0,0.0,0.0,0.0,0.0,0.0,0.0,0.0,0.0,0.0,0.0,0.0,0.0,0.0,0.0,0.0,0.0,0.0,0.0,0.0,0.0,0.0,0.0,0.0,0.0,0.0,0.0,0.0,0.0,0.0,0.0,0.0,0.0,0.0,0.0,0.0,0.0,0.0,0.0,0.0,0.0,0.0,0.0,0.0,0.0,0.0,0.0,0.0,0.0,0.0,0.0,0.0,0.0,0.0,-2.7648,-2.8103,0.0,0.0,0.0,0.0,0.0,0.0,0.0,0.0,0.0,0.0,0.0,0.0,0.0,0.0,0.0,0.0,0.0,0.0,0.0,0.0,0.0,0.0,0.0,0.0,0.0,0.0,0.0,0.0,0.0,0.0,0.0,0.0,0.0,0.0,0.0,0.0,0.0,0.0,0.0,0.0,-2.5793,-2.4798,-2.402,-2.4229,-2.4329,-2.4365,-2.4363,-2.4363,-2.4336,-2.4264,-2.4317,0.0,0.0,0.0,0.0,0.0,0.0,0.0,0.0,0.0,0.0,0.0,0.0,0.0,0.0,0.0,0.0,0.0,0.0,0.0,0.0,0.0,0.0,0.0,0.0,0.0,0.0,0.0,0.0,0.0,0.0,0.0,0.0,0.0,0.0,0.0,0.0,0.0,0.0,0.0,0.0,0.0,0.0,0.0,0.0,0.0,0.0,0.0,0.0,0.0,0.0,0.0,0.0,0.0,-2.832,-2.8259,-2.7106,-2.7768,-2.7627,-2.6823,-2.7822,-2.8313,-2.8446,-2.8152,0.0,0.0,0.0,0.0,0.0,0.0,0.0,0.0,0.0,0.0,0.0,0.0,0.0,0.0,0.0,0.0,0.0,0.0,0.0,0.0,0.0,0.0,-2.4936,-2.2929,-2.2906,-2.3382,-2.3719,0.0,0.0,0.0,0.0,0.0,0.0,0.0,0.0,0.0,0.0,0.0,-2.4971,-2.4259,-2.3765,-2.3961,-2.403,-2.407,-2.41,-2.41,-2.41,-2.4071,-2.4109,-2.4128,0.0,0.0,0.0,0.0,0.0,0.0,0.0,0.0,0.0,0.0,0.0,0.0,0.0,0.0,0.0,0.0,0.0,0.0,0.0,0.0,0.0,0.0,0.0,0.0,0.0,0.0,0.0,0.0,0.0,0.0,0.0,0.0,-2.5313,-2.5438,0.0,0.0,0.0,0.0,0.0,0.0,0.0,0.0,0.0,0.0,0.0,0.0,0.0,-2.7921,-2.7853,-2.8177,-2.8047,-2.7452,-2.7866,-2.8007,-2.7871,-2.7962,-2.8277,-2.8714,-2.8764,0.0,-2.7456,-2.688,0.0,0.0,0.0,0.0,0.0,0.0,0.0,0.0,0.0,0.0,0.0,0.0,0.0,0.0,0.0,0.0,0.0,0.0,0.0,0.0,0.0,0.0,-2.2728,-2.2381,-2.2185,-2.2052,-2.2173,-2.1996,-2.2194,-2.3611,-2.3683,-2.373,0.0,0.0,0.0,0.0,0.0,0.0,-2.4629,-2.3803,-2.3268,-2.3468,-2.3557,-2.3631,-2.3665,-2.3738,-2.3723,-2.3594,-2.3701,-2.3789,-2.384,-2.386,0.0,0.0,0.0,0.0,0.0,0.0,0.0,0.0,0.0,0.0,0.0,0.0,0.0,0.0,0.0,0.0,0.0,0.0,0.0,0.0,0.0,0.0,0.0,0.0,0.0,0.0,0.0,0.0,0.0,-2.5059,-2.5458,-2.5371,-2.6422,-2.7106,0.0,0.0,0.0,0.0,0.0,0.0,0.0,0.0,0.0,-2.6976,-2.7389,-2.7481,-2.7259,-2.817,-2.8288,-2.7629,-2.8144,-2.8151,-2.7664,-2.7664,-2.7759,-2.7915,-2.7873,-2.7763,-2.7664,-2.7539,-2.796,-2.8671,0.0,0.0,0.0,0.0,-2.6655,-2.6197,-2.5664,-2.5292,-2.5082,-2.5338,0.0,0.0,0.0,0.0,0.0,0.0,0.0,-2.523,-2.513,-2.4084,-2.2917,-2.2424,-2.191,-2.1405,-2.1084,-2.0925,-2.1398,-2.3284,-2.3827,-2.3922,-2.3833,-2.3725,0.0,0.0,0.0,-2.3794,-2.4351,-2.3659,-2.3126,-2.3212,-2.3259,-2.3283,-2.3315,-2.3339,-2.3324,-2.3289,-2.3333,-2.3394,-2.3417,-2.3495,-2.3557,0.0,0.0,0.0,0.0,0.0,0.0,0.0,0.0,0.0,0.0,0.0,0.0,0.0,0.0,0.0,0.0,0.0,0.0,0.0,0.0,0.0,0.0,0.0,0.0,0.0,0.0,0.0,0.0,-2.5056,-2.5675,-2.5354,-2.6488,-2.7044,0.0,0.0,0.0,0.0,0.0,0.0,-2.6939,-2.6939,-2.6845,-2.6685,-2.7172,-2.7336,-2.705,-2.8265,-2.8522,-2.7806,-2.853,-2.8525,-2.7849,-2.7849,-2.7719,-2.7529,-2.7529,-2.7805,-2.8289,-2.8053,-2.801,-2.8003,-2.6992,-2.6449,-2.617,-2.595,-2.5778,-2.5574,-2.5067,-2.4784,-2.4666,-2.4847,-2.4902,-2.4879,-2.4719,0.0,0.0,0.0,0.0,-2.5067,-2.4934,-2.4108,-2.3103,-2.2447,-2.177,-2.1129,-2.0451,-2.0671,-2.1381,-2.2766,-2.3432,-2.3679,-2.3287,-2.2929,0.0,-2.3801,-2.3458,-2.325,-2.3527,-2.3231,-2.2933,-2.2774,-2.2923,-2.307,-2.3061,-2.3086,-2.3086,-2.3086,-2.3086,-2.3086,-2.3086,-2.3155,-2.3224,-2.3248,0.0,0.0,0.0,0.0,0.0,0.0,0.0,0.0,0.0,0.0,0.0,0.0,0.0,0.0,0.0,0.0,0.0,0.0,0.0,0.0,0.0,0.0,0.0,0.0,0.0,0.0,0.0,0.0,0.0,-2.4893,-2.6117,0.0,0.0,0.0,0.0,-2.6712,-2.7074,-2.7213,-2.7105,-2.7105,-2.7322,-2.7886,-2.7949,-2.7973,-2.7921,-2.8687,-2.8703,-2.7984,-2.8718,-2.9058,-2.9019,-2.9019,-2.9027,-2.8973,-2.8973,-2.8996,-2.8917,-2.7597,-2.7164,-2.7169,-2.6354,-2.5695,-2.513,-2.4815,-2.4703,-2.4622,-2.4426,-2.3919,-2.3496,-2.4135,-2.4343,-2.4336,-2.4346,-2.4338,0.0,0.0,-2.4385,-2.4343,-2.4343,-2.3372,-2.237,-2.2294,-2.177,-2.1129,-2.0451,-2.1666,-2.2576,-2.1605,-2.181,-2.2295,-2.2927,0.0,-2.3603,-2.3201,-2.3178,-2.2824,-2.1764,-2.2272,-2.247,-2.1829,-2.2459,-2.2944,-2.2986,-2.3061,-2.3086,-2.3086,-2.3086,-2.3086,-2.3086,-2.2977,-2.2977,-2.3111,-2.3509,0.0,0.0,0.0,0.0,0.0,0.0,0.0,0.0,0.0,0.0,0.0,0.0,0.0,0.0,0.0,0.0,0.0,0.0,0.0,0.0,0.0,0.0,0.0,0.0,0.0,0.0,0.0,0.0,-2.5404,-2.5853,0.0,-2.5171,-2.5481,-2.5901,-2.6214,-2.6387,-2.6646,-2.7012,-2.7036,-2.7138,-2.734,-2.7766,-2.7979,-2.7979,-2.8712,-2.8949,-2.8697,-2.8957,-2.9029,-2.8834,-2.8834,-2.8748,-2.8629,-2.8629,-2.8629,-2.859,-2.8101,-2.7582,-2.6983,-2.6261,-2.5485,-2.4743,-2.463,-2.4508,-2.4392,-2.4302,-2.4017,-2.3599,-2.3441,-2.331,-2.3217,-2.3149,-2.316,-2.3224,-2.3346,-2.3696,-2.3967,-2.3867,-2.3061,-2.2194,-2.2148,-2.1263,-2.0393,-2.0157,-2.0596,-2.0936,-2.0536,-2.1291,-2.1923,-2.1698,-2.18,-2.1964,-2.2057,-2.1731,-2.1317,-2.0894,-2.1108,-2.1186,-2.0954,-2.1583,-2.201,-2.2031,-2.2068,-2.2059,-2.2059,-2.2059,-2.2252,-2.2685,-2.2245,-2.2446,-2.3321,-2.3054,-2.2936,0.0,0.0,0.0,0.0,0.0,0.0,0.0,0.0,0.0,0.0,0.0,0.0,0.0,0.0,0.0,0.0,0.0,0.0,0.0,0.0,0.0,0.0,0.0,0.0,0.0,-2.4818,-2.5261,-2.5006,-2.5497,-2.5555,-2.4787,-2.5376,-2.5918,-2.6138,-2.6541,-2.7003,-2.7457,-2.748,-2.748,-2.748,-2.7911,-2.813,-2.813,-2.8615,-2.8858,-2.8858,-2.8858,-2.8755,-2.8605,-2.8454,-2.8325,-2.8186,-2.7795,-2.7591,-2.752,-2.7285,-2.6655,-2.5843,-2.603,-2.5399,-2.4336,-2.4336,-2.412,-2.3817,-2.3716,-2.3551,-2.329,-2.2882,-2.268,-2.2541,-2.252,-2.2533,-2.2592,-2.2714,-2.29,-2.3036,-2.2935,-2.217,-2.1413,-2.1445,-2.0602,-1.9841,-1.9962,-2.0005,-2.0005,-2.0005,-2.074,-2.1216,-2.0709,-2.0671,-2.0915,-2.1504,-2.1056,-2.0565,-2.043,-2.0655,-2.0652,-2.0152,-2.0942,-2.1485,-2.1485,-2.1851,-2.1914,-2.1524,-2.1859,-2.209,-2.2156,-2.2106,-2.2489,-2.335,-2.3128,-2.3053,-2.3165,0.0,0.0,0.0,0.0,0.0,0.0,0.0,0.0,0.0,0.0,0.0,0.0,0.0,0.0,0.0,0.0,0.0,0.0,0.0,0.0,0.0,0.0,0.0,-2.2808,-2.41,-2.4678,-2.3731,-2.5084,-2.5647,-2.457,-2.6157,-2.7026,-2.6419,-2.7579,-2.8332,-2.8355,-2.8355,-2.8348,-2.8348,-2.8348,-2.8348,-2.8348,-2.8348,-2.8355,-2.8355,-2.8355,-2.8348,-2.8325,-2.7917,-2.7695,-2.7635,-2.6614,-2.6021,-2.5705,-2.5143,-2.4358,-2.3688,-2.5508,-2.5209,-2.3746,-2.3746,-2.3385,-2.2844,-2.2558,-2.2466,-2.2466,-2.2459,-2.2459,-2.2459,-2.2459,-2.2459,-2.2459,-2.2466,-2.2033,-2.157,-2.157,-2.0668,-1.9872,-2.0296,-1.9878,-1.9486,-1.9891,-1.9962,-1.997,-1.9998,-2.0045,-2.0108,-2.0108,-2.0185,-2.0624,-2.1591,-2.1207,0.0,-2.0208,-2.0872,-2.0858,-1.9462,-2.0621,-2.1487,-2.1487,-2.2501,-2.2653,-2.1526,-2.2507,-2.262,-2.155,-2.254,-2.3105,-2.3042,-2.3624,-2.3786,-2.3452,0.0,0.0,0.0,0.0,0.0,0.0,0.0,0.0,0.0,0.0,0.0,0.0,0.0,0.0,0.0,0.0,0.0,0.0,0.0,0.0,0.0,-2.2339,-2.2797,-2.3824,-2.3504,-2.3288,-2.3496,-2.3516,-2.3571,-2.3598,-2.4094,-2.4934,-2.6083,-2.6527,-2.6937,-2.7414,-2.7444,-2.7276,-2.6827,-2.6775,-2.6775,-2.6775,-2.7056,-2.7166,-2.7166,-2.7166,-2.6923,-2.6515,-2.6206,-2.5799,-2.5398,-2.5117,-2.4939,-2.4818,-2.4702,-2.4158,-2.3557,-2.4061,-2.3679,-2.2875,-2.2875,-2.274,-2.2558,-2.2256,-2.2123,-2.2077,-2.1547,-2.1698,-2.1881,-2.1361,-2.1547,-2.1928,-2.1499,-2.1331,-2.1201,-2.1111,-2.0366,-1.9644,-1.9651,-1.918,-1.8846,-1.9243,-1.9369,-1.9435,-1.9726,-1.9841,-1.9904,-2.0025,-2.0068,-2.0172,-2.0446,-1.9513,-1.8779,-1.8687,-1.889,-1.9085,-1.928,-2.0534,-2.1357,-2.1357,-2.1653,-2.1497,-2.0693,-2.0903,-2.1181,-2.1349,-2.1179,-2.131,-2.1798,-2.211,-2.2197,0.0,0.0,0.0,0.0,0.0,0.0,0.0,0.0,0.0,0.0,0.0,0.0,0.0,0.0,0.0,0.0,0.0,0.0,0.0,0.0,0.0,0.0,-2.1502,-2.1851,-2.296,-2.2686,-2.2475,-2.2669,-2.2547,-2.2648,-2.3231,-2.3585,-2.4324,-2.5597,-2.5981,-2.6293,-2.6715,-2.673,-2.6565,-2.6233,-2.618,-2.618,-2.618,-2.64,-2.6513,-2.6513,-2.6239,-2.598,-2.5611,-2.5047,-2.4575,-2.4227,-2.3822,-2.3568,-2.3447,-2.3125,-2.2756,-2.2415,0.0,0.0,0.0,0.0,-2.1867,-2.182,-2.1554,-2.1465,-2.1375,-2.099,-2.1089,-2.1277,-2.0848,-2.099,-2.1224,-2.0649,-2.0321,-2.0105,-1.9829,-1.9171,-1.8611,-1.8713,-1.8443,-1.8312,-1.8745,-1.886,-1.8974,-1.9354,-1.9464,0.0,-1.9444,-1.9745,-2.0005,-2.0005,-1.911,-1.8321,-1.8104,-1.8286,-1.8547,-1.8775,-2.0005,-2.0819,-2.0898,-2.1307,0.0,0.0,0.0,-2.1182,-2.1588,-2.1151,0.0,0.0,0.0,0.0,0.0,-2.1211,0.0,0.0,-2.1056,-2.1019,0.0,0.0,0.0,0.0,0.0,0.0,0.0,0.0,0.0,0.0,0.0,0.0,0.0,0.0,0.0,0.0,-2.0856,-2.0604,-2.1288,-2.1902,-2.2089,-2.1635,-2.1971,-2.2493,-2.3202,-2.3886,-2.4538,-2.5102,-2.5714,-2.6079,-2.6079,-2.6079,0.0,0.0,0.0,-2.5972,-2.5972,-2.5965,-2.599,-2.5912,-2.5419,-2.5137,-2.4988,-2.4042,-2.3617,-2.3469,-2.2613,-2.2049,-2.1812,-2.1209,-2.0848,-2.0845,-2.2547,-2.2634,-2.18,-2.118,-2.099,-2.0941,-2.0755,0.0,0.0,-2.0705,-2.0705,-2.0705,-2.0705,-2.066,-2.0509,-1.995,-1.9329,-1.8708,-1.8225,-1.765,-1.7275,-1.7632,-1.7713,-1.7875,-1.8312,-1.8373,-1.8461,-1.8929,-1.8903,-1.8797,-1.8619,-1.9274,-1.9826,-1.975,-1.9175,-1.8515,-1.7965,-1.8457,-1.8685,-1.8242,-1.9386,0.0,-2.0385,-2.1313,-2.1387,-2.0146,-2.1161,-2.1758,-2.1758,-2.1587,-2.1843,-2.256,-2.2379,-2.1844,-2.0992,-2.1561,-2.1576,-2.1053,-2.0462,-2.0508,0.0,0.0,0.0,0.0,0.0,0.0,0.0,0.0,0.0,0.0,0.0,0.0,0.0,0.0,0.0,-2.0971,-2.134,-2.1607,-2.177,-2.1892,-2.1882,-2.1562,-2.1586,-2.2093,-2.3136,-2.3342,-2.3883,-2.4935,-2.5141,-2.5209,-2.5209,-2.5209,-2.4985,-2.4543,-2.4492,-2.4492,-2.4492,-2.4738,-2.4608,-2.4162,-2.4102,0.0,-2.262,-2.219,-2.1723,-2.1322,-2.1116,-2.0976,-2.0919,-2.0801,-2.0755,-2.0719,-2.111,-2.1133,-2.0941,-2.0799,-2.0755,-2.0755,-2.0705,-2.0705,-2.0705,-2.0705,-2.0705,-2.0705,-2.0705,-2.0384,0.0,-1.9832,-1.9054,-1.8231,-1.8127,-1.765,-1.724,-1.7317,-1.7317,-1.7434,-1.7834,-1.7612,-1.7567,-1.8447,-1.7831,-1.7292,-1.7741,-1.8451,-1.8751,-1.8227,-1.7575,-1.7149,-1.7113,-1.7687,-1.8286,-1.8761,-2.0041,-2.0839,-2.0876,-2.1055,-2.0878,-2.0071,-2.0245,-2.0384,-2.0384,-2.0349,-2.0411,-2.0548,-2.0434,-2.0531,-2.0828,-2.0903,-2.115,-2.1571,-2.1506,-2.1506,0.0,0.0,0.0,0.0,0.0,0.0,0.0,0.0,0.0,0.0,0.0,-1.87,-1.9185,0.0,-2.0145,-2.0203,-2.0734,-2.1206,-2.1313,-2.1598,-2.178,-2.1714,-2.1682,-2.2011,-2.292,-2.3004,-2.3351,-2.4208,-2.4383,-2.4447,-2.4447,-2.4505,-2.4396,-2.4119,-2.4119,-2.4119,-2.4119,-2.4209,-2.4022,-2.3454,-2.3177,-2.2583,-2.1719,-2.132,-2.0923,-2.0705,-2.0705,-2.0705,-2.0705,-2.0705,-2.0705,-2.0705,-2.0705,-2.0705,-2.0705,-2.0705,-2.0705,-2.0705,-2.0705,-2.0705,-2.0705,-2.0705,-2.0705,-2.0646,-2.0365,-2.0035,-1.9688,-1.9113,-1.8487,-1.7928,-1.7642,-1.7307,-1.7038,-1.7038,-1.708,-1.7157,-1.7358,-1.7243,-1.7236,-1.766,-1.7481,-1.7117,-1.6775,-1.7225,-1.7452,-1.6834,-1.647,-1.615,-1.5892,-1.6417,-1.7126,-1.7805,-1.8758,-1.9442,-1.9682,-1.9383,-1.9118,-1.8961,-1.8882,-1.9109,-1.9675,-1.9646,-1.9682,-1.9884,-1.9805,-1.9818,-1.9953,-2.0255,-2.0463,-2.0571,-2.0869,-2.1315,0.0,0.0,0.0,0.0,0.0,0.0,0.0,0.0,-1.6876,-1.7484,-1.7884,-1.8298,-1.8782,-1.9289,-1.9661,-1.9595,-2.0162,-2.0641,-2.0746,-2.1377,-2.1845,-2.192,-2.2007,-2.2334,-2.2892,-2.2949,-2.3135,-2.359,-2.376,-2.3825,-2.3825,-2.3943,-2.395,-2.3833,-2.3826,-2.3781,-2.3663,-2.3663,-2.3364,-2.2766,-2.233,-2.181,-2.1225,-2.0807,-2.0599,-2.0599,-2.0599,-2.0599,-2.0599,-2.0599,-2.0599,-2.0599,-2.0599,-2.0599,-2.0599,-2.0655,-2.0705,-2.0705,-2.0655,-2.0655,-2.0655,-2.0605,-2.0527,-2.0351,-1.9895,-1.9554,-1.9183,-1.8266,-1.7865,-1.757,-1.7125,-1.6918,-1.6882,-1.6882,-1.6918,-1.696,-1.696,-1.6905,-1.6834,-1.6942,-1.7074,-1.6815,-1.5855,-1.5938,-1.6035,-1.5663,-1.5611,-1.5396,-1.4871,-1.5374,-1.6018,-1.6548,-1.7157,-1.7655,-1.8031,-1.7556,-1.7374,-1.7662,-1.7584,-1.7921,-1.8855,-1.8877,-1.9031,-1.9388,-1.9434,-1.9376,-1.9161,-1.9681,-1.9817,-1.9564,-1.9894,-2.0568,-1.7429,-1.6315,-1.5238,-1.6197,-1.5638,-1.5209,0.0,0.0,-1.6748,-1.7399,-1.7573,-1.7755,-1.838,-1.9005,-1.9561,-2.0,-2.0578,-2.102,-2.102,-2.1625,-2.2055,-2.2061,-2.2445,-2.2911,-2.3475,-2.3532,-2.3558,-2.3622,-2.3628,-2.3628,-2.3628,-2.3628,-2.3456,-2.2955,-2.2943,-2.2698,-2.2253,-2.2246,-2.1944,-2.1305,-2.1247,-2.0926,-2.0322,-2.0258,-2.0239,-2.0239,-2.0239,-2.0239,-2.0239,-2.0239,-2.0239,-2.0239,-2.0239,-2.0239,-2.0283,-2.0599,-2.0705,-2.0655,-2.0562,-2.0511,-2.0511,-2.029,-1.9943,-1.9519,-1.9468,-1.8748,-1.7926,-1.776,-1.74,-1.7001,-1.6937,-1.6924,-1.6882,-1.6882,-1.6924,-1.6924,-1.6924,-1.6141,-1.571,-1.6725,-1.5718,-1.482,-1.5194,-1.4864,-1.464,-1.4871,-1.4907,-1.4878,-1.4815,-1.5374,-1.5849,-1.5912,-1.6443,-1.6831,-1.6908,-1.6802,-1.6788,-1.6824,-1.6831,-1.6859,-1.7007,-1.749,-1.7801,-1.7838,-1.8385,-1.8892,-1.9364,-1.9387,-1.9662,-2.0182,-1.9552,-1.9663,-1.5259,-1.5192,-1.4995,0.0,-1.4732,-1.5169,-1.5761,-1.6113,-1.6392,-1.6806,-1.7047,-1.7363,-1.7885,-1.8454,-1.8972,-1.9444,-2.0096,-2.0554,-2.0554,-2.0859,-2.1102,-2.1102,-2.1649,-2.2399,-2.3207,-2.3318,-2.3318,-2.3318,-2.345,-2.3456,-2.3456,-2.3256,-2.3026,-2.2795,-2.2525,-2.2242,-2.1998,-2.1998,-2.1703,-2.1118,-2.1118,-2.0771,-2.0182,-2.0182,-2.0182,-2.0182,-2.0182,-2.0182,-2.0182,-2.0182,-2.0182,-2.0182,-2.0182,-2.0182,-2.0233,-2.0334,-2.0391,-2.0391,-2.0341,-2.0347,-2.0296,-2.0233,-1.9855,-1.9329,-1.9022,-1.8362,-1.7651,-1.7324,-1.7025,-1.6761,-1.6761,-1.6712,-1.665,-1.665,-1.6748,-1.6761,-1.6761,-1.6475,-1.6222,-1.6363,-1.6075,-1.5684,-1.5274,-1.5005,-1.4866,-1.5021,-1.4486,-1.4111,-1.4111,-1.4398,-1.4762,-1.508,-1.5497,-1.5703,-1.5501,-1.5675,-1.5675,-1.5501,-1.6149,-1.6461,-1.6345,-1.7226,-1.764,-1.749,-1.8068,-1.8351,-1.8283,-1.829,-1.8295,-1.8327,-1.8223,-1.8352,-1.3536,0.0,0.0,-1.3355,-1.3914,-1.4705,-1.4938,-1.5207,-1.5586,-1.6325,-1.6471,-1.6717,-1.7436,-1.7857,-1.8217,-1.8674,-1.9191,-1.956,-1.9628,-1.9866,-1.9986,-1.9986,-2.0536,-2.1212,-2.1963,-2.2567,-2.2909,-2.3065,-2.3125,-2.3109,-2.3109,-2.2833,-2.2528,-2.2215,-2.1869,-2.1581,-2.1415,-2.1415,-2.1192,-2.0717,-2.0717,-2.0513,-2.0074,-2.0074,-2.0074,-2.0074,-2.0074,-2.0074,-2.0061,-1.9915,-1.9851,-1.9838,-1.9686,-1.9718,-1.9851,-1.9851,-1.9997,-2.0182,-2.0182,-2.0029,-1.9908,-1.9901,-1.9423,-1.8773,-1.8391,-1.7862,-1.7313,-1.6905,-1.6705,-1.6626,-1.6626,-1.6571,-1.6515,-1.6515,-1.6571,-1.6626,-1.6626,-1.6585,-1.6485,-1.6195,-1.6383,-1.63,-1.549,-1.5356,-1.5305,-1.5146,-1.4479,-1.3983,-1.4024,-1.4113,-1.4339,-1.4729,-1.4976,-1.5048,-1.4774,-1.4983,-1.5012,-1.4768,-1.5594,-1.5983,-1.5872,-1.6783,-1.7222,-1.704,-1.7595,-1.7713,-1.7317,-1.7317,-1.72,-1.707,-1.734,-1.7637,0.0,0.0,-1.2057,-1.3219,-1.3142,-1.3143,-1.4566,-1.4241,-1.4137,-1.6163,-1.5822,-1.561,-1.7046,-1.7352,-1.7441,-1.7875,-1.794,-1.8102,-1.8484,-1.8781,-1.8981,-1.8981,-1.9188,-1.9395,-1.9412,-2.1179,-2.256,-2.3034,-2.2636,-2.2334,-2.2334,-2.2322,-2.182,-2.0806,-2.0756,-2.0479,-1.9855,-1.9855,-1.9849,-1.983,-1.983,-1.9817,-1.9798,-1.9798,-1.9798,-1.9798,-1.9798,-1.9798,-1.9767,-1.9258,-1.9051,-1.8995,-1.8461,-1.8581,-1.9051,-1.9051,-1.9528,-2.0182,-2.0035,-1.9686,-1.9187,-1.9101,-1.8311,-1.7477,-1.7458,-1.7005,-1.654,-1.6528,-1.6515,-1.6522,-1.6522,-1.6515,-1.6515,-1.6515,-1.6515,-1.6522,-1.6522,-1.6095,-1.5875,-1.6396,-1.6076,-1.5712,-1.5674,-1.5668,-1.5526,-1.4991,-1.4955,-1.5012,-1.5146,-1.5152,-1.5159,-1.5178,-1.5178,-1.5178,-1.5178,-1.5178,-1.5178,-1.5178,-1.5216,-1.5223,-1.5241,-1.5761,-1.6062,-1.6043,-1.6635,-1.6918,-1.6918,-1.6803,-1.6985,-1.7479,-1.7447,-1.7953,-1.0911,0.0,-1.1889,-1.2228,-1.2582,-1.3036,-1.3704,-1.374,-1.3892,-1.4708,-1.4895,-1.5203,-1.6025,-1.6515,-1.7072,-1.7804,-1.7925,-1.8021,-1.8417,-1.836,-1.815,-1.7784,-1.8541,-1.8806,-1.8234,-1.9855,-2.0957,-2.1138,-2.136,-2.1504,-2.1504,-2.1144,-2.0773,-2.0576,-2.0195,-1.9907,-1.9805,-1.9805,-1.9805,-1.9805,-1.9805,-1.9805,-1.9805,-1.9805,-1.9805,-1.9805,-1.9805,-1.9604,-1.9302,-1.9472,-1.934,-1.8958,-1.8462,-1.8759,-1.9446,-1.8789,-1.8877,-1.9396,-1.9346,-1.9227,-1.9013,-1.8599,-1.7984,-1.7382,-1.7382,-1.698,-1.6429,-1.6107,-1.6064,-1.6064,-1.6064,-1.6064,-1.6107,-1.6429,-1.6244,-1.6064,-1.6064,-1.5662,-1.5339,-1.5517,-1.541,-1.5417,-1.5703,-1.5205,-1.4713,-1.4541,-1.478,-1.5069,-1.5165,-1.521,-1.521,-1.521,-1.521,-1.521,-1.521,-1.551,-1.5561,-1.5229,-1.5902,-1.5985,-1.5235,-1.6107,-1.6379,-1.5868,-1.6468,-1.6705,-1.665,-1.6614,-1.686,-1.7459,-1.7804,-1.8317,-0.9034,-0.9677,-1.0541,-1.0654,-1.1271,-1.2083,-1.2639,-1.2751,-1.2959,-1.3704,-1.3855,-1.4114,-1.5065,-1.5696,-1.6346,-1.7327,-1.7641,-1.784,-1.8282,-1.7979,-1.7601,-1.7317,-1.7744,-1.7823,-1.7132,-1.8265,-1.9296,-1.9837,-2.0216,-2.0439,-2.0491,-2.014,-1.997,-2.0116,-1.9704,-1.9565,-1.9656,-1.9656,-1.9656,-1.9656,-1.9656,-1.9656,-1.9656,-1.9656,-1.9546,-1.9313,-1.9342,-1.9066,-1.8509,-1.8666,-1.8562,-1.8157,-1.7713,-1.8046,-1.866,-1.8142,-1.8193,-1.8645,-1.8727,-1.8499,-1.806,-1.756,-1.7001,-1.6575,-1.6575,-1.6402,-1.6151,-1.5662,-1.5662,-1.5744,-1.5573,-1.5528,-1.5623,-1.5938,-1.5762,-1.5528,-1.5528,-1.5322,-1.5108,-1.5108,-1.5108,-1.5193,-1.549,-1.5004,-1.4582,-1.4582,-1.4844,-1.5131,-1.538,-1.5414,-1.5467,-1.564,-1.568,-1.568,-1.568,-1.5963,-1.6014,-1.5699,-1.6168,-1.6201,-1.5446,-1.6139,-1.6297,-1.5809,-1.6346,-1.6585,-1.649,-1.649,-1.6788,-1.7374,-1.7727,-1.8171,-0.7456,-0.7741,-0.8099,-0.8686,-0.9389,-1.0275,-1.1438,-1.1416,-1.1533,-1.3047,-1.2633,-1.2523,0.0,0.0,-1.5417,-1.65,-1.7045,-1.7463,-1.7876,-1.7599,-1.7402,-1.7388,-1.7017,-1.6582,-1.6169,-1.6613,-1.7545,-1.9016,-1.9044,-1.9077,-1.9256,-1.9289,-1.9285,-1.9328,-1.9309,-1.9309,-1.9309,-1.9309,-1.9309,-1.9309,-1.9309,-1.9309,-1.9309,-1.9309,-1.8975,-1.8442,-1.8497,-1.8171,-1.7521,-1.7088,-1.6865,-1.6744,-1.6344,-1.6461,-1.688,-1.7138,-1.7474,-1.7853,-1.8057,-1.7472,-1.6513,-1.6033,-1.5522,-1.5108,-1.5091,-1.5424,-1.5668,-1.5222,-1.5379,-1.5611,-1.5147,-1.5057,-1.5062,-1.5062,-1.5057,-1.5062,-1.5062,-1.5011,-1.5011,-1.5017,-1.5062,-1.5057,-1.5011,-1.5062,-1.5057,-1.5017,-1.5011,-1.5187,-1.57,-1.5744,-1.5926,-1.6386,-1.6436,-1.6436,-1.6436,-1.6436,-1.6436,-1.6436,-1.6014,-1.5744,-1.5744,-1.5744,-1.5744,-1.5744,-1.6231,-1.6452,-1.6449,-1.6472,-1.6767,-1.7289,-1.7289,-1.7616,-0.7006,-0.7378,-0.8033,-0.88,-0.9413,-0.999,-1.0471,-1.0845,-1.1203,-1.1526,-1.212,-1.2931,0.0,0.0,-1.5006,-1.6112,-1.594,-1.6012,-1.7023,-1.7064,0.0,-1.7356,0.0,-1.6914,-1.6199,-1.6486,-1.6687,-1.6412,-1.7225,-1.7683,-1.7785,-1.7785,-1.7784,-1.7935,-1.7929,-1.7984,-1.8081,-1.8076,-1.8076,-1.8076,-1.8076,-1.8076,-1.8076,-1.8076,-1.7967,-1.7846,-1.7836,-1.7529,-1.7042,-1.732,-1.7171,-1.6783,-1.6297,-1.6644,-1.7295,-1.6671,-1.6664,-1.7017,-1.6369,-1.63,-1.6322,-1.5527,-1.5154,-1.5028,-1.5293,-1.5285,-1.5063,-1.4814,-1.4666,-1.4582,-1.4351,-1.4351,-1.4501,-1.476,-1.4531,-1.4305,-1.4305,-1.3972,-1.3689,-1.3789,-1.4222,-1.4414,-1.3936,-1.4269,-1.4419,-1.4035,-1.3988,-1.4316,-1.5187,-1.5283,-1.5322,-1.5457,-1.5463,-1.5463,-1.5463,-1.5463,-1.5463,-1.5463,-1.5322,-1.5283,-1.5283,-1.5283,-1.5283,-1.5283,-1.5724,-1.5981,-1.5968,-1.629,-1.6709,-1.7289,-1.7289,-1.7616,-0.6237,-0.6521,-0.7001,-0.7761,-0.851,-0.9144,-0.9583,-1.0327,-1.0949,-1.1231,-1.1843,0.0,-1.3482,-1.3979,-1.4551,0.0,0.0,0.0,-1.6766,-1.6936,-1.6999,0.0,-1.7383,0.0,-1.6208,-1.6289,-1.6152,-1.5464,-1.6214,-1.6749,-1.6821,-1.681,-1.6984,-1.7318,-1.7318,-1.7374,-1.7413,-1.7413,-1.7413,-1.7413,-1.7413,-1.7413,-1.7413,-1.7413,-1.7302,-1.7013,-1.7082,-1.6618,-1.597,-1.6498,-1.6395,-1.5916,-1.5917,-1.6201,-1.6578,-1.5964,-1.5851,-1.5913,-1.5028,-1.4961,-1.5107,-1.4455,-1.4206,-1.4246,-1.4677,-1.4774,-1.4755,-1.46,-1.4445,-1.4334,-1.4007,-1.3856,-1.3789,-1.4009,-1.3821,-1.3642,-1.3642,-1.3404,-1.3213,-1.3314,-1.3605,-1.3747,-1.3362,-1.3605,-1.3795,-1.3563,-1.3515,-1.3752,-1.4362,-1.4645,-1.488,-1.5062,-1.5108,-1.5108,-1.5108,-1.5108,-1.5108,-1.5108,-1.4926,-1.4789,-1.4789,-1.4944,-1.5056,-1.5056,-1.5708,-1.6066,-1.6054,-1.627,-1.6555,-1.689,-1.689,-1.7087,-0.5563,-0.5594,-0.5694,-0.6352,-0.7173,-0.801,-0.8835,-0.9771,-1.0684,-1.1475,0.0,-1.2149,-1.293,-1.3613,-1.4102,-1.4492,0.0,-1.5675,-1.6511,-1.6581,-1.672,-1.7087,-1.7062,-1.677,-1.6016,-1.595,-1.576,-1.5439,-1.5713,-1.5979,-1.6156,-1.6197,-1.642,-1.6917,-1.6978,-1.6978,-1.6978,-1.6978,-1.6946,-1.6881,-1.6881,-1.6849,-1.679,-1.6855,-1.6608,-1.609,-1.6247,-1.5722,-1.4919,-1.5346,-1.524,-1.4959,-1.5402,-1.5458,-1.5336,-1.5189,-1.5034,-1.4815,-1.4145,-1.3835,-1.3664,-1.334,-1.321,-1.3345,-1.3821,-1.4194,-1.4466,-1.4435,-1.4445,-1.4284,-1.3882,-1.3486,-1.3175,-1.3175,-1.3175,-1.3175,-1.3175,-1.317,-1.3175,-1.3175,-1.317,-1.3218,-1.317,-1.317,-1.3266,-1.3367,-1.3362,-1.3367,-1.3415,-1.3947,-1.446,-1.4875,-1.492,-1.4949,-1.4971,-1.496,-1.4949,-1.4971,-1.4606,-1.4378,-1.4378,-1.4779,-1.4973,-1.4973,-1.587,-1.6284,-1.6321,-1.6326,-1.6353,-1.6374,-1.6316,-1.6322,-0.5504,-0.5389,-0.5371,-0.626,-0.6723,-0.7198,-0.8277,-0.9191,0.0,0.0,-1.1748,-1.2546,-1.3212,-1.3446,-1.3716,-1.4114,-1.3998,-1.4126,-1.4887,-1.5029,-1.518,0.0,-1.5318,-1.5134,-1.523,-1.4949,-1.4963,-1.5357,-1.5161,-1.5179,-1.5565,-1.5584,-1.5575,-1.569,-1.569,-1.569,-1.569,-1.569,-1.5573,-1.5219,-1.5219,-1.5024,-1.4626,-1.5049,-1.5163,-1.5071,-1.54,-1.5466,-1.5298,-1.5356,-1.5356,-1.5273,-1.5066,-1.4954,-1.4844,-1.4459,-1.4302,-1.4224,-1.4125,-1.4076,-1.3949,-1.3386,-1.3381,-1.3675,-1.4111,-1.4049,-1.3901,-1.4119,-1.3784,-1.333,-1.3135,-1.3081,-1.307,-1.2968,-1.2968,-1.2968,-1.2968,-1.3017,-1.307,-1.2968,-1.3089,-1.318,-1.3118,-1.3137,-1.3218,-1.3213,-1.3213,-1.3064,-1.2662,-1.3261,-1.3758,-1.3847,-1.3852,-1.4005,-1.4395,-1.4073,-1.4015,-1.4405,-1.4382,-1.4333,-1.4333,-1.4783,-1.4977,-1.4977,-1.5537,-1.5815,-1.5844,-1.6042,-1.6151,-1.6119,-1.6024,-1.5977,-0.5394,-0.5384,-0.5397,-0.5876,-0.6299,-0.6895,-0.7931,0.0,0.0,0.0,-1.1813,-1.2463,-1.2789,-1.3162,0.0,-1.3156,-1.316,-1.3378,-1.4061,-1.4132,-1.4282,-1.4731,-1.4533,-1.4264,-1.4123,-1.3789,-1.374,-1.4028,-1.3772,-1.4059,-1.5002,-1.5088,-1.5186,-1.5405,-1.541,-1.541,-1.541,-1.5195,-1.4985,-1.4785,-1.4785,-1.4556,-1.4097,-1.4585,-1.4785,-1.4795,-1.4995,-1.4956,-1.478,-1.5225,-1.5019,-1.4443,-1.4692,-1.4785,-1.4731,-1.4292,-1.4277,-1.4443,-1.4155,-1.3936,-1.3774,-1.3677,-1.376,-1.3924,-1.4125,-1.4052,-1.3929,-1.4077,-1.3738,-1.3308,-1.3208,-1.3091,-1.2983,-1.2929,-1.2681,-1.2377,-1.2067,-1.2318,-1.2578,-1.248,-1.2813,-1.2958,-1.2627,-1.2613,-1.254,-1.2316,-1.2477,-1.2526,-1.2061,-1.2565,-1.2962,-1.2962,-1.3218,-1.356,-1.4028,-1.387,-1.3931,-1.4379,-1.4409,-1.4409,-1.4409,-1.4846,-1.5085,-1.5085,-1.5588,-1.5823,-1.5823,-1.5918,-1.6014,-1.6014,-1.5724,-1.5618,-0.5293,-0.5387,-0.5453,-0.5602,-0.5959,-0.6594,-0.7795,-0.865,0.0,0.0,-1.1997,-1.2305,-1.2303,0.0,-1.2913,0.0,-1.2504,-1.2989,-1.3393,-1.3369,-1.3462,0.0,-1.3577,0.0,-1.3001,-1.2679,-1.2585,-1.2767,-1.2453,-1.2857,-1.4221,-1.4417,-1.4622,-1.495,-1.5167,-1.5234,-1.5137,-1.4902,-1.4692,-1.4512,-1.4512,-1.4282,-1.3877,-1.4311,-1.4512,-1.4517,-1.4609,-1.4453,-1.4141,-1.4961,-1.4687,-1.3853,-1.4521,-1.4785,-1.4731,-1.4292,-1.4351,-1.4595,-1.4253,-1.3863,-1.3696,-1.3975,-1.4082,-1.4082,-1.4082,-1.4082,-1.4063,-1.3864,-1.3484,-1.3162,-1.3055,-1.2767,-1.2524,-1.2524,-1.222,-1.1769,-1.1305,-1.156,-1.1923,-1.1923,-1.2274,-1.2421,-1.1972,-1.1923,-1.176,-1.1429,-1.1742,-1.185,-1.1375,-1.1823,-1.2152,-1.2086,-1.26,-1.314,-1.3599,-1.3638,-1.3818,-1.4243,-1.4214,-1.4214,-1.4214,-1.4687,-1.4922,-1.4922,-1.5316,-1.5488,-1.5488,-1.543,-1.5381,-1.5336,-1.4988,-1.4772,-0.5317,-0.5381,-0.5476,-0.5814,-0.5793,-0.6104,-0.7804,0.0,0.0,-1.1089,-1.2013,-1.2473,-1.2199,0.0,0.0,0.0,0.0,0.0,-1.2236,-1.2402,-1.236,-1.182,0.0,0.0,-1.2112,-1.1895,-1.1933,-1.2593,-1.1982,-1.1905,-1.2679,-1.3145,-1.3437,-1.3469,-1.4407,-1.4653,-1.4199,-1.4609,-1.4394,-1.3623,-1.3623,-1.3408,-1.3013,-1.3433,-1.3623,-1.3647,-1.4028,-1.4116,-1.4116,-1.4648,-1.4775,-1.4678,-1.4756,-1.4785,-1.4731,-1.4292,-1.4107,-1.4136,-1.4092,-1.4058,-1.4029,-1.4068,-1.4082,-1.4082,-1.4082,-1.4082,-1.3942,-1.3086,-1.2536,-1.2077,-1.1558,-1.1381,-1.136,-1.136,-1.1309,-1.1255,-1.12,-1.1255,-1.1305,-1.1305,-1.1305,-1.1355,-1.1305,-1.1305,-1.1255,-1.12,-1.1255,-1.1103,-1.06,-1.0998,-1.1222,-1.1072,-1.173,-1.2417,-1.2869,-1.2796,-1.291,-1.3362,-1.3389,-1.3389,-1.3389,-1.388,-1.41,-1.41,-1.4131,-1.4149,-1.4149,-1.4021,-1.3766,-1.3416,-1.3292,-1.3037,-0.5047,-0.5146,-0.5292,-0.5663,-0.558,-0.5955,-0.7803,0.0,-0.9322,-1.1064,-1.1965,-1.2415,-1.222,-1.2517,0.0,0.0,0.0,0.0,-1.2074,-1.1922,-1.1796,-1.1617,-1.1365,-1.1197,-1.1258,-1.0834,-1.0555,-1.0551,-1.0268,-1.0227,-1.052,-1.1696,-1.2466,-1.2804,-1.3185,-1.3309,-1.3141,-1.3397,-1.3355,-1.3035,-1.3352,-1.3286,-1.2895,-1.3315,-1.3506,-1.352,-1.3686,-1.376,-1.3809,-1.4502,-1.4482,-1.4009,-1.4128,-1.4209,-1.419,-1.3965,-1.3829,-1.3811,-1.4222,-1.3784,-1.3136,-1.3372,-1.3127,-1.2844,-1.3165,-1.3178,-1.291,-1.2064,-1.1679,-1.151,-1.1255,-1.1204,-1.1103,-1.0804,-1.0702,-1.0647,-1.0336,-1.0494,-1.0702,-1.0702,-1.1002,-1.1103,-1.0749,-1.0702,-1.0596,-1.0281,-1.0494,-1.0545,-0.998,-1.0565,-1.0849,-1.0454,-1.1268,-1.2109,-1.2776,-1.2832,-1.2935,-1.3368,-1.339,-1.339,-1.339,-1.3596,-1.3679,-1.3679,-1.3679,-1.3679,-1.3679,-1.344,-1.3187,-1.3089,-1.2582,-1.2363,-0.4987,-0.5113,-0.5289,-0.56,-0.563,-0.5958,0.0,-0.8467,-0.933,-1.0849,-1.1807,-1.2301,-1.2301,-1.2452,-1.2427,0.0,0.0,0.0,-1.1852,-1.1572,-1.1363,-1.1393,-1.1132,-1.0907,-1.0649,-1.0071,-0.9506,-0.9099,-0.9057,-0.911,-0.9162,-1.0257,-1.1186,-1.1756,-1.2091,-1.2204,-1.2083,-1.2316,-1.2391,-1.2274,-1.2637,-1.2645,-1.2431,-1.2714,-1.2795,-1.2795,-1.2795,-1.2795,-1.2912,-1.3742,-1.3742,-1.3179,-1.3482,-1.3574,-1.3561,-1.344,-1.3345,-1.3273,-1.3629,-1.3058,-1.2298,-1.2393,-1.2104,-1.1684,-1.1943,-1.2135,-1.2085,-1.1234,-1.0846,-1.0744,-1.0744,-1.0744,-1.0639,-1.0237,-1.0138,-1.0035,-0.9666,-0.9877,-1.0138,-1.0138,-1.0494,-1.0592,-1.0241,-1.0138,-1.007,-0.9798,-1.0076,-1.0219,-0.9942,-1.0419,-1.0711,-1.0431,-1.1051,-1.176,-1.2327,-1.247,-1.2637,-1.2944,-1.2964,-1.2964,-1.2964,-1.2964,-1.2964,-1.2964,-1.2853,-1.28,-1.28,-1.243,-1.2258,-1.2142,-1.1687,-1.1921,-0.5167,-0.5363,-0.5611,-0.5817,-0.5895,-0.6241,0.0,-0.8446,-0.9397,-1.0462,-1.1585,-1.2301,-1.2301,-1.2301,-1.2208,0.0,0.0,0.0,-1.1122,-1.1246,-1.1212,-1.0698,-1.0818,-1.0762,-1.018,-0.9532,-0.9122,-0.8828,-0.8808,-0.8857,-0.9008,-0.9012,-0.9316,-1.0024,-1.11,-1.1479,-1.1032,-1.1623,-1.1688,-1.1213,-1.1209,-1.1209,-1.1204,-1.1209,-1.1209,-1.1209,-1.1209,-1.1209,-1.1268,-1.2081,-1.2444,-1.2475,-1.2849,-1.2999,-1.2952,-1.2629,-1.2491,-1.2439,-1.2072,-1.1938,-1.1817,-1.1392,-1.1094,-1.083,-1.0506,-1.1118,-1.1694,-1.0705,-1.0035,-0.9614,-0.9614,-0.9614,-0.9614,-0.9614,-0.9614,-0.9614,-0.9614,-0.9614,-0.9614,-0.9614,-0.961,-0.9614,-0.9614,-0.9614,-0.9724,-1.0049,-1.0097,-1.021,-1.0536,-1.058,-1.0708,-1.103,-1.1122,-1.1126,-1.1133,-1.1431,-1.1619,-1.1622,-1.1622,-1.1622,-1.1622,-1.1622,-1.1622,-1.1622,-1.1303,-1.1137,-1.1137,-1.081,-1.0422,-1.0115,-1.0437,-1.1517,-0.5557,-0.563,-0.582,-0.6083,-0.6136,-0.6415,-0.7475,-0.8541,-0.9578,-1.0539,-1.1516,-1.2301,-1.2301,-1.2301,-1.2271,-1.2181,0.0,0.0,0.0,0.0,-1.0387,-0.9564,-0.9212,-0.8918,-0.858,-0.8591,-0.8496,-0.8221,-0.8586,-0.8808,-0.8857,-0.8857,-0.9061,-0.9462,-0.9825,-0.9926,-0.9766,-1.0331,-1.0538,-1.0375,-1.0825,-1.1078,-1.1078,-1.1145,-1.1204,-1.1204,-1.1204,-1.1204,-1.1243,-1.1794,-1.2057,-1.2042,-1.2029,-1.2061,-1.2048,-1.1933,-1.176,-1.1596,-1.1894,-1.1682,-1.1283,-1.0936,-1.0576,-1.0305,-0.9974,-1.0264,-1.0566,-1.0019,-0.9718,-0.9614,-0.9614,-0.9614,-0.9614,-0.9614,-0.9614,-0.9614,-0.9614,-0.979,-0.9947,-0.9947,-1.0126,-1.028,-1.028,-1.028,-1.0316,-1.0419,-1.0433,-1.047,-1.0576,-1.0781,-1.096,-1.1063,-1.1336,-1.1468,-1.1468,-1.1564,-1.1622,-1.1622,-1.1622,-1.1622,-1.1622,-1.1409,-1.1288,-1.1288,-1.0909,-1.085,-1.1074,-1.0744,-1.0536,-1.0448,-1.0997,-1.1659,0.0,-0.6002,-0.5969,-0.623,-0.6264,-0.6515,-0.7346,-0.827,-0.9202,-0.9813,-1.0692,-1.1397,-1.1397,-1.1397,-1.1397,-1.1397,0.0,0.0,0.0,-1.0122,-0.9693,-0.8939,-0.8343,-0.7996,-0.7911,-0.7884,-0.7836,-0.7622,-0.7943,-0.8162,-0.8162,-0.8371,-0.8527,-0.8728,-0.9001,-0.911,-0.911,-0.9514,-0.9714,-0.9714,-1.0115,-1.0316,-1.0316,-1.0431,-1.049,-1.0537,-1.0537,-1.0541,0.0,-1.1027,-1.1227,-1.1198,-1.1103,-1.1023,-1.1007,-1.0876,-1.0763,-1.0766,-1.1161,-1.1133,-1.0858,-1.0653,-1.0368,-1.0038,-0.9713,-0.9757,-0.9874,-0.9669,-0.9614,-0.9614,-0.9614,-0.9614,-0.9614,-0.9614,-0.9614,-0.9614,-0.9614,-0.987,-1.01,-1.01,-1.0364,-1.0587,-1.0587,-1.0587,-1.0627,-1.0755,-1.077,-1.077,-1.077,-1.1059,-1.1165,-1.0916,-1.1293,-1.1575,-1.145,-1.1556,-1.1622,-1.1622,-1.1622,-1.1567,-1.1446,-1.1183,-1.1019,-1.0891,-1.0693,-1.0689,-1.0891,-1.0686,-1.0715,-1.0967,-1.1494,-1.1981,0.0,-0.6622,-0.6224,-0.6454,-0.6504,-0.6668,-0.7076,-0.7814,0.0,-0.8659,-0.9374,-0.9892,-0.9892,-0.9892,-0.9892,-0.9892,-0.9892,-0.9811,-0.9431,-0.919,-0.8867,-0.8598,-0.8,-0.7717,-0.7844,-0.7359,-0.7028,-0.7028,-0.7028,-0.7085,-0.7085,-0.7557,-0.7818,-0.7818,-0.8521,-0.8956,-0.9012,-0.911,-0.9159,-0.9159,-0.9159,-0.9159,-0.9159,-0.9211,-0.9263,-0.9361,-0.9361,-0.9462,-0.9584,-0.9889,-1.0013,-1.0013,-1.0013,-1.0013,-0.9977,-0.9675,-0.9769,-1.0108,-1.0075,-1.0335,-1.0583,-1.0558,-1.0331,-1.0013,-0.9705,-0.9614,-0.9614,-0.9614,-0.9614,-0.9614,-0.9614,-0.9614,-0.9614,-0.9614,-0.9614,-0.9614,-0.9614,-0.987,-1.0108,-1.013,-1.0382,-1.0594,-1.062,-1.0605,-1.0689,-1.0993,-1.1037,-1.1037,-1.1037,-1.1369,-1.126,-1.0653,-1.1068,-1.1308,-1.1003,-1.1363,-1.1615,-1.1593,-1.1586,-1.1439,-1.1055,-1.1019,-1.0872,-1.0591,-1.0613,-1.0624,-1.0624,-1.0667,-1.1,-1.1667,-1.1944,-1.2416,-0.8891,0.0,-0.8421,-0.7925,-0.784,-0.783,0.0,-0.7922,-0.864,0.0,0.0,0.0,0.0,0.0,-0.9892,-0.9892,-0.9892,-0.9587,-0.8773,-0.7863,-0.7212,-0.6964,-0.6528,-0.6235,-0.6237,-0.6172,-0.61,-0.61,-0.648,-0.6699,-0.6699,-0.6856,-0.6961,-0.7122,-0.7717,-0.8262,-0.8857,-0.8857,-0.8906,-0.8906,-0.9008,-0.9061,-0.9057,-0.9159,-0.9211,-0.9263,-0.9263,-0.9263,-0.9319,-0.9394,-0.9425,-0.9425,-0.9425,-0.9425,-0.9411,-0.9337,-0.9564,-0.9976,-1.0048,-1.0297,-1.0547,-1.0294,-0.9994,-0.9716,-0.964,-0.9614,-0.9614,-0.9614,-0.9614,-0.9614,-0.9614,-0.9614,-0.9614,-0.9614,-0.9614,-0.9614,-0.9614,-0.987,-1.0174,-1.0426,-1.0536,-1.0667,-1.0916,-1.0755,-1.0613,-1.0689,-1.07,-1.07,-1.07,-1.077,-1.0646,-1.0217,-1.0027,-0.9899,-0.9721,-1.0862,-1.1516,-1.1205,-1.1247,-1.1044,-1.0719,-1.0463,-1.0408,-1.0583,-1.0832,-1.096,-1.096,-1.1454,-1.1772,-1.1937,-1.2511,-1.2662,-1.0324,-0.971,-0.8899,-0.8539,-0.8586,-0.8558,-0.7863,0.0,0.0,0.0,0.0,0.0,0.0,0.0,0.0,-0.8749,-0.8687,-0.8407,-0.7695,-0.7074,-0.6549,-0.6073,-0.5738,-0.5549,-0.5409,-0.5387,-0.5391,-0.5391,-0.5662,-0.5823,-0.5823,-0.61,-0.6263,-0.6367,-0.6912,-0.756,-0.8365,-0.8643,-0.8808,-0.8808,-0.8857,-0.891,-0.8906,-0.8959,-0.9057,-0.911,-0.911,-0.9162,-0.9211,-0.9211,-0.9211,-0.9211,-0.9211,-0.9211,-0.9211,-0.9211,-0.9461,-0.9829,-1.0023,-1.0339,-1.0523,-1.0204,-0.9889,-0.9603,-0.9456,-0.9462,-0.9514,-0.9562,-0.9614,-0.9614,-0.9614,-0.9614,-0.9614,-0.9614,-0.9614,-0.9614,-0.9614,-0.9933,-1.0219,-1.0248,-1.0437,-1.0646,-1.0678,-1.0538,-1.0422,-1.0422,-1.0422,-1.0368,-1.0221,-1.0329,-1.0197,-0.9695,-0.974,-0.9728,-0.9482,-1.0363,-1.0742,-1.0272,-1.014,-0.9999,-0.9711,-0.9382,-0.9492,-1.0082,-1.025,-1.0662,-1.1263,-1.1607,-1.1922,-1.2212,-1.2416,-1.2498,-1.1425,-1.0157,-0.8938,-0.9026,-0.925,-0.9251,0.0,0.0,0.0,0.0,0.0,0.0,0.0,0.0,0.0,0.0,-0.732,-0.709,-0.6769,-0.6629,-0.636,-0.5726,-0.5489,-0.5258,-0.5022,-0.4898,-0.4789,-0.4732,-0.4789,-0.4846,-0.4846,-0.5336,-0.5611,-0.5611,-0.6152,-0.6797,-0.7548,-0.8206,-0.8537,-0.8537,-0.8537,-0.859,-0.8643,-0.8643,-0.8801,-0.8959,-0.8959,-0.9061,-0.9162,-0.9162,-0.9162,-0.9162,-0.9162,-0.9162,-0.9169,-0.9162,-0.9395,-0.9712,-0.9971,-1.0265,-1.0405,-0.9989,-0.9761,-0.9558,-0.9186,-0.9208,-0.9413,-0.9514,-0.9562,-0.9562,-0.9566,-0.9562,-0.9562,-0.9562,-0.9562,-0.9562,-0.9562,-0.9832,-1.0087,-0.9932,-1.0169,-1.0317,-1.0164,-1.0087,-1.0055,-1.0055,-1.0055,-0.996,-0.9638,-0.9893,-0.9799,-0.9158,-0.957,-0.9774,-0.9456,-0.9561,-0.9499,-0.9199,-0.9001,-0.8835,-0.8589,-0.8398,-0.858,-0.9346,-0.9435,-1.0024,-1.1179,-1.1268,-1.1502,-1.2063,-1.1812,-1.1812,-1.1506,-1.1053,-1.0584,-1.0475,-1.0414,-1.0147,0.0,0.0,0.0,0.0,0.0,0.0,0.0,-0.7362,-0.7403,0.0,-0.709,-0.6939,-0.6698,-0.6283,-0.6005,-0.586,-0.5397,-0.4876,-0.4437,-0.4507,-0.4349,-0.3847,-0.4293,-0.457,-0.457,-0.4627,-0.4737,-0.4851,-0.5386,-0.5817,-0.6098,-0.6853,-0.7176,-0.7176,-0.7295,-0.7616,-0.8037,-0.8037,-0.8309,-0.8857,-0.8857,-0.8857,-0.8857,-0.8857,-0.8857,-0.8857,-0.8857,-0.8857,-0.8887,-0.9133,-0.9309,-0.946,-0.9674,-0.9893,-0.9884,-0.8941,-0.8948,-0.9169,-0.8699,-0.8844,-0.9208,-0.926,-0.9364,-0.9413,-0.9312,-0.926,-0.926,-0.926,-0.926,-0.926,-0.926,-0.9337,-0.9418,-0.9689,-0.9537,-0.9491,-0.9712,-0.953,-0.9355,-0.9355,-0.9355,-0.9337,-0.9288,-0.9323,-0.921,-0.8742,-0.8535,-0.835,-0.8205,-0.7535,-0.7549,-0.8455,-0.8895,-0.8771,-0.8117,-0.8319,-0.8513,-0.8673,-0.9104,-0.9432,-0.9647,-1.0072,-1.0251,-1.0398,-1.0426,-1.032,-1.1608,-1.1407,-1.1214,-1.1135,-1.0898,-1.0387,0.0,0.0,0.0,0.0,0.0,0.0,0.0,0.0,-0.7171,-0.695,-0.6862,-0.6579,-0.577,-0.549,-0.5103,-0.4492,-0.4151,-0.3808,-0.362,-0.3828,-0.3904,-0.3626,-0.4184,-0.4517,-0.4517,-0.4517,-0.4519,-0.4575,-0.4842,-0.5005,-0.5119,-0.55,-0.6098,-0.6907,-0.6966,-0.7182,-0.7453,-0.7768,-0.8037,-0.8312,-0.8643,-0.8808,-0.8808,-0.8808,-0.8808,-0.8808,-0.8808,-0.8808,-0.8844,-0.9077,-0.9342,-0.9589,-0.9649,-0.9629,-0.9448,-0.8957,-0.8874,-0.8959,-0.8695,-0.885,-0.9057,-0.9008,-0.9106,-0.926,-0.9211,-0.9211,-0.9211,-0.9211,-0.9211,-0.9211,-0.9211,-0.9234,-0.9291,-0.9328,-0.9234,-0.919,-0.9224,-0.9101,-0.8959,-0.8959,-0.8959,-0.8959,-0.8959,-0.8959,-0.8903,-0.8742,-0.8717,-0.8696,-0.8591,-0.8055,-0.7507,-0.7157,-0.7887,-0.7902,-0.7052,-0.7254,-0.7614,-0.8057,-0.8335,-0.8764,-0.9432,-0.965,-0.9757,-0.9757,-0.9696,-0.9508,-1.1969,-1.1722,-1.1545,-1.1171,0.0,-1.0263,-0.9283,0.0,0.0,0.0,0.0,0.0,0.0,-0.7001,-0.6825,-0.6725,-0.6448,-0.5923,-0.4961,-0.4551,-0.4075,-0.3324,-0.303,-0.2923,-0.2983,-0.3351,-0.3626,-0.3626,-0.4128,-0.4465,-0.4517,-0.4463,-0.4465,-0.4517,-0.4517,-0.4517,-0.4517,-0.4575,-0.5232,-0.6367,-0.6418,-0.6586,-0.6812,-0.723,-0.7495,-0.7711,-0.815,-0.8374,-0.8378,-0.8378,-0.848,-0.8586,-0.8431,-0.8564,-0.8815,-0.8977,-0.9354,-0.9773,-0.9709,-0.9489,-0.9186,-0.9069,-0.8818,-0.8586,-0.8586,-0.8583,-0.858,-0.8586,-0.8633,-0.8788,-0.9057,-0.911,-0.911,-0.911,-0.911,-0.911,-0.911,-0.9186,-0.9173,-0.9,-0.9035,-0.901,-0.8625,-0.8586,-0.8533,-0.8427,-0.8378,-0.8378,-0.8378,-0.8429,-0.8467,-0.8467,-0.8663,-0.8767,-0.8655,-0.8492,-0.7785,-0.6215,-0.7012,-0.715,-0.6273,-0.6345,-0.6747,-0.7362,-0.7414,-0.795,-0.8887,-0.8887,-0.8987,-0.9038,-0.8765,-0.8541,-1.2948,-1.2433,-1.1834,-1.0516,0.0,0.0,-0.9824,0.0,0.0,0.0,0.0,0.0,0.0,-0.6632,-0.6501,-0.6583,-0.5699,-0.4889,-0.4809,-0.3809,-0.3168,-0.322,-0.2934,-0.2767,-0.2885,-0.3307,-0.3626,-0.3626,-0.3967,-0.4302,-0.4517,-0.4301,-0.4301,-0.4517,-0.4517,-0.4517,-0.4517,-0.4519,-0.4631,-0.4853,-0.5009,-0.5336,-0.5882,-0.5934,-0.6312,-0.6961,-0.7015,-0.7128,-0.7244,-0.7244,-0.7506,-0.7928,-0.7402,-0.7847,-0.8783,-0.8691,-0.9229,-1.0047,-0.9776,-0.9489,-0.9124,-0.8611,-0.8254,-0.7981,-0.7981,-0.761,-0.7351,-0.7824,-0.761,-0.7512,-0.8537,-0.8808,-0.8808,-0.8808,-0.8808,-0.8808,-0.8808,-0.8821,-0.8831,-0.8808,-0.8821,-0.8665,-0.804,-0.7981,-0.7771,-0.7297,-0.7244,-0.7244,-0.7244,-0.732,-0.7394,-0.7394,-0.7612,-0.746,-0.6921,-0.7603,-0.7543,-0.6295,-0.6992,-0.7177,-0.64,-0.6412,-0.6424,-0.6502,-0.6675,-0.6925,-0.7183,-0.7183,-0.7275,-0.7362,-0.7012,-0.6842,-1.3183,-1.2611,-1.2132,-1.098,0.0,0.0,0.0,0.0,0.0,0.0,-0.7068,0.0,0.0,-0.6641,-0.6403,-0.573,-0.5073,-0.433,-0.3261,-0.2741,-0.2303,-0.1884,-0.1691,-0.1587,-0.1647,-0.2053,-0.2345,-0.2345,-0.2735,-0.3125,-0.363,-0.3684,-0.3907,-0.4301,-0.4408,-0.4517,-0.4517,-0.4517,-0.4519,-0.4575,-0.4684,-0.4958,-0.5226,-0.5609,-0.5937,-0.6258,-0.6586,-0.675,-0.6807,-0.6915,-0.7074,-0.7297,-0.7729,-0.8333,-0.9014,-0.9206,-0.9623,-1.0074,-0.9783,-0.9255,-0.8667,-0.8493,-0.7929,-0.7402,-0.7402,-0.7241,-0.7136,-0.7348,-0.7241,-0.7192,-0.7622,-0.7729,-0.7729,-0.7729,-0.7729,-0.7729,-0.7729,-0.7729,-0.7729,-0.7729,-0.7729,-0.7676,-0.7456,-0.7402,-0.7348,-0.7139,-0.7085,-0.7085,-0.7085,-0.7223,-0.7303,-0.7303,-0.765,-0.7693,-0.7208,-0.7482,-0.7274,-0.6379,-0.7091,-0.7197,-0.6418,-0.6418,-0.6469,-0.6576,-0.6761,-0.696,-0.7023,-0.7066,-0.7043,-0.6893,-0.6749,-0.6625,-1.3364,-1.27,-1.2297,0.0,0.0,0.0,0.0,0.0,0.0,0.0,-0.6834,0.0,-0.6585,0.0,-0.5786,-0.4953,-0.4281,-0.3386,-0.2265,-0.187,-0.159,-0.104,-0.0896,-0.0939,-0.1103,-0.1362,-0.1565,-0.1788,-0.2011,-0.2345,-0.2793,-0.307,-0.3405,-0.3858,-0.4189,-0.4353,-0.4353,-0.4353,-0.4353,-0.4353,-0.441,-0.4575,-0.4791,-0.5228,-0.5391,-0.5449,-0.583,-0.6046,-0.6098,-0.6204,-0.6296,-0.6433,-0.7612,-0.8195,-0.8418,-0.8858,-0.9149,-0.9278,-0.9094,-0.8556,-0.8003,-0.808,-0.7494,-0.6806,-0.6971,-0.6752,-0.6428,-0.6647,-0.6539,-0.6428,-0.6428,-0.6756,-0.7085,-0.7085,-0.7085,-0.7085,-0.7085,-0.7085,-0.7085,-0.7085,-0.7085,-0.7028,-0.6866,-0.681,-0.6756,-0.6544,-0.6487,-0.6485,-0.6485,-0.6673,-0.6837,-0.6973,-0.7313,-0.7428,-0.7188,-0.7132,-0.6937,-0.6418,-0.6874,-0.694,-0.6418,-0.6418,-0.6475,-0.6593,-0.6721,-0.6814,-0.6871,-0.6938,-0.6875,-0.6694,-0.6625,-0.6532,-1.3606,-1.2891,-1.2379,0.0,0.0,0.0,0.0,0.0,0.0,0.0,-0.6801,-0.6574,-0.6406,-0.5432,-0.4671,-0.4486,-0.3139,-0.2125,-0.207,-0.1483,-0.0947,-0.089,-0.0766,-0.093,-0.1515,-0.1397,-0.1564,-0.212,-0.2068,-0.2069,-0.2176,-0.2624,-0.2962,-0.3074,-0.3688,-0.3967,-0.3967,-0.3967,-0.3967,-0.4022,-0.4022,-0.4189,-0.4517,-0.4517,-0.4575,-0.4689,-0.4689,-0.4794,-0.4899,-0.4899,-0.4999,-0.5225,-0.6695,-0.7079,-0.6757,-0.7317,-0.7504,-0.7506,-0.7504,-0.7303,-0.7158,-0.7432,-0.6794,-0.6123,-0.6679,-0.5972,-0.5007,-0.5609,-0.5336,-0.4899,-0.4899,-0.5989,-0.7082,-0.7082,-0.7082,-0.7082,-0.7082,-0.7082,-0.7082,-0.7082,-0.7082,-0.6866,-0.6317,-0.6206,-0.5993,-0.5407,-0.5183,-0.5073,-0.5075,-0.5426,-0.5894,-0.6379,-0.6418,-0.6418,-0.6418,-0.6418,-0.6418,-0.6418,-0.6418,-0.6418,-0.6418,-0.6418,-0.6418,-0.6418,-0.642,-0.6509,-0.6694,-0.6509,-0.6513,-0.669,-0.6503,-0.6418,-1.4469,-1.3287,0.0,0.0,0.0,0.0,0.0,0.0,0.0,0.0,-0.6627,-0.655,-0.6095,-0.5289,-0.4545,-0.3817,-0.2788,-0.1924,-0.1342,-0.1091,-0.0895,-0.0801,-0.074,-0.0737,-0.0729,-0.0616,-0.0616,-0.0783,-0.0672,-0.0784,-0.1288,-0.151,-0.1844,-0.2293,-0.2569,-0.2957,-0.3354,-0.3354,-0.3577,-0.4022,-0.4022,-0.4078,-0.4132,-0.4132,-0.4245,-0.4359,-0.4359,-0.4467,-0.4627,-0.4739,-0.496,-0.5393,-0.6331,-0.6736,-0.6883,-0.731,-0.7664,-0.7838,-0.7558,-0.7214,-0.678,-0.6761,-0.609,-0.5356,-0.5452,-0.5211,-0.4954,-0.5117,-0.5064,-0.4899,-0.4899,-0.5226,-0.5553,-0.5553,-0.5553,-0.5553,-0.5553,-0.5553,-0.5553,-0.5553,-0.5553,-0.5498,-0.5334,-0.5281,-0.5226,-0.5067,-0.5011,-0.5042,-0.5284,-0.5518,-0.5831,-0.6242,-0.635,-0.635,-0.628,-0.628,-0.6216,-0.6088,-0.6022,-0.6154,-0.6418,-0.6418,-0.6418,-0.6418,-0.6538,-0.6566,-0.6501,-0.6576,-0.6574,-0.6499,-0.6444,-0.6418,-1.4944,0.0,0.0,0.0,0.0,0.0,-0.8288,0.0,0.0,0.0,-0.6306,-0.6233,-0.5791,-0.4937,-0.4013,-0.3441,-0.2386,-0.1496,-0.089,-0.0825,-0.0757,-0.0619,-0.0561,-0.0449,-0.0336,-0.0224,-0.0112,-0.0112,-0.0056,-0.0168,-0.0505,-0.084,-0.1175,-0.1568,-0.19,-0.2346,-0.2961,-0.2962,-0.3241,-0.3859,-0.3859,-0.3859,-0.3859,-0.3967,-0.4024,-0.4136,-0.4136,-0.4247,-0.441,-0.4468,-0.4725,-0.5191,-0.5965,-0.623,-0.6226,-0.6823,-0.7012,-0.6907,-0.6726,-0.6431,-0.6149,-0.5972,-0.55,-0.4985,-0.4881,-0.4786,-0.4736,-0.4736,-0.4736,-0.4736,-0.4736,-0.4736,-0.4789,-0.4899,-0.4899,-0.4899,-0.4899,-0.4899,-0.4899,-0.4899,-0.4899,-0.4899,-0.4899,-0.4899,-0.4899,-0.4899,-0.4903,-0.4984,-0.5306,-0.5456,-0.5721,-0.6056,-0.6152,-0.6152,-0.6084,-0.6084,-0.602,-0.589,-0.589,-0.6022,-0.622,-0.622,-0.622,-0.622,-0.6321,-0.6321,-0.622,-0.633,-0.6327,-0.622,-0.622,-0.622,0.0,0.0,0.0,0.0,0.0,0.0,-0.757,-0.665,-0.6129,-0.6143,-0.5935,-0.5716,-0.5557,-0.4334,-0.3304,-0.3201,-0.1935,-0.0913,-0.0707,-0.0704,-0.058,-0.0394,-0.028,-0.0168,-0.0168,-0.0056,0.0,0.0,0.0,0.0,0.0,-0.0505,-0.0841,-0.0841,-0.1344,-0.1901,-0.2514,-0.2514,-0.2851,-0.3416,-0.3471,-0.3527,-0.3527,-0.3802,-0.3968,-0.3967,-0.401,-0.4061,-0.4174,-0.416,-0.435,-0.4721,-0.552,-0.5508,-0.5108,-0.5898,-0.5836,-0.5321,-0.5335,-0.5332,-0.5296,-0.5091,-0.4952,-0.481,-0.4718,-0.4574,-0.4463,-0.4517,-0.4517,-0.4517,-0.4517,-0.4517,-0.457,-0.4789,-0.4844,-0.4844,-0.4844,-0.4844,-0.4844,-0.4844,-0.4844,-0.4844,-0.4844,-0.4844,-0.4849,-0.4864,-0.4887,-0.493,-0.5152,-0.5303,-0.5517,-0.5871,-0.589,-0.589,-0.5888,-0.5888,-0.5888,-0.5824,-0.5824,-0.5824,-0.5824,-0.589,-0.589,-0.589,-0.589,-0.589,-0.589,-0.589,-0.589,-0.589,-0.589,-0.589,0.0,-1.4186,0.0,0.0,0.0,-0.8221,-0.7894,-0.6681,-0.5605,-0.5723,-0.571,-0.5552,-0.5269,-0.4143,-0.3186,-0.302,-0.1729,-0.0765,-0.0684,-0.0567,-0.0396,-0.0281,-0.0224,-0.0168,-0.0056,0.0,0.0,0.0,0.0,0.0,0.0,-0.0112,-0.0168,-0.0168,-0.0336,-0.0672,-0.1289,-0.1289,-0.1568,-0.2182,-0.2683,-0.2905,-0.2905,-0.3469,-0.3747,-0.3847,-0.3854,-0.3862,-0.3907,-0.3807,-0.3895,-0.4082,-0.4391,-0.448,-0.4508,-0.4826,-0.4817,-0.4712,-0.4758,-0.4725,-0.469,-0.4596,-0.4436,-0.4364,-0.4337,-0.4273,-0.4302,-0.4463,-0.4517,-0.4517,-0.4517,-0.4517,-0.4519,-0.4572,-0.4572,-0.4572,-0.4572,-0.4572,-0.4572,-0.4572,-0.4572,-0.4572,-0.4572,-0.4572,-0.4614,-0.4737,-0.4728,-0.4846,-0.5113,-0.5304,-0.5451,-0.5666,-0.582,-0.5822,-0.5684,-0.5683,-0.562,-0.5495,-0.5495,-0.5495,-0.5495,-0.5758,-0.589,-0.589,-0.589,-0.589,-0.589,-0.589,-0.589,-0.589,-0.589,-0.589,0.0,0.0,0.0,0.0,0.0,-0.8125,-0.7802,-0.6634,-0.5545,-0.5317,-0.5271,-0.5183,-0.5043,-0.3914,-0.2985,-0.2832,-0.1625,-0.0629,-0.0506,-0.0393,-0.028,-0.0112,-0.0056,0.0,0.0112,0.0168,0.0168,0.0168,0.0168,0.0168,0.0112,0.0112,0.0056,0.0,0.0056,-0.0168,-0.0785,-0.0729,-0.1065,-0.1903,-0.2402,-0.2793,-0.3131,-0.347,-0.3638,-0.3683,-0.3611,-0.3663,-0.3712,-0.3649,-0.3724,-0.3805,-0.4075,-0.4183,-0.4214,-0.4409,-0.4482,-0.4491,-0.4564,-0.4542,-0.4471,-0.4348,-0.4282,-0.4203,-0.4121,-0.4081,-0.4135,-0.4244,-0.4242,-0.4242,-0.4242,-0.4242,-0.4299,-0.4356,-0.4408,-0.4517,-0.4517,-0.4517,-0.4517,-0.4517,-0.4517,-0.4517,-0.4517,-0.4517,-0.457,-0.4668,-0.4753,-0.488,-0.5103,-0.5262,-0.5404,-0.5479,-0.5624,-0.5625,-0.5489,-0.5489,-0.5489,-0.5428,-0.5428,-0.5428,-0.5428,-0.5561,-0.5692,-0.5692,-0.5692,-0.5692,-0.5692,-0.5692,-0.5692,-0.5692,-0.5692,-0.5692,0.0,0.0,0.0,0.0,0.0,0.0,-0.7804,-0.6664,-0.5652,-0.515,-0.4979,-0.4909,-0.4822,-0.3822,-0.2929,-0.2679,-0.1595,-0.0617,-0.028,-0.0168,-0.0112,0.0,0.0112,0.0224,0.0224,0.0336,0.0393,0.0393,0.0393,0.0336,0.0224,0.0224,0.0168,0.0056,0.0168,0.0,-0.0505,-0.0393,-0.0784,-0.1679,-0.2179,-0.2794,-0.3584,-0.3584,-0.3584,-0.3576,-0.3432,-0.3424,-0.3526,-0.3483,-0.3508,-0.3596,-0.392,-0.3997,-0.3986,-0.4255,-0.4354,-0.4357,-0.4378,-0.4371,-0.4339,-0.4196,-0.4096,-0.4057,-0.4,-0.3965,-0.3967,-0.3967,-0.4022,-0.4022,-0.4022,-0.4022,-0.4022,-0.4136,-0.4301,-0.4406,-0.4462,-0.4517,-0.4525,-0.4553,-0.458,-0.4541,-0.4541,-0.4541,-0.4592,-0.4743,-0.4875,-0.5008,-0.5152,-0.5281,-0.5428,-0.5428,-0.5428,-0.5428,-0.5428,-0.5428,-0.5428,-0.5428,-0.5428,-0.5428,-0.5428,-0.5428,-0.5362,-0.5226,-0.5362,-0.5428,-0.5428,-0.5428,-0.5428,-0.5428,-0.5428,-0.5428,0.0,0.0,0.0,0.0,0.0,-0.8739,0.0,0.0,-0.5629,-0.5594,-0.5213,-0.4817,-0.4622,-0.3995,-0.3254,-0.2376,-0.1574,-0.0841,-0.028,-0.0112,0.0,0.0168,0.0168,0.0224,0.0336,0.0393,0.0393,0.0393,0.0393,0.0393,0.0393,0.0393,0.0393,0.0336,0.0336,0.0336,0.028,-0.0056,-0.028,-0.0448,-0.1567,-0.2517,-0.3414,-0.3414,-0.3471,-0.3572,-0.3342,-0.3243,-0.3227,-0.3071,-0.3021,-0.3032,-0.3242,-0.3332,-0.3347,-0.3595,-0.3743,-0.3758,-0.3859,-0.3827,-0.3758,-0.3844,-0.3803,-0.3716,-0.3803,-0.3852,-0.3853,-0.3965,-0.4022,-0.4022,-0.4022,-0.4022,-0.4022,-0.4022,-0.4022,-0.4132,-0.4462,-0.4517,-0.4556,-0.4635,-0.4769,-0.4857,-0.4857,-0.4857,-0.4906,-0.505,-0.5089,-0.5157,-0.5311,-0.5415,-0.5428,-0.5428,-0.5428,-0.5428,-0.5428,-0.5428,-0.5428,-0.5428,-0.5428,-0.5428,-0.5428,-0.5428,-0.5092,-0.4488,-0.5092,-0.5428,-0.5428,-0.5428,-0.5428,-0.5428,-0.5428,-0.5428,-1.7821,0.0,0.0,0.0,-1.0384,-0.9383,-0.8575,-0.7211,-0.6066,-0.5783,-0.5077,-0.4451,-0.4249,-0.3425,-0.2673,-0.2188,-0.1233,-0.0449,-0.0056,0.0056,0.0168,0.028,0.0393,0.0505,0.0561,0.0617,0.0673,0.0673,0.0673,0.0673,0.0561,0.0561,0.0505,0.0393,0.0505,0.0449,0.0168,0.0056,-0.0336,-0.1119,-0.1959,-0.2687,-0.3244,-0.3244,-0.3357,-0.357,-0.322,-0.3117,-0.3205,-0.299,-0.2922,-0.2991,-0.3228,-0.332,-0.3342,-0.3519,-0.3584,-0.3591,-0.3641,-0.3626,-0.3592,-0.3642,-0.3625,-0.3638,-0.3691,-0.3691,-0.3691,-0.3748,-0.3749,-0.3749,-0.3749,-0.3854,-0.3905,-0.3964,-0.4078,-0.419,-0.4419,-0.4359,-0.4348,-0.4486,-0.4626,-0.4732,-0.4732,-0.4794,-0.4967,-0.5109,-0.5006,-0.5062,-0.5342,-0.5292,-0.5291,-0.536,-0.5292,-0.509,-0.4619,-0.4625,-0.4424,-0.4016,-0.4084,-0.4152,-0.4152,-0.4152,-0.4019,-0.3685,-0.4823,-0.5226,-0.4756,-0.4756,-0.4756,-0.4756,-0.4353,-0.442,0.0,0.0,0.0,0.0,-1.1269,-1.0151,0.0,-0.7743,-0.666,-0.6042,-0.5051,-0.4254,-0.398,-0.3093,-0.2294,-0.2014,-0.1064,-0.0224,0.0168,0.0224,0.028,0.0449,0.0617,0.0729,0.0729,0.0841,0.0897,0.0897,0.0897,0.0841,0.0729,0.0729,0.0673,0.0505,0.0673,0.0505,0.0056,-0.0112,-0.0784,-0.1958,-0.2409,-0.28,-0.3022,-0.3022,-0.319,-0.3457,-0.3117,-0.3018,-0.3058,-0.2871,-0.2831,-0.2925,-0.3174,-0.327,-0.3311,-0.3427,-0.347,-0.347,-0.347,-0.347,-0.347,-0.3527,-0.3527,-0.3527,-0.3527,-0.3584,-0.3584,-0.3584,-0.3584,-0.3591,-0.3619,-0.3747,-0.382,-0.3971,-0.4052,-0.4182,-0.4359,-0.4371,-0.4357,-0.4452,-0.4563,-0.4651,-0.4651,-0.4779,-0.4879,-0.4982,-0.4937,-0.4979,-0.5214,-0.4957,-0.4823,-0.4959,-0.4891,-0.4486,-0.3748,-0.3822,-0.3621,-0.2879,-0.3013,-0.3081,-0.3081,-0.3082,-0.3015,-0.2882,-0.4152,-0.4556,-0.4019,-0.4019,-0.4019,-0.4019,-0.3442,-0.3521,0.0,0.0,0.0,-1.3089,0.0,0.0,0.0,-0.8606,-0.7197,-0.6588,-0.5553,-0.4573,-0.392,-0.3309,-0.2627,-0.1902,-0.1176,-0.0449,0.0112,0.0336,0.0449,0.0673,0.0673,0.0729,0.0897,0.0897,0.0897,0.0897,0.0897,0.0897,0.0897,0.0897,0.0897,0.0897,0.0897,0.0673,0.0168,-0.0729,-0.1626,-0.2465,-0.2521,-0.2634,-0.2915,-0.2915,-0.2969,-0.3119,-0.2912,-0.2823,-0.2806,-0.2599,-0.2572,-0.2628,-0.2788,-0.2894,-0.3049,-0.3094,-0.3131,-0.3131,-0.3131,-0.3131,-0.3131,-0.3357,-0.3413,-0.3413,-0.3413,-0.3527,-0.3584,-0.347,-0.3527,-0.361,-0.3775,-0.3808,-0.3841,-0.3898,-0.3931,-0.3994,-0.4357,-0.4516,-0.4606,-0.4612,-0.4719,-0.4808,-0.4808,-0.4808,-0.4812,-0.4818,-0.482,-0.4823,-0.4829,-0.4293,-0.3891,-0.3892,-0.3891,-0.3553,-0.2811,-0.3419,-0.3487,-0.2744,-0.2744,-0.2744,-0.2744,-0.2879,-0.2613,-0.2011,-0.2882,-0.3283,-0.3282,-0.3282,-0.3282,-0.3284,-0.3305,-0.3345,0.0,0.0,0.0,-1.3839,-1.2633,-1.1493,-1.0202,-0.8935,-0.7805,-0.683,-0.5715,-0.4587,-0.3385,-0.2608,-0.2069,-0.1734,-0.0784,0.0056,0.0449,0.0561,0.0673,0.0785,0.0841,0.0841,0.0897,0.0897,0.0897,0.0897,0.0897,0.0897,0.0897,0.0897,0.0897,0.0897,0.0617,0.0056,-0.0729,-0.1513,-0.2073,-0.2521,-0.2578,-0.2691,-0.2748,-0.2748,-0.2802,-0.279,-0.2287,-0.2316,-0.2656,-0.2132,-0.219,-0.2622,-0.2759,-0.2928,-0.3082,-0.3117,-0.3074,-0.3074,-0.3074,-0.3074,-0.3131,-0.3187,-0.3188,-0.3188,-0.3188,-0.3244,-0.3245,-0.3244,-0.3244,-0.3309,-0.3347,-0.3464,-0.3618,-0.3928,-0.3972,-0.4036,-0.4298,-0.4398,-0.4431,-0.4431,-0.4532,-0.4694,-0.4694,-0.4762,-0.4831,-0.4831,-0.4694,-0.4694,-0.4762,-0.4493,-0.436,-0.4428,-0.436,-0.4022,-0.3283,-0.3486,-0.3286,-0.2547,-0.2615,-0.2482,-0.2014,-0.2014,-0.1747,-0.1009,-0.1278,-0.1813,-0.248,-0.248,-0.248,-0.2481,-0.2102,-0.2111,-1.937,0.0,0.0,0.0,-1.3598,-1.2338,-1.077,-0.9456,-0.8262,-0.7134,-0.5927,-0.4719,-0.3501,-0.2416,-0.1587,-0.1234,-0.0336,0.0449,0.0673,0.0729,0.0785,0.0897,0.0897,0.0897,0.0897,0.0897,0.0897,0.0897,0.0897,0.0897,0.0897,0.0897,0.0841,0.0673,0.0056,-0.0673,-0.1401,-0.2016,-0.2409,-0.2578,-0.2635,-0.2691,-0.2691,-0.2691,-0.2691,-0.2626,-0.179,-0.1782,-0.2252,-0.1575,-0.1645,-0.2268,-0.2368,-0.2632,-0.2909,-0.2965,-0.2965,-0.2965,-0.2965,-0.2965,-0.2965,-0.3021,-0.3022,-0.3022,-0.3022,-0.3077,-0.3074,-0.3022,-0.3077,-0.3091,-0.3162,-0.3394,-0.3588,-0.386,-0.396,-0.3961,-0.4096,-0.4232,-0.43,-0.43,-0.4431,-0.4495,-0.4495,-0.4563,-0.4631,-0.4631,-0.4563,-0.4563,-0.4631,-0.4359,-0.4155,-0.4223,-0.4155,-0.382,-0.3084,-0.3017,-0.275,-0.2014,-0.1881,-0.1546,-0.1077,-0.1144,-0.0942,-0.0472,-0.0472,-0.0875,-0.1545,-0.1545,-0.1612,-0.168,-0.1221,-0.1301,0.0,0.0,0.0,0.0,0.0,-1.3815,-1.1936,-1.0219,-0.8652,-0.7469,-0.6233,-0.5132,-0.4409,-0.275,-0.1278,-0.0507,0.0224,0.0729,0.0729,0.0841,0.0897,0.0897,0.0897,0.0897,0.0897,0.0897,0.0897,0.0897,0.0897,0.0897,0.0897,0.0897,0.0673,0.0168,-0.0785,-0.1402,-0.1622,-0.2183,-0.2578,-0.2691,-0.2691,-0.2691,-0.2691,-0.2691,-0.2691,-0.263,-0.146,-0.1199,-0.1652,-0.0973,-0.1035,-0.1514,-0.1661,-0.2052,-0.2517,-0.2633,-0.2691,-0.2691,-0.2691,-0.2691,-0.2747,-0.286,-0.2916,-0.2916,-0.2916,-0.2968,-0.3077,-0.2915,-0.297,-0.3128,-0.3339,-0.354,-0.3754,-0.3757,-0.3757,-0.3757,-0.3757,-0.4028,-0.4232,-0.4233,-0.4233,-0.4233,-0.4232,-0.4232,-0.4232,-0.4232,-0.4232,-0.4232,-0.4232,-0.3621,-0.3149,-0.3149,-0.3149,-0.2882,-0.2146,-0.208,-0.1812,-0.1142,-0.0471,-0.0067,0.0,-0.0202,-0.0337,-0.027,-0.0404,-0.0472,-0.0472,-0.0472,-0.0607,-0.081,-0.083,-0.0994,-2.0404,0.0,0.0,0.0,0.0,0.0,-1.2489,-1.1405,-1.0099,-0.7841,-0.6534,-0.5418,-0.3842,-0.2543,-0.1357,-0.0281,0.0336,0.0729,0.0841,0.0897,0.0897,0.0897,0.0897,0.0897,0.0897,0.101,0.101,0.0897,0.101,0.101,0.0897,0.0561,0.0112,-0.0449,-0.101,-0.1626,-0.224,-0.2409,-0.2578,-0.2691,-0.2691,-0.2691,-0.2691,-0.2691,-0.2691,-0.2629,-0.1781,-0.1479,-0.156,-0.087,-0.1013,-0.1716,-0.1964,-0.2227,-0.2437,-0.2611,-0.2691,-0.2691,-0.2691,-0.2691,-0.2691,-0.2747,-0.2748,-0.2748,-0.2748,-0.2802,-0.2801,-0.2747,-0.2795,-0.2946,-0.3132,-0.2833,-0.2621,-0.3209,-0.2683,-0.2144,-0.2684,-0.2548,-0.2481,-0.3021,-0.3291,-0.3224,-0.2683,-0.2616,-0.2684,-0.2684,-0.2684,-0.2684,-0.2684,-0.2548,-0.2414,-0.2414,-0.2414,-0.2347,-0.2147,-0.208,-0.2013,-0.1812,-0.1611,-0.1277,-0.0807,-0.0875,-0.0606,-0.0067,-0.0135,-0.0135,-0.0135,-0.0404,-0.0539,-0.0607,-0.0611,-0.0691,-2.0655,0.0,0.0,-1.8025,0.0,0.0,-1.3221,-1.2283,-1.1134,-0.8588,-0.7268,-0.6092,-0.4423,-0.3141,-0.197,-0.0802,-0.0057,0.0505,0.0841,0.0953,0.0954,0.0897,0.101,0.1066,0.101,0.1122,0.1178,0.1066,0.1122,0.1066,0.0841,0.0393,-0.0168,-0.0785,-0.1289,-0.1794,-0.2187,-0.241,-0.2521,-0.2465,-0.2409,-0.2464,-0.2465,-0.2353,-0.2353,-0.235,-0.1752,-0.1615,-0.1746,-0.1099,-0.1148,-0.1651,-0.1875,-0.2182,-0.2452,-0.2615,-0.2634,-0.2521,-0.2578,-0.2578,-0.2521,-0.2578,-0.2634,-0.2634,-0.2409,-0.2352,-0.2296,-0.2015,-0.2007,-0.2081,-0.2184,-0.1959,-0.1778,-0.2261,-0.1765,-0.1318,-0.1781,-0.1598,-0.1543,-0.2147,-0.2349,-0.2281,-0.1877,-0.181,-0.1878,-0.1878,-0.1878,-0.1878,-0.1878,-0.1945,-0.2012,-0.1878,-0.2012,-0.208,-0.2012,-0.1812,-0.1678,-0.1678,-0.1411,-0.1076,-0.0673,-0.0673,-0.0471,0.0,0.0,0.0,0.0,-0.0202,-0.0337,-0.0404,-0.0472,-0.0544,-2.0874,-2.079,0.0,-1.8412,-1.7756,0.0,-1.4126,-1.3058,-1.1965,-0.9591,-0.8207,-0.7007,-0.5598,-0.4145,-0.2839,-0.1761,-0.0801,0.0056,0.0729,0.101,0.1066,0.0953,0.1122,0.1235,0.1122,0.1235,0.1347,0.1291,0.1291,0.1122,0.0729,0.028,-0.028,-0.0897,-0.1624,-0.1906,-0.1796,-0.2242,-0.2352,-0.2128,-0.2015,-0.2015,-0.2128,-0.1903,-0.1846,-0.1958,-0.1505,-0.1586,-0.2015,-0.1535,-0.139,-0.1479,-0.1632,-0.1995,-0.2452,-0.2573,-0.2409,-0.2183,-0.2353,-0.2296,-0.2183,-0.2296,-0.2465,-0.2465,-0.1903,-0.179,-0.1735,-0.1236,-0.1091,-0.1183,-0.116,-0.117,-0.1231,-0.1293,-0.1132,-0.1026,-0.1094,-0.1051,-0.1138,-0.1408,-0.1475,-0.1408,-0.1341,-0.1341,-0.1341,-0.1341,-0.1341,-0.1341,-0.1341,-0.1543,-0.1543,-0.1408,-0.161,-0.1745,-0.1677,-0.1209,-0.0941,-0.0941,-0.0337,0.0067,0.0067,0.0067,0.0,0.0,0.0,0.0,0.0,0.0,-0.0067,-0.027,-0.0404,-0.0472,-2.1687,-2.0742,-2.0077,-1.9752,-1.8616,0.0,-1.549,-1.4291,-1.2827,-1.0317,-0.8974,-0.783,-0.6304,-0.4867,-0.3557,-0.2492,-0.1665,-0.0866,0.0169,0.0785,0.1066,0.1066,0.1179,0.1291,0.1291,0.1403,0.1459,0.1291,0.1291,0.1122,0.0729,0.028,-0.028,-0.0897,-0.1515,-0.185,-0.1792,-0.2015,-0.2015,-0.1902,-0.1846,-0.1846,-0.1902,-0.1846,-0.179,-0.1843,-0.1579,-0.1501,-0.1594,-0.1434,-0.1571,-0.1888,-0.1822,-0.1863,-0.1994,-0.1994,-0.1958,-0.1903,-0.1903,-0.1903,-0.1846,-0.151,-0.1622,-0.1903,-0.151,-0.1678,-0.197,-0.2082,-0.2107,-0.2133,-0.2201,-0.1786,-0.1478,-0.191,-0.1239,-0.0689,-0.1154,-0.0905,-0.0588,-0.0669,-0.0605,-0.0336,0.0202,0.0202,0.0067,0.0067,0.0067,0.0067,0.0067,0.0067,0.0067,0.0067,0.0,0.0,0.0,0.0135,0.0202,0.0202,0.0337,0.0404,0.0404,0.027,0.027,0.027,0.0067,0.0,0.0,0.0,0.0,-0.0067,-0.0067,-0.0067,-2.2279,-2.1409,-2.0748,-2.0125,-1.9405,0.0,0.0,-1.5513,-1.4447,-1.176,-1.0398,-0.9132,-0.7207,-0.5916,-0.4579,-0.2923,-0.2147,-0.1451,-0.0394,0.0393,0.0903,0.0918,0.1304,0.1526,0.1494,0.1644,0.1684,0.1572,0.1572,0.1235,0.0561,0.0336,-0.0168,-0.0954,-0.1347,-0.1514,-0.1457,-0.1681,-0.1737,-0.1569,-0.1457,-0.1513,-0.1569,-0.1401,-0.14,-0.1456,-0.1432,-0.1408,-0.1437,-0.1516,-0.1661,-0.1869,-0.1765,-0.1801,-0.1858,-0.1835,-0.1679,-0.1569,-0.1681,-0.1625,-0.1513,-0.14,-0.1567,-0.1734,-0.1232,-0.1064,-0.1015,-0.1166,-0.1629,-0.1969,-0.1375,-0.143,-0.153,-0.1295,-0.0536,0.0,-0.043,0.0,0.038,0.0257,0.0387,0.0456,0.0536,0.0673,0.0808,0.0808,0.0808,0.0808,0.0808,0.0741,0.0674,0.0808,0.0606,0.0539,0.0674,0.0539,0.0472,0.0472,0.0472,0.0472,0.0472,0.0404,0.0404,0.0404,0.0673,0.0807,0.0807,0.1142,0.0874,0.0,0.0404,0.0539,-2.2877,-2.2152,-2.1549,-2.0376,-2.0005,-1.9339,0.0,0.0,0.0,-1.329,-1.1939,-1.0575,-0.8435,-0.7195,-0.5796,-0.3764,-0.2912,-0.2201,-0.1125,-0.0225,0.0399,0.0757,0.1326,0.1668,0.1692,0.1769,0.1797,0.1797,0.1797,0.1403,0.0449,0.0393,-0.0056,-0.101,-0.1179,-0.1179,-0.1066,-0.1347,-0.1403,-0.1235,-0.1122,-0.1122,-0.1234,-0.1003,-0.0944,-0.1055,-0.1151,-0.1234,-0.1306,-0.1473,-0.153,-0.1531,-0.1595,-0.1632,-0.1679,-0.1623,-0.1457,-0.1235,-0.1403,-0.1347,-0.1235,-0.1291,-0.1401,-0.1456,-0.1065,-0.0617,-0.0226,-0.0232,-0.0916,-0.1355,-0.0406,-0.0801,-0.1235,-0.0393,0.0229,0.0526,0.0294,0.0601,0.0919,0.0801,0.0926,0.0942,0.0529,0.0801,0.1136,0.1075,0.1076,0.1076,0.1076,0.0943,0.0943,0.1076,0.0808,0.0674,0.0876,0.0741,0.0606,0.0606,0.0741,0.0808,0.0808,0.0875,0.0942,0.0942,0.1477,0.1809,0.1809,0.241,0.1944,0.0471,0.1076,0.1344,-2.367,-2.2349,-2.1335,-2.1437,-2.017,-1.873,-1.8254,0.0,-1.6045,-1.4357,0.0,-1.1777,-1.0324,0.0,0.0,-0.5948,-0.4847,-0.3641,-0.2249,-0.155,-0.0637,0.0735,0.1123,0.1434,0.1759,0.1801,0.1797,0.1797,0.1797,0.1403,0.0449,0.0393,0.0,-0.0897,-0.1066,-0.1066,-0.0897,-0.1066,-0.1066,-0.0953,-0.0953,-0.0953,-0.0952,-0.0924,-0.0911,-0.0907,-0.0853,-0.0875,-0.0874,-0.0902,-0.0914,-0.0916,-0.1158,-0.1306,-0.1346,-0.1066,-0.0953,-0.0953,-0.0954,-0.0954,-0.0897,-0.0505,-0.0448,-0.0617,-0.0954,-0.1122,-0.1179,-0.1128,-0.1013,-0.0786,-0.0676,-0.0394,-0.0168,-0.0056,0.0056,0.0057,-0.0058,0.0,0.0,-0.0061,0.0308,0.0747,0.0903,0.1104,0.1244,0.1139,0.1076,0.1076,0.1076,0.1076,0.1076,0.1076,0.1076,0.1009,0.1076,0.1076,0.1009,0.1009,0.1612,0.1946,0.1946,0.2347,0.2546,0.2478,0.2544,0.2544,0.2544,0.2677,0.2479,0.2148,0.2215,0.2147,-2.4022,-2.2805,-2.1781,-2.1978,-2.0831,-1.9552,-1.9282,-1.8501,-1.7458,-1.6083,0.0,0.0,0.0,0.0,0.0,0.0,-0.6303,-0.5184,-0.3656,-0.2649,-0.1429,0.0116,0.0827,0.1189,0.139,0.1386,0.1271,0.0981,0.1248,0.101,0.0112,0.0056,-0.0224,-0.0897,-0.0953,-0.0954,-0.0897,-0.0953,-0.0953,-0.0897,-0.0897,-0.0897,-0.0897,-0.0884,-0.0878,-0.0876,-0.0886,-0.0867,-0.0868,-0.088,-0.0781,-0.0679,-0.0866,-0.0997,-0.1066,-0.0841,-0.0785,-0.0785,-0.0673,-0.0673,-0.0785,-0.0617,-0.0617,-0.0729,-0.0897,-0.0841,-0.0673,-0.0673,-0.0393,-0.0056,-0.0056,0.0112,0.0224,0.0112,0.0393,0.0563,0.0399,0.0629,0.0861,0.0699,0.0934,0.1188,0.1249,0.134,0.1433,0.1406,0.1412,0.1412,0.1412,0.1412,0.1412,0.1412,0.1278,0.121,0.121,0.1143,0.1076,0.1076,0.1344,0.1545,0.1545,0.1745,0.1812,0.1745,0.2547,0.3013,0.3013,0.3882,0.4151,0.3951,0.342,0.3153,-2.4307,-2.3296,-2.2364,-2.2611,-2.163,-2.0541,-2.0374,-1.9693,-1.8816,-1.7757,-1.6247,0.0,0.0,0.0,-1.0439,-0.8772,0.0,-0.6686,-0.5016,-0.3947,-0.2636,-0.0649,0.0351,0.0992,0.1119,0.1002,0.0822,0.0582,0.0803,0.0566,-0.0168,-0.0224,-0.0393,-0.0897,-0.0897,-0.0897,-0.0897,-0.0897,-0.0897,-0.0897,-0.0897,-0.0897,-0.0897,-0.0889,-0.0885,-0.0883,-0.0845,-0.0937,-0.105,-0.0839,-0.0791,-0.0802,-0.0664,-0.0673,-0.0729,-0.0673,-0.0617,-0.0617,-0.0449,-0.0505,-0.0617,-0.0729,-0.0673,-0.0561,-0.0561,-0.0168,0.0224,0.0224,0.0504,0.084,0.084,0.0952,0.1009,0.0896,0.1233,0.1458,0.1289,0.157,0.1851,0.1682,0.1696,0.1796,0.1713,0.1633,0.1547,0.1605,0.1614,0.1614,0.1614,0.1614,0.1614,0.1614,0.148,0.1412,0.1412,0.1278,0.1277,0.1478,0.1411,0.1477,0.1679,0.188,0.1946,0.1946,0.3149,0.3818,0.3817,0.4891,0.5292,0.5156,0.449,0.4159,-2.4623,-2.3752,-2.2977,-2.3446,-2.2459,-2.1404,-2.159,-2.0727,-1.9677,-1.8994,-1.7571,-1.6138,-1.518,-1.3715,-1.2111,0.0,-0.9589,0.0,0.0,-0.5624,-0.4421,-0.1583,-0.0286,0.0626,0.1175,0.0707,0.0582,0.107,0.0694,0.0232,-0.0169,-0.0224,-0.0393,-0.0897,-0.0897,-0.0897,-0.0897,-0.0897,-0.0897,-0.0897,-0.0897,-0.0897,-0.0896,-0.0921,-0.0907,-0.0903,-0.0694,-0.093,-0.1415,-0.0707,-0.0774,-0.123,-0.0664,-0.0393,-0.0393,-0.0393,-0.0393,-0.0393,-0.0393,-0.0393,-0.0393,-0.0393,-0.0056,0.0336,0.0336,0.0784,0.123,0.123,0.1566,0.1958,0.1958,0.2296,0.2634,0.2634,0.2634,0.2634,0.2634,0.2634,0.2634,0.2465,0.2357,0.2256,0.2207,0.1911,0.1699,0.1601,0.1614,0.1614,0.1614,0.1614,0.1614,0.1614,0.1614,0.1614,0.1614,0.1614,0.1814,0.235,0.2147,0.2414,0.3083,0.3818,0.422,0.422,0.4957,0.536,0.536,0.536,0.5428,0.536,0.5156,0.4957,-2.2478,-2.1803,-2.1464,-2.2053,-2.164,-2.1327,-2.228,-2.1465,-2.0418,-2.0102,-1.8557,-1.7124,-1.6542,-1.5392,0.0,0.0,0.0,0.0,0.0,-0.6804,-0.4835,-0.2997,-0.166,-0.0761,-0.0302,-0.0119,-0.0119,-0.0308,-0.0118,-0.0172,-0.0637,-0.0681,-0.0729,-0.0897,-0.0897,-0.0897,-0.0897,-0.0897,-0.0897,-0.0897,-0.0897,-0.0897,-0.0897,-0.1328,-0.1431,-0.137,-0.1583,-0.1567,-0.1358,-0.1019,-0.0773,-0.0534,-0.0332,-0.0224,-0.0168,-0.0224,-0.028,-0.028,-0.028,-0.028,-0.028,-0.0393,-0.0056,0.0393,0.0393,0.1064,0.179,0.179,0.2127,0.2465,0.2465,0.2578,0.2691,0.2691,0.2691,0.2691,0.2691,0.2691,0.2707,0.2763,0.274,0.2747,0.2768,0.2727,0.2508,0.2074,0.2019,0.2019,0.2019,0.2019,0.2019,0.2019,0.1884,0.1816,0.1816,0.2151,0.2618,0.3213,0.3212,0.3214,0.3419,0.3619,0.3686,0.3551,0.4287,0.469,0.469,0.516,0.5428,0.5428,0.5359,0.5292,-2.1202,-2.0625,-2.0255,-2.0682,-2.0454,-2.0483,-2.19,-2.1257,-2.0331,-2.0226,-1.9247,-1.8035,-1.6862,-1.6271,-1.559,0.0,0.0,0.0,0.0,-0.8241,-0.6332,-0.5281,-0.3333,-0.1862,-0.1306,-0.1193,-0.1211,-0.1433,-0.1326,-0.1296,-0.1296,-0.127,-0.1248,-0.1233,-0.1233,-0.1233,-0.1233,-0.1233,-0.1121,-0.0897,-0.1121,-0.1233,-0.1233,-0.1792,-0.2014,-0.1953,-0.2054,-0.1887,-0.1514,-0.1148,-0.0788,-0.0435,-0.0222,-0.0056,0.0,-0.0112,-0.0112,-0.0112,-0.0112,-0.0112,-0.0168,-0.0224,0.028,0.0896,0.0896,0.1679,0.2574,0.2574,0.2799,0.3026,0.3026,0.3026,0.3026,0.3026,0.3026,0.3035,0.3069,0.3076,0.3106,0.3145,0.3192,0.3135,0.3198,0.3309,0.3221,0.2549,0.2421,0.2354,0.2289,0.2221,0.2221,0.2221,0.222,0.2285,0.2554,0.2953,0.335,0.3747,0.3745,0.368,0.355,0.3818,0.3885,0.3749,0.4485,0.4888,0.4888,0.5359,0.5559,0.5559,0.5758,0.5886]},{"header":{"parameterUnit":"m.s-1","parameterCategory":1,"la1":30.6,"la2":29.2853,"lo1":-89.7004,"lo2":-87.6739,"dy":0.0162,"dx":0.0183,"nx":112,"ny":82,"refTime":"2026-03-21T00:00:00:Z","depth":0,"parameterNumber":3,"parameterNumberName":"V-component_of_WINDS"},"data":[0.0,0.0,0.0,0.0,0.0,0.0,0.0,0.0,0.0,0.0,0.0,0.0,0.0,0.0,0.0,0.0,0.0,0.0,0.0,0.0,0.0,0.0,0.0,0.0,0.0,0.0,0.0,0.0,0.0,0.0,0.0,0.0,0.0,0.0,0.0,0.0,0.0,0.0,0.0,0.0,0.0,0.0,0.0,0.0,0.0,0.0,0.0,0.0,0.0,0.0,0.0,0.0,0.0,0.0,0.0,0.0,0.0,0.0,0.0,0.0,0.0,0.0,0.0,0.0,0.0,0.0,0.0,0.0,0.0,0.0,0.0,0.0,0.0,0.0,0.0,0.0,0.0,0.0,0.0,0.0,0.0,0.0,0.0,0.0,0.0,0.0,0.0,0.0,0.0,0.0,0.6071,0.4622,0.3421,0.2621,0.2356,0.2288,0.2057,0.1603,0.0,0.0,0.0,0.0,0.0,0.0,0.0,0.0,0.0,0.0,0.0,0.0,0.0,0.0,0.0,0.0,0.0,0.0,0.0,0.0,0.0,0.0,0.0,0.0,0.0,0.0,0.0,0.0,0.0,0.0,0.0,0.0,0.0,0.0,0.0,0.0,0.0,0.0,0.0,0.0,0.0,0.0,0.0,0.0,0.0,0.0,0.0,0.0,0.0,0.0,0.0,0.0,0.0,0.0,0.0,0.0,0.0,0.0,0.0,0.0,0.0,0.0,0.0,0.0,0.0,0.0,0.0,0.0,0.0,0.0,0.0,0.0,0.0,0.0,0.0,0.0,0.0,0.0,0.0,0.0,0.0,0.0,0.0,0.0,0.0,0.0,0.0,0.0,0.0,0.0,0.0,0.0,0.0,0.0,0.0,0.0,0.0,0.0,0.0,0.0,0.0,0.0,0.0,0.0,0.6529,0.4348,0.3285,0.2554,0.2288,0.2221,0.1974,0.1556,0.0,0.0,0.0,0.0,0.0,0.0,0.0,0.0,0.0,0.0,0.0,0.0,0.0,0.0,0.0,0.0,0.0,0.0,0.0,0.0,0.0,0.0,0.0,0.0,0.0,0.0,0.0,0.0,0.0,0.0,0.0,0.0,0.0,0.0,0.0,0.0,0.0,0.0,0.0,0.0,0.0,0.0,0.0,0.0,0.0,0.0,0.0,0.0,0.0,0.0,0.0,0.0,0.0,0.0,0.0,0.0,0.0,0.0,0.0,0.0,0.0,0.0,0.0,0.0,0.0,0.0,0.0,0.0,0.0,0.0,0.0,0.0,0.0,0.0,0.0,0.0,0.0,0.0,0.0,0.0,0.0,0.0,0.0,0.0,0.0,0.0,0.0,0.0,0.0,0.0,0.0,0.0,0.0,0.0,0.0,0.0,0.0,0.0,0.0,0.0,0.0,0.0,0.0,0.6924,0.5802,0.4547,0.3419,0.2553,0.2085,0.2154,0.1983,0.1455,0.1512,0.0,0.0,0.0,0.0,0.0,0.0,0.0,0.0,0.0,0.0,0.0,0.0,0.0,0.0,0.0,0.0,0.0,0.0,0.0,0.0,0.0,0.0,0.0,0.0,0.0,0.0,0.0,0.0,0.0,0.0,0.0,0.0,0.0,0.0,0.0,0.0,0.0,0.0,0.0,0.0,0.0,0.0,0.0,0.0,0.0,0.0,0.0,0.0,0.0,0.0,0.0,0.0,0.0,0.0,0.0,0.0,0.0,0.0,0.0,0.0,0.0,0.0,0.0,0.0,0.0,0.0,0.0,0.0,0.0,0.0,0.0,0.0,0.0,0.0,0.0,0.0,0.0,0.0,0.0,0.0,0.0,0.0,0.0,0.0,0.0,0.0,0.0,0.0,0.0,0.0,0.0,0.0,0.0,0.0,0.0,0.0,0.0,0.0,0.0,0.0,0.0,0.0,0.6463,0.5342,0.4749,0.3619,0.2619,0.2085,0.2153,0.1995,0.142,0.1523,0.0,0.0,0.0,0.0,0.0,0.0,0.0,0.0,0.0,0.0,0.0,0.0,0.0,0.0,0.0,0.0,0.0,0.0,0.0,0.0,0.0,0.0,0.0,0.0,0.0,0.0,0.0,0.0,0.0,0.0,0.0,0.0,0.0,0.0,0.0,0.0,0.0,0.0,0.0,0.0,0.0,0.0,0.0,0.0,0.0,0.0,0.0,0.0,0.0,0.0,0.0,0.0,0.0,0.0,0.0,0.0,0.0,0.0,0.0,0.0,0.0,0.0,0.0,0.0,0.0,0.0,0.0,0.0,0.0,0.0,0.0,0.0,0.0,0.0,0.0,0.0,0.0,0.0,0.0,0.0,0.0,0.0,0.0,0.0,0.0,0.0,0.0,0.0,0.0,0.0,0.0,0.0,0.0,0.0,0.0,0.0,0.0,0.0,0.0,0.0,0.0,0.0,0.6595,0.5804,0.4486,0.3819,0.3155,0.2423,0.2288,0.1995,0.1614,0.1589,0.0,0.0,0.0,0.0,0.0,0.0,0.0,0.0,0.0,0.0,0.0,0.0,0.0,0.0,0.0,0.0,0.0,0.0,0.0,0.0,0.0,0.0,0.0,0.0,0.0,0.0,0.0,0.0,0.0,0.0,0.0,0.0,0.0,0.0,0.0,0.0,0.0,0.0,0.0,0.0,0.0,0.0,0.0,0.0,0.0,0.0,0.0,0.0,0.0,0.0,0.0,0.0,0.0,0.0,0.0,0.0,0.0,0.0,0.0,0.0,0.0,0.0,0.0,0.0,0.0,0.0,0.0,0.0,0.0,0.0,0.0,0.0,0.0,0.0,0.0,0.0,0.0,0.0,0.0,0.0,0.0,0.0,0.0,0.0,0.0,0.0,0.0,0.0,0.0,0.0,0.0,0.0,0.0,0.0,0.0,0.0,0.0,0.0,0.0,0.0,0.0,0.0,0.7118,0.6398,0.5674,0.4814,0.4083,0.3616,0.3552,0.3139,0.2183,0.0,0.0,0.0,0.0,0.0,0.0,0.0,0.0,0.0,0.0,0.0,0.0,0.0,0.0,0.0,0.0,0.0,0.0,0.0,0.0,0.0,0.0,0.0,0.0,0.0,0.0,0.0,0.0,0.0,0.0,0.0,0.0,0.0,0.0,0.0,0.0,0.0,0.0,0.0,0.0,0.0,0.0,0.0,0.0,0.0,0.0,0.0,0.0,0.0,0.0,0.0,0.0,0.0,0.0,0.0,0.0,0.0,0.0,0.0,0.0,0.0,0.0,0.0,0.0,0.0,0.0,0.0,0.0,0.0,0.0,0.0,0.0,0.0,0.0,0.0,0.0,0.0,0.0,0.0,0.0,0.0,0.0,0.0,0.0,0.0,0.0,0.0,0.0,0.0,0.0,0.0,0.0,0.0,0.0,0.0,0.0,0.0,0.0,0.0,0.0,0.0,0.0,0.8174,0.7584,0.6994,0.6533,0.5674,0.5011,0.4606,0.4443,0.3977,0.3079,0.0,0.0,0.0,0.0,0.0,0.0,0.0,0.0,0.0,0.0,0.0,0.0,0.0,0.0,0.0,0.0,0.0,0.0,0.0,0.0,0.0,0.0,0.0,0.0,0.0,0.0,0.0,0.0,0.0,0.0,0.0,0.0,0.0,0.0,0.0,0.0,0.0,0.0,0.0,0.0,0.0,0.0,0.0,0.0,0.0,0.0,0.0,0.0,0.0,0.0,0.0,0.0,0.0,0.0,0.0,0.0,0.0,0.0,0.0,0.0,0.0,0.0,0.0,0.0,0.0,0.0,0.0,0.0,0.0,0.0,0.0,0.0,0.0,0.0,0.0,0.0,0.0,0.0,0.0,0.0,0.0,0.0,0.0,0.0,0.0,0.0,0.0,0.0,0.0,0.0,0.0,0.0,0.0,0.0,0.0,0.0,0.0,0.0,0.0,0.0,0.0,0.0,0.8047,0.7852,0.7458,0.6798,0.6201,0.5666,0.5132,0.4745,0.4467,0.0,0.0,0.0,0.0,0.0,0.0,0.0,0.0,0.0,0.0,0.0,0.0,0.0,0.0,0.0,0.0,0.0,0.0,0.0,0.0,0.0,0.0,0.0,0.0,0.0,0.0,0.0,0.0,0.0,0.0,0.0,0.0,0.0,0.0,0.0,0.0,0.0,0.0,0.0,0.0,0.0,0.0,0.0,0.0,0.0,0.0,0.0,0.0,0.0,0.0,0.0,0.0,0.0,0.0,0.0,0.0,0.0,0.0,0.0,0.0,0.0,0.0,0.0,0.0,0.0,0.0,0.0,0.0,0.0,0.0,0.0,0.0,0.0,0.0,0.0,0.0,0.0,0.0,0.0,0.0,0.0,0.0,0.0,0.0,0.0,0.0,0.0,0.0,0.0,0.0,0.0,0.0,0.0,0.0,0.0,0.0,0.0,0.0,0.0,0.0,0.0,0.0,0.0,0.849,0.8051,0.7578,0.7144,0.6712,0.6339,0.615,0.592,0.5478,0.4712,0.0,0.0,0.0,0.0,0.0,0.0,0.0,0.0,0.0,0.0,0.0,0.0,0.0,0.0,0.0,0.0,0.0,0.0,0.0,0.0,0.0,0.0,0.0,0.0,0.0,0.0,0.0,0.0,0.0,0.0,0.0,0.0,0.0,0.0,0.0,0.0,0.0,0.0,0.0,0.0,0.0,0.0,0.0,0.0,0.0,0.0,0.0,0.0,0.0,0.0,0.0,0.0,0.0,0.0,0.0,0.0,0.0,0.0,0.0,0.0,0.0,0.0,0.0,0.0,0.0,0.0,0.0,0.0,0.0,0.0,0.0,0.0,0.0,0.0,0.0,0.0,0.0,0.0,0.0,0.0,0.0,0.0,0.0,0.0,0.0,0.0,0.0,0.0,0.0,0.0,0.0,0.0,0.0,0.0,0.0,0.0,0.0,0.0,0.0,0.0,0.0,0.0,0.8543,0.8306,0.7911,0.7436,0.7024,0.6784,0.6667,0.6474,0.6158,0.5562,0.0,0.0,0.0,0.0,0.0,0.0,0.0,0.0,0.0,0.0,0.0,0.0,0.0,0.0,0.0,0.0,0.0,0.0,0.0,0.0,0.0,0.0,0.0,0.0,0.0,0.0,0.0,0.0,0.0,0.0,0.0,0.0,0.0,0.0,0.0,0.0,0.0,0.0,0.0,0.0,0.0,0.0,0.0,0.0,0.0,0.0,0.0,0.0,0.0,0.0,0.0,0.0,0.0,0.0,0.0,0.0,0.0,0.0,0.0,0.0,0.0,0.0,0.0,0.0,0.0,0.0,0.0,0.0,0.0,0.0,0.0,0.0,0.0,0.0,0.0,0.0,0.0,0.0,0.0,0.0,0.0,0.0,0.0,0.0,0.0,0.0,0.0,0.0,0.0,0.0,0.0,0.0,0.0,0.0,0.0,0.0,0.0,0.0,0.0,0.0,0.0,0.0,0.8387,0.8457,0.8364,0.7616,0.7321,0.7087,0.6911,0.6728,0.6637,0.6707,0.0,0.0,0.0,0.0,0.0,0.0,0.0,0.0,0.0,0.0,0.0,0.0,0.0,0.0,0.0,0.0,0.0,0.0,0.0,0.0,0.0,0.0,0.0,0.0,0.0,0.0,0.0,0.0,0.0,0.0,0.0,0.0,0.0,0.0,0.0,0.0,0.0,0.0,0.0,0.0,0.0,0.0,0.0,0.0,0.0,0.0,0.0,0.0,0.0,0.0,0.0,0.0,0.0,0.0,0.0,0.0,0.0,0.0,0.0,0.0,1.3861,1.2956,0.0,0.0,0.0,0.0,0.0,0.0,0.0,0.0,0.0,0.0,0.0,0.0,0.0,0.0,0.0,0.0,0.0,0.0,0.0,0.0,0.0,0.0,0.0,0.0,0.0,0.0,0.0,0.0,0.0,0.0,0.0,0.0,0.0,0.0,0.0,0.0,0.0,0.0,0.0,0.0,0.9025,0.8863,0.853,0.7882,0.7669,0.756,0.7507,0.7457,0.7552,0.7758,0.744,0.0,0.0,0.0,0.0,0.0,0.0,0.0,0.0,0.0,0.0,0.0,0.0,0.0,0.0,0.0,0.0,0.0,0.0,0.0,0.0,0.0,0.0,0.0,0.0,0.0,0.0,0.0,0.0,0.0,0.0,0.0,0.0,0.0,0.0,0.0,0.0,0.0,0.0,0.0,0.0,0.0,0.0,0.0,0.0,0.0,0.0,0.0,0.0,0.0,0.0,0.0,0.0,0.0,0.0,0.0,0.0,0.0,0.0,0.0,1.4856,1.4474,0.0,0.0,0.0,0.0,0.0,0.0,0.0,0.0,0.0,0.0,0.0,0.0,0.0,0.0,0.0,0.0,0.0,0.0,0.0,0.0,0.0,0.0,0.0,0.0,0.0,0.0,0.0,0.0,0.0,0.0,0.0,0.0,0.0,0.0,0.0,0.0,0.0,0.0,0.0,0.0,0.9452,0.9272,0.8981,0.8402,0.82,0.8093,0.7975,0.7975,0.8025,0.8178,0.8019,0.0,0.0,0.0,0.0,0.0,0.0,0.0,0.0,0.0,0.0,0.0,0.0,0.0,0.0,0.0,0.0,0.0,0.0,0.0,0.0,0.0,0.0,0.0,0.0,0.0,0.0,0.0,0.0,0.0,0.0,0.0,0.0,0.0,0.0,0.0,0.0,0.0,0.0,0.0,0.0,0.0,0.0,0.0,0.0,0.0,0.0,0.0,0.0,0.0,0.0,0.0,0.0,0.0,1.6023,1.6151,1.5492,1.579,1.6112,1.6598,1.6225,1.6429,1.684,1.5605,0.0,0.0,0.0,0.0,0.0,0.0,0.0,0.0,0.0,0.0,0.0,0.0,0.0,0.0,0.0,0.0,0.0,0.0,0.0,0.0,0.0,0.0,1.6271,1.5393,1.5305,1.533,1.4821,0.0,0.0,0.0,0.0,0.0,0.0,0.0,0.0,0.0,0.0,0.0,0.9962,0.9925,0.9662,0.9138,0.8984,0.882,0.8593,0.8593,0.8593,0.8702,0.8597,0.8544,0.0,0.0,0.0,0.0,0.0,0.0,0.0,0.0,0.0,0.0,0.0,0.0,0.0,0.0,0.0,0.0,0.0,0.0,0.0,0.0,0.0,0.0,0.0,0.0,0.0,0.0,0.0,0.0,0.0,0.0,0.0,0.0,1.5436,1.5134,0.0,0.0,0.0,0.0,0.0,0.0,0.0,0.0,0.0,0.0,0.0,0.0,0.0,1.5397,1.5519,1.668,1.6936,1.6332,1.7582,1.8015,1.7756,1.7814,1.8101,1.8558,1.8679,0.0,1.6743,1.6072,0.0,0.0,0.0,0.0,0.0,0.0,0.0,0.0,0.0,0.0,0.0,0.0,0.0,0.0,0.0,0.0,0.0,0.0,0.0,0.0,0.0,0.0,1.7205,1.7096,1.6416,1.5802,1.5598,1.4628,1.4071,1.4754,1.3881,1.3086,0.0,0.0,0.0,0.0,0.0,0.0,1.0901,1.0973,1.085,1.0265,1.006,0.9909,0.9803,0.9651,0.9766,1.0198,0.9817,0.9551,0.9451,0.9399,0.0,0.0,0.0,0.0,0.0,0.0,0.0,0.0,0.0,0.0,0.0,0.0,0.0,0.0,0.0,0.0,0.0,0.0,0.0,0.0,0.0,0.0,0.0,0.0,0.0,0.0,0.0,0.0,0.0,1.6351,1.6219,1.6319,1.6112,1.5649,0.0,0.0,0.0,0.0,0.0,0.0,0.0,0.0,0.0,1.589,1.6133,1.6512,1.6951,1.8033,1.8283,1.7772,1.8628,1.8899,1.8747,1.8747,1.8989,1.9365,1.9426,1.926,1.8747,1.746,1.6966,1.6804,0.0,0.0,0.0,0.0,1.5858,1.5975,1.6906,1.706,1.6918,1.7252,0.0,0.0,0.0,0.0,0.0,0.0,0.0,1.7667,1.7843,1.774,1.7585,1.7441,1.6812,1.6203,1.5816,1.5343,1.5053,1.5265,1.4459,1.3742,1.3622,1.3016,0.0,0.0,0.0,1.1541,1.1485,1.1348,1.1217,1.0947,1.0846,1.0795,1.0749,1.0698,1.0753,1.0922,1.0757,1.06,1.0549,1.0277,1.006,0.0,0.0,0.0,0.0,0.0,0.0,0.0,0.0,0.0,0.0,0.0,0.0,0.0,0.0,0.0,0.0,0.0,0.0,0.0,0.0,0.0,0.0,0.0,0.0,0.0,0.0,0.0,0.0,1.7301,1.74,1.7507,1.7449,1.6981,0.0,0.0,0.0,0.0,0.0,0.0,1.6107,1.6107,1.6451,1.7164,1.7562,1.8008,1.8591,1.9426,1.9603,1.9111,1.9608,1.9788,1.9682,1.9682,1.9863,2.0093,2.0093,2.0294,2.0459,1.8922,1.819,1.784,1.6622,1.605,1.6037,1.6373,1.6661,1.7007,1.788,1.8089,1.8003,1.8135,1.8176,1.7993,1.7068,0.0,0.0,0.0,0.0,1.788,1.8116,1.7921,1.7648,1.7459,1.7009,1.6434,1.5906,1.5861,1.5893,1.572,1.5072,1.444,1.4201,1.3641,0.0,1.2522,1.2146,1.1846,1.1795,1.1646,1.1434,1.1293,1.1366,1.1377,1.1372,1.1322,1.1322,1.1322,1.1322,1.1322,1.1322,1.1044,1.083,1.0779,0.0,0.0,0.0,0.0,0.0,0.0,0.0,0.0,0.0,0.0,0.0,0.0,0.0,0.0,0.0,0.0,0.0,0.0,0.0,0.0,0.0,0.0,0.0,0.0,0.0,0.0,0.0,0.0,0.0,1.842,1.9062,0.0,0.0,0.0,0.0,1.7764,1.8521,1.9143,1.9245,1.9245,1.9579,2.0167,2.0213,2.023,2.0285,2.0842,2.0854,2.0331,2.0865,2.1112,2.1083,2.1083,2.1089,2.1147,2.1147,2.1164,2.1106,2.005,1.9465,1.929,1.8885,1.8328,1.7843,1.8278,1.8446,1.8554,1.8827,1.8604,1.8274,1.8772,1.8934,1.8928,1.8851,1.8845,0.0,0.0,1.8881,1.8934,1.8934,1.8178,1.7399,1.7418,1.7009,1.6434,1.5906,1.6032,1.6327,1.6504,1.5919,1.5611,1.6053,0.0,1.4749,1.3872,1.3585,1.3045,1.1879,1.1905,1.1885,1.1363,1.1505,1.1628,1.1523,1.1372,1.1322,1.1322,1.1322,1.1322,1.1322,1.1519,1.1519,1.1272,1.2238,0.0,0.0,0.0,0.0,0.0,0.0,0.0,0.0,0.0,0.0,0.0,0.0,0.0,0.0,0.0,0.0,0.0,0.0,0.0,0.0,0.0,0.0,0.0,0.0,0.0,0.0,0.0,0.0,1.9057,1.9305,0.0,1.8037,1.8343,1.8561,1.8526,1.8822,1.9182,1.9625,1.9643,1.9717,1.9955,2.0266,2.0421,2.0421,2.0957,2.1129,2.0945,2.1135,2.1285,2.1531,2.1531,2.1663,2.1868,2.1868,2.1868,2.1839,2.1465,2.0597,1.9515,1.908,1.8686,1.8392,1.856,1.8721,1.8887,1.8987,1.9018,1.9195,1.9844,1.956,1.9138,2.0035,1.9693,1.9144,1.9851,1.9708,1.9408,1.95,1.8509,1.7575,1.7618,1.6989,1.6294,1.6105,1.6164,1.6284,1.6335,1.5899,1.5494,1.5406,1.5194,1.4746,1.4052,1.3579,1.3191,1.2741,1.2746,1.273,1.2528,1.2904,1.316,1.3107,1.3064,1.3059,1.3059,1.3059,1.3173,1.3496,1.33,1.342,1.4013,1.4058,1.3781,0.0,0.0,0.0,0.0,0.0,0.0,0.0,0.0,0.0,0.0,0.0,0.0,0.0,0.0,0.0,0.0,0.0,0.0,0.0,0.0,0.0,0.0,0.0,0.0,0.0,1.983,2.0183,1.9625,1.9742,1.9521,1.8594,1.8949,1.9266,1.9429,1.9819,2.0164,2.0503,2.0521,2.0521,2.0521,2.0842,2.1006,2.1006,2.1368,2.1549,2.1549,2.1549,2.1669,2.1851,2.2031,2.2229,2.242,2.2408,2.2443,2.2484,2.2293,2.1489,2.0282,1.9704,1.9227,1.8928,1.8928,1.9186,1.9546,1.9637,1.985,2.0156,2.0603,2.0243,1.9855,2.0726,2.0378,1.9813,2.0542,2.026,1.9762,1.985,1.8852,1.7809,1.7756,1.7059,1.6355,1.6237,1.62,1.62,1.62,1.5915,1.5556,1.5324,1.5226,1.5057,1.4711,1.4136,1.3676,1.3331,1.3414,1.3348,1.3024,1.36,1.4019,1.4019,1.392,1.3894,1.3978,1.3926,1.4073,1.4457,1.4083,1.419,1.4947,1.4805,1.4687,1.4546,0.0,0.0,0.0,0.0,0.0,0.0,0.0,0.0,0.0,0.0,0.0,0.0,0.0,0.0,0.0,0.0,0.0,0.0,0.0,0.0,0.0,0.0,0.0,2.0627,2.1322,2.1358,2.0001,2.0403,2.031,1.9024,2.0436,2.121,2.0734,2.1644,2.2235,2.2253,2.2253,2.2247,2.2247,2.2247,2.2247,2.2247,2.2247,2.2253,2.2253,2.2253,2.2247,2.2229,2.2708,2.2932,2.2882,2.2731,2.2819,2.3043,2.2441,2.2029,2.1706,2.0934,2.0232,1.9662,1.9662,2.0061,2.066,2.0944,2.1042,2.1042,2.1035,2.1035,2.1035,2.1035,2.1035,2.1035,2.1042,2.0546,2.0027,2.0027,1.9189,1.8209,1.7721,1.7204,1.6716,1.6324,1.6237,1.6244,1.6194,1.6088,1.5994,1.5994,1.5913,1.5825,1.5904,1.5337,0.0,1.363,1.3815,1.3675,1.276,1.352,1.4087,1.4087,1.3857,1.3814,1.4046,1.3792,1.3794,1.4062,1.3813,1.3746,1.3983,1.4548,1.5081,1.5596,0.0,0.0,0.0,0.0,0.0,0.0,0.0,0.0,0.0,0.0,0.0,0.0,0.0,0.0,0.0,0.0,0.0,0.0,0.0,0.0,0.0,2.2145,2.2305,2.212,2.1632,2.1246,2.1249,2.1081,2.0946,2.1062,2.1505,2.1867,2.2179,2.2457,2.2804,2.3207,2.3233,2.3399,2.3839,2.3898,2.3898,2.3898,2.3623,2.3511,2.3511,2.3511,2.3301,2.2847,2.3185,2.3128,2.2669,2.2616,2.2653,2.2742,2.2536,2.2234,2.1776,2.157,2.1134,2.0597,2.0597,2.0746,2.0944,2.1306,2.1458,2.1506,2.2023,2.1888,2.1691,2.2217,2.2023,2.1643,2.207,2.1331,2.0473,2.0566,1.9496,1.8398,1.8405,1.7964,1.7421,1.7025,1.6911,1.682,1.6479,1.6355,1.6262,1.6144,1.6106,1.6118,1.6118,1.5314,1.454,1.421,1.4234,1.4316,1.4332,1.5264,1.5876,1.5876,1.5804,1.5619,1.5312,1.5257,1.5389,1.587,1.5458,1.5412,1.5837,1.5771,1.5833,0.0,0.0,0.0,0.0,0.0,0.0,0.0,0.0,0.0,0.0,0.0,0.0,0.0,0.0,0.0,0.0,0.0,0.0,0.0,0.0,0.0,0.0,2.2958,2.3126,2.3263,2.2489,2.1894,2.1891,2.1397,2.1305,2.1854,2.209,2.2485,2.3149,2.3393,2.3674,2.3949,2.3962,2.413,2.4463,2.452,2.452,2.452,2.4297,2.4188,2.4188,2.3938,2.3598,2.3264,2.3357,2.3219,2.289,2.2805,2.2858,2.2941,2.2725,2.246,2.222,0.0,0.0,0.0,0.0,2.1677,2.1725,2.203,2.213,2.2231,2.2608,2.2516,2.2324,2.2752,2.2608,2.2267,2.2338,2.1602,2.0728,2.0533,1.9594,1.8692,1.8631,1.8362,1.7995,1.7557,1.7434,1.731,1.6899,1.6772,0.0,1.61,1.6133,1.62,1.62,1.5475,1.4836,1.4466,1.4676,1.4819,1.4735,1.57,1.6339,1.6254,1.6202,0.0,0.0,0.0,1.5817,1.6121,1.5939,0.0,0.0,0.0,0.0,0.0,1.6423,0.0,0.0,1.5724,1.5984,0.0,0.0,0.0,0.0,0.0,0.0,0.0,0.0,0.0,0.0,0.0,0.0,0.0,0.0,0.0,0.0,2.3781,2.3703,2.4168,2.3693,2.3075,2.2306,2.178,2.1722,2.2309,2.2766,2.3286,2.3925,2.4402,2.4641,2.4641,2.4641,0.0,0.0,0.0,2.4754,2.4754,2.4747,2.4664,2.459,2.4017,2.3647,2.3506,2.3421,2.331,2.3265,2.3112,2.3235,2.339,2.2844,2.2752,2.2848,2.2157,2.1857,2.18,2.2417,2.2608,2.2654,2.285,0.0,0.0,2.2895,2.2895,2.2895,2.2895,2.2844,2.2678,2.2156,2.1467,2.0778,2.024,1.9602,1.9019,1.8662,1.8584,1.8429,1.7995,1.782,1.7673,1.7345,1.717,1.6777,1.5972,1.603,1.6127,1.6065,1.5597,1.5061,1.4483,1.4946,1.5131,1.4575,1.549,0.0,1.5927,1.5771,1.5753,1.6025,1.573,1.5591,1.5591,1.5828,1.6089,1.6466,1.6711,1.6914,1.6999,1.7538,1.755,1.7125,1.6644,1.6681,0.0,0.0,0.0,0.0,0.0,0.0,0.0,0.0,0.0,0.0,0.0,0.0,0.0,0.0,0.0,2.5439,2.5207,2.4966,2.5044,2.4963,2.4516,2.3634,2.3454,2.3796,2.4919,2.5141,2.5277,2.5485,2.5584,2.5653,2.5653,2.5653,2.5872,2.6319,2.6379,2.6379,2.6379,2.6068,2.5706,2.524,2.5068,0.0,2.3526,2.3692,2.35,2.2966,2.2943,2.2992,2.3031,2.29,2.285,2.291,2.2737,2.2662,2.2654,2.2797,2.285,2.285,2.2895,2.2895,2.2895,2.2895,2.2895,2.2895,2.2895,2.254,0.0,2.2026,2.1162,2.0248,2.0132,1.9602,1.9064,1.8981,1.8981,1.886,1.8468,1.7922,1.7567,1.7659,1.6847,1.6266,1.6616,1.6181,1.5665,1.5226,1.4682,1.4262,1.4045,1.4515,1.494,1.5192,1.6156,1.68,1.6754,1.6748,1.6533,1.6181,1.6104,1.607,1.607,1.6114,1.6163,1.6272,1.64,1.67,1.7169,1.7385,1.7668,1.794,1.7728,1.7728,0.0,0.0,0.0,0.0,0.0,0.0,0.0,0.0,0.0,0.0,0.0,2.4043,2.5344,0.0,2.5901,2.6448,2.6183,2.584,2.574,2.5513,2.5165,2.4652,2.4615,2.4989,2.5906,2.6001,2.6163,2.6534,2.6493,2.6447,2.6447,2.6394,2.6507,2.6787,2.6787,2.6787,2.6787,2.6652,2.6215,2.5596,2.5293,2.4645,2.3702,2.3472,2.3238,2.2895,2.2895,2.2895,2.2895,2.2895,2.2895,2.2895,2.2895,2.2895,2.2895,2.2895,2.2895,2.2895,2.2895,2.2895,2.2895,2.2895,2.2895,2.283,2.2518,2.2251,2.1866,2.1227,2.0622,2.0087,1.9766,1.9476,1.9258,1.9258,1.9221,1.9139,1.8943,1.8571,1.8163,1.7737,1.7405,1.6968,1.6129,1.5923,1.5645,1.5091,1.4765,1.4478,1.4122,1.4589,1.5085,1.5614,1.6378,1.6752,1.6515,1.6264,1.6185,1.6338,1.6414,1.6466,1.6509,1.6558,1.6515,1.6318,1.6399,1.6703,1.7192,1.753,1.7945,1.8441,1.8708,1.8528,0.0,0.0,0.0,0.0,0.0,0.0,0.0,0.0,2.3228,2.4065,2.4728,2.5417,2.6331,2.6918,2.7311,2.7599,2.7248,2.69,2.6794,2.6281,2.5919,2.5893,2.5653,2.5692,2.6334,2.64,2.6614,2.7137,2.7093,2.7048,2.7048,2.6944,2.6833,2.6702,2.6695,2.6644,2.6513,2.6513,2.6178,2.5507,2.5019,2.4436,2.3781,2.3211,2.2978,2.2978,2.2978,2.2978,2.2978,2.2978,2.2978,2.2978,2.2978,2.2978,2.2978,2.294,2.2895,2.2895,2.294,2.294,2.294,2.2985,2.2898,2.2702,2.2193,2.1908,2.1493,2.0466,2.0104,1.9947,1.9441,1.9376,1.942,1.942,1.9376,1.9339,1.9339,1.9023,1.8614,1.801,1.7993,1.7565,1.5855,1.5868,1.5826,1.506,1.4944,1.4803,1.4361,1.4782,1.5267,1.5703,1.621,1.6392,1.6022,1.5601,1.5644,1.6327,1.6469,1.6566,1.6608,1.6849,1.6837,1.6486,1.6672,1.6992,1.7481,1.7955,1.8399,1.8893,1.9296,1.9096,2.2409,2.1455,2.1363,2.3457,2.3294,2.3087,0.0,0.0,2.4713,2.6287,2.6675,2.721,2.8713,2.8714,2.8729,2.9375,2.9117,2.8799,2.8799,2.831,2.7977,2.7985,2.6868,2.6356,2.7004,2.7071,2.71,2.7174,2.7181,2.7181,2.7181,2.7181,2.6865,2.6291,2.6276,2.5997,2.5375,2.5367,2.5022,2.4401,2.4334,2.3966,2.3378,2.3305,2.3282,2.3282,2.3282,2.3282,2.3282,2.3282,2.3282,2.3282,2.3282,2.3282,2.3231,2.2978,2.2895,2.294,2.3037,2.3082,2.3082,2.3238,2.2841,2.2355,2.2297,2.1473,2.0531,2.043,1.9928,1.9472,1.9398,1.9384,1.942,1.942,1.9384,1.9384,1.9384,1.8486,1.7993,1.8987,1.7844,1.6825,1.7173,1.68,1.5977,1.4614,1.4395,1.4368,1.4307,1.4782,1.5106,1.5166,1.5672,1.5972,1.5905,1.5875,1.5861,1.5965,1.5972,1.5999,1.5999,1.6597,1.6893,1.6854,1.737,1.7928,1.8537,1.864,1.8988,1.949,1.913,1.9155,2.3054,2.3506,2.4232,0.0,2.4518,2.5121,2.5469,2.5537,2.573,2.6381,2.6887,2.7519,2.8622,2.8967,2.9354,3.0084,2.9793,2.9491,2.9491,2.8711,2.8131,2.8131,2.7339,2.6932,2.7414,2.7423,2.7423,2.7423,2.7335,2.7343,2.7343,2.6871,2.6488,2.6223,2.5798,2.5475,2.5195,2.5195,2.4857,2.4187,2.4187,2.3894,2.3319,2.3319,2.3319,2.3319,2.3319,2.3319,2.3319,2.3319,2.3319,2.3319,2.3319,2.3319,2.3275,2.3187,2.3149,2.3149,2.3194,2.3201,2.3246,2.3275,2.284,2.2236,2.1882,2.1123,2.0305,1.9929,1.9671,1.9538,1.9538,1.9567,1.9581,1.9581,1.9523,1.9538,1.9538,1.9036,1.8661,1.8823,1.8492,1.8042,1.7571,1.7261,1.6877,1.625,1.5467,1.4935,1.4935,1.5107,1.5353,1.5684,1.5769,1.584,1.6052,1.5882,1.5882,1.6052,1.6796,1.6971,1.6345,1.7301,1.7563,1.6964,1.7601,1.8192,1.8768,1.8775,1.9028,1.9482,1.9713,1.994,2.3803,0.0,0.0,2.4597,2.5493,2.6529,2.6005,2.6075,2.6328,2.6509,2.6878,2.7414,2.8314,2.8857,2.9438,3.0177,2.9979,2.9833,3.0081,2.9041,2.8279,2.8279,2.7627,2.7273,2.7489,2.7376,2.7423,2.761,2.7317,2.7177,2.7177,2.6616,2.6145,2.5782,2.5269,2.4936,2.4744,2.4744,2.4486,2.4044,2.4044,2.3807,2.34,2.34,2.34,2.34,2.34,2.34,2.3385,2.3214,2.314,2.3125,2.2947,2.2985,2.314,2.314,2.3208,2.3319,2.3319,2.3245,2.3104,2.3097,2.2542,2.1787,2.1343,2.0729,2.0093,1.962,1.956,1.964,1.964,1.9661,1.9682,1.9682,1.9661,1.964,1.964,1.9419,1.9131,1.8878,1.9013,1.8917,1.7977,1.7822,1.7763,1.7578,1.6657,1.6014,1.5991,1.5952,1.6065,1.6502,1.6344,1.6278,1.6553,1.6351,1.6311,1.6546,1.7471,1.7673,1.6872,1.7919,1.8148,1.7416,1.8061,1.8584,1.8981,1.8981,1.9271,1.9723,2.0302,2.0742,0.0,0.0,2.4585,2.5805,2.6359,2.6652,2.6828,2.6504,2.6449,2.7303,2.713,2.7173,2.8368,2.8594,2.8883,2.9602,2.9711,2.9978,3.0763,2.9766,2.8951,2.8951,2.7919,2.719,2.7214,2.6865,2.6886,2.7572,2.6976,2.6617,2.6617,2.6602,2.6004,2.4686,2.4627,2.4298,2.3662,2.3662,2.3655,2.3632,2.3632,2.3617,2.3595,2.3595,2.3595,2.3595,2.3595,2.3595,2.3557,2.2951,2.2704,2.2637,2.2001,2.2143,2.2704,2.2704,2.2966,2.3319,2.3458,2.305,2.2564,2.2663,2.1822,2.0736,2.0714,2.0266,1.9712,1.9697,1.9682,1.969,1.969,1.9682,1.9682,1.9682,1.9682,1.969,1.969,1.9181,1.8919,1.954,1.9159,1.8725,1.868,1.8672,1.8422,1.7787,1.7587,1.75,1.7423,1.7431,1.7438,1.746,1.746,1.746,1.746,1.746,1.746,1.746,1.7504,1.7512,1.7456,1.8131,1.8477,1.8455,1.9053,1.9376,1.9376,1.9501,1.9886,2.0466,2.0609,2.1395,2.5094,0.0,2.6241,2.6677,2.7137,2.7485,2.7486,2.726,2.7118,2.7373,2.7149,2.7146,2.8038,2.8037,2.8273,2.9485,2.9686,2.9992,3.0803,3.0107,2.933,2.8879,2.8551,2.8013,2.7033,2.671,2.6704,2.6934,2.6495,2.6202,2.6202,2.5764,2.5312,2.474,2.4282,2.3936,2.3602,2.3602,2.3602,2.3602,2.3602,2.3602,2.3602,2.3602,2.3602,2.3602,2.3602,2.3363,2.3004,2.3206,2.3049,2.2694,2.2697,2.2959,2.3278,2.3099,2.3002,2.2912,2.2954,2.2812,2.2558,2.2166,2.1433,2.0715,2.0715,2.0236,1.9754,1.998,2.0015,2.0015,2.0015,2.0015,1.998,1.9754,1.9882,2.0015,2.0015,2.0047,2.0172,2.0405,2.0265,2.0002,1.9741,1.9549,1.9348,1.9123,1.8252,1.7566,1.7523,1.7497,1.7497,1.7497,1.7497,1.7497,1.7497,1.7921,1.798,1.7519,1.8293,1.8389,1.7526,1.8529,1.8926,1.8579,1.9197,1.956,1.9581,1.9625,2.0005,2.0624,2.1125,2.1829,2.4989,2.571,2.659,2.6535,2.7211,2.7789,2.7573,2.75,2.7478,2.7486,2.7191,2.7113,2.7602,2.7743,2.8169,2.9269,2.9651,3.0135,3.0883,3.037,2.9732,2.9253,2.9098,2.8522,2.7284,2.6952,2.6804,2.6808,2.6585,2.6278,2.5877,2.5433,2.4994,2.4511,2.4117,2.3839,2.3739,2.3739,2.3739,2.3739,2.3739,2.3739,2.3739,2.3739,2.3817,2.3956,2.3568,2.344,2.3585,2.3361,2.3231,2.324,2.3188,2.3413,2.3777,2.3536,2.3497,2.344,2.3023,2.2541,2.2105,2.1782,2.1278,2.0744,2.0744,2.0345,1.9945,2.0319,2.0319,2.0243,2.0387,2.0421,2.0361,2.0127,2.0266,2.0421,2.0421,2.0613,2.0794,2.0794,2.0794,2.072,2.0462,2.0277,2.0162,2.0162,1.9346,1.8685,1.8493,1.8452,1.8433,1.8312,1.8278,1.8278,1.8278,1.8691,1.875,1.83,1.9183,1.9308,1.8489,1.9233,1.9508,1.9178,1.948,1.9853,2.0273,2.0273,2.0824,2.1843,2.2286,2.2844,2.4578,2.5123,2.5687,2.5587,2.6698,2.7665,2.711,2.7225,2.7504,2.7664,2.7404,2.7164,0.0,0.0,2.8544,2.9016,2.9671,3.04,3.112,3.0637,3.0142,3.0116,2.9474,2.8721,2.7865,2.7512,2.7276,2.7158,2.7198,2.6745,2.567,2.5597,2.5133,2.4082,2.4059,2.4059,2.4059,2.4059,2.4059,2.4059,2.4059,2.4059,2.4059,2.4059,2.4287,2.4584,2.3569,2.3896,2.5022,2.3412,2.332,2.4136,2.345,2.3619,2.4219,2.4026,2.4385,2.4799,2.3639,2.2363,2.1327,2.1569,2.1266,2.0794,2.0867,2.0561,2.0326,2.076,2.0595,2.0345,2.0753,2.0819,2.0827,2.0827,2.0819,2.0827,2.0827,2.0852,2.0852,2.086,2.0827,2.0819,2.0852,2.0827,2.0819,2.086,2.0852,2.0712,2.0277,2.0243,2.0112,1.979,1.9762,1.9762,1.9762,1.9762,1.9762,1.9762,2.0042,2.0243,2.0243,2.0243,2.0243,2.0243,1.9955,2.0317,2.134,2.1371,2.2251,2.3905,2.3905,2.4247,2.548,2.5731,2.5871,2.6301,2.7145,2.7634,2.6754,2.7531,2.8261,2.7655,2.821,2.8706,0.0,0.0,2.9772,3.0144,3.0621,3.1089,3.1517,3.1428,0.0,3.0213,0.0,2.9296,2.7916,2.8269,2.8048,2.6914,2.6273,2.5849,2.5517,2.5517,2.5398,2.5028,2.502,2.4981,2.4887,2.4879,2.4879,2.4879,2.4879,2.4879,2.4879,2.4879,2.4957,2.502,2.4775,2.4574,2.4452,2.4507,2.4409,2.4192,2.4275,2.456,2.493,2.46,2.4475,2.4303,2.3706,2.3064,2.2362,2.1371,2.0954,2.0972,2.1539,2.1232,2.0923,2.1859,2.1641,2.1119,2.1276,2.1276,2.1198,2.0983,2.1142,2.1308,2.1308,2.1515,2.1697,2.1645,2.1386,2.1269,2.1562,2.1355,2.1277,2.1509,2.154,2.1324,2.0712,2.0654,2.0613,2.0512,2.052,2.052,2.052,2.052,2.052,2.052,2.0613,2.0654,2.0654,2.0654,2.0654,2.0654,2.1056,2.1401,2.1678,2.2217,2.2998,2.3905,2.3905,2.4247,2.598,2.6152,2.6129,2.6413,2.6991,2.7329,2.6691,2.7437,2.8339,2.8512,2.913,0.0,2.9077,2.9977,3.0679,0.0,0.0,0.0,3.1699,3.1685,3.1308,0.0,3.0108,0.0,2.7933,2.8213,2.7977,2.6784,2.6589,2.629,2.5779,2.5762,2.566,2.5435,2.5435,2.5397,2.5335,2.5335,2.5335,2.5335,2.5335,2.5335,2.5335,2.5335,2.5411,2.5582,2.5088,2.4871,2.4829,2.5044,2.5007,2.4863,2.5349,2.5677,2.5773,2.518,2.4882,2.4622,2.3704,2.326,2.2932,2.1736,2.1362,2.1523,2.228,2.211,2.1876,2.3027,2.2674,2.1967,2.22,2.1961,2.1645,2.1469,2.159,2.1726,2.1726,2.1874,2.199,2.194,2.1773,2.1683,2.1911,2.1773,2.1653,2.1811,2.184,2.1691,2.1293,2.1111,2.0958,2.0827,2.0794,2.0794,2.0794,2.0794,2.0794,2.0794,2.0925,2.1023,2.1023,2.1343,2.1503,2.1503,2.2022,2.2523,2.3034,2.3454,2.4088,2.4923,2.4923,2.5096,2.6173,2.6316,2.6225,2.6204,2.6538,2.6828,2.6598,2.7215,2.82,2.9507,0.0,3.007,2.9561,3.0755,3.1488,3.0383,0.0,3.2317,3.1887,3.1851,3.1446,3.0355,3.0156,2.9491,2.8021,2.7766,2.7436,2.6742,2.7215,2.7128,2.6235,2.6175,2.6024,2.5681,2.5652,2.5652,2.5652,2.5652,2.5603,2.5505,2.5505,2.5456,2.5367,2.5464,2.5696,2.6,2.5138,2.516,2.5711,2.5414,2.5489,2.5779,2.6278,2.6506,2.6429,2.553,2.527,2.515,2.3776,2.337,2.3312,2.2312,2.2094,2.232,2.3117,2.305,2.2927,2.4024,2.3458,2.2638,2.2989,2.2555,2.2036,2.2036,2.2036,2.2036,2.2036,2.2027,2.2036,2.2036,2.2027,2.1998,2.2027,2.2027,2.1969,2.192,2.1911,2.192,2.189,2.1579,2.1238,2.095,2.0917,2.0957,2.1085,2.0973,2.0957,2.1085,2.1351,2.1517,2.1517,2.2224,2.2622,2.2622,2.2983,2.3694,2.4658,2.4783,2.5302,2.6203,2.6239,2.6247,2.6176,2.591,2.5545,2.6075,2.6232,2.6177,2.5856,2.7468,0.0,0.0,3.0606,3.1647,3.0568,3.1869,3.2709,3.1515,3.2387,3.3077,3.2666,3.2601,3.2186,0.0,3.0391,2.9542,2.8345,2.7676,2.7134,2.6733,2.626,2.6159,2.6556,2.659,2.6573,2.6505,2.6505,2.6505,2.6505,2.6505,2.6177,2.5581,2.5581,2.5253,2.4706,2.5295,2.5614,2.5713,2.6143,2.6387,2.6497,2.6463,2.6463,2.6454,2.5965,2.5771,2.571,2.4917,2.4647,2.4636,2.4343,2.4259,2.4039,2.2501,2.2492,2.3215,2.3956,2.3731,2.3365,2.4211,2.34,2.2295,2.2411,2.2318,2.2189,2.2237,2.2237,2.2237,2.2237,2.2209,2.2189,2.2237,2.211,2.2044,2.216,2.2081,2.1998,2.199,2.199,2.2068,2.2267,2.1961,2.17,2.1631,2.1639,2.1878,2.2486,2.1985,2.1894,2.2503,2.2575,2.2607,2.2607,2.3316,2.3736,2.3736,2.4387,2.4824,2.499,2.5673,2.61,2.6304,2.6407,2.6459,2.6218,2.6171,2.5948,2.6235,2.6237,2.6188,2.6352,0.0,0.0,0.0,3.1386,3.2256,3.1655,3.2578,0.0,3.1567,3.2168,3.2701,3.2339,3.2308,3.1889,3.0712,3.0298,2.9572,2.8172,2.7356,2.6822,2.6662,2.5902,2.5625,2.6115,2.6133,2.6302,2.6683,2.6691,2.6691,2.6691,2.6319,2.5955,2.5609,2.5609,2.5211,2.454,2.5262,2.5609,2.5625,2.5972,2.5905,2.56,2.637,2.6015,2.5017,2.5448,2.5609,2.5516,2.4754,2.4729,2.5017,2.4642,2.4261,2.3858,2.3452,2.3595,2.3997,2.4343,2.4216,2.4005,2.4382,2.3676,2.2819,2.2877,2.2561,2.2262,2.2282,2.2413,2.256,2.2694,2.257,2.246,2.2515,2.2304,2.222,2.2432,2.2407,2.2392,2.2449,2.2393,2.2366,2.2565,2.2322,2.2116,2.2116,2.1998,2.2237,2.3004,2.2745,2.2845,2.3579,2.3629,2.3629,2.3629,2.4346,2.4738,2.4738,2.5438,2.5821,2.5821,2.6232,2.639,2.639,2.6041,2.5865,2.6608,2.6778,2.6804,2.6933,2.6606,2.6446,2.7186,2.7858,0.0,0.0,3.2088,3.2693,3.2474,0.0,3.2993,0.0,3.1947,3.2353,3.1743,3.1881,3.1523,0.0,3.014,0.0,2.8041,2.7189,2.6683,2.6618,2.5674,2.5234,2.5524,2.5482,2.5713,2.6291,2.6403,2.6387,2.6218,2.5812,2.5448,2.5135,2.5135,2.4737,2.4036,2.4788,2.5135,2.5143,2.5304,2.5033,2.4616,2.5913,2.5439,2.3993,2.5152,2.5609,2.5516,2.4754,2.4856,2.5279,2.4687,2.4133,2.3723,2.4328,2.4515,2.4515,2.4515,2.4515,2.4481,2.4381,2.3833,2.3263,2.3312,2.2914,2.2479,2.2479,2.2624,2.285,2.3051,2.2935,2.2782,2.2782,2.2605,2.2525,2.2756,2.2782,2.2833,2.2924,2.2798,2.2764,2.294,2.2712,2.2616,2.285,2.2615,2.2758,2.3553,2.3621,2.3934,2.467,2.4743,2.4743,2.4743,2.5439,2.5845,2.5845,2.6396,2.6691,2.6691,2.6725,2.664,2.6429,2.583,2.5458,2.7677,2.7685,2.7846,2.8575,2.7552,2.6704,2.7904,0.0,0.0,3.11,3.2562,3.336,3.2628,0.0,0.0,0.0,0.0,0.0,3.1464,3.1892,3.1783,3.0201,0.0,0.0,2.8362,2.752,2.696,2.6701,2.5262,2.4681,2.5291,2.5118,2.5007,2.5067,2.5465,2.538,2.4718,2.5304,2.4932,2.3596,2.3596,2.3224,2.2539,2.3266,2.3596,2.3638,2.4298,2.4574,2.4574,2.5372,2.5592,2.5423,2.5558,2.5609,2.5516,2.4754,2.4557,2.4608,2.4531,2.4472,2.4421,2.4489,2.4515,2.4515,2.4515,2.4515,2.4393,2.3976,2.333,2.2833,2.3056,2.3079,2.3035,2.3035,2.306,2.3075,2.3091,2.3075,2.3051,2.3051,2.3051,2.3026,2.3051,2.3051,2.3075,2.3091,2.3075,2.3149,2.3394,2.3188,2.3395,2.4295,2.405,2.4109,2.4854,2.4979,2.5338,2.6083,2.6135,2.6135,2.6135,2.6805,2.723,2.723,2.7291,2.7326,2.7326,2.737,2.7017,2.633,2.6371,2.6007,2.7231,2.7432,2.7871,2.8147,2.7735,2.7427,2.8137,0.0,3.0491,3.1243,3.2652,3.3652,3.3349,3.3479,0.0,0.0,0.0,0.0,3.208,3.1887,3.1549,3.0865,3.0396,2.975,2.8764,2.7504,2.629,2.5162,2.4487,2.424,2.4486,2.4521,2.4731,2.5129,2.5328,2.5296,2.4977,2.4674,2.4218,2.3636,2.3481,2.3012,2.2336,2.3063,2.3393,2.3418,2.3706,2.3833,2.3917,2.5118,2.5084,2.4388,2.5487,2.5899,2.5865,2.5587,2.5872,2.639,2.6193,2.5652,2.51,2.555,2.5083,2.4283,2.4122,2.4526,2.48,2.3676,2.317,2.296,2.3075,2.31,2.3149,2.3301,2.3348,2.3362,2.3491,2.3431,2.3348,2.3348,2.3197,2.3149,2.3315,2.3348,2.3385,2.3504,2.3431,2.3408,2.3655,2.387,2.4225,2.4779,2.4442,2.469,2.5908,2.6022,2.6374,2.7108,2.7151,2.7151,2.7151,2.742,2.7586,2.7586,2.7586,2.7586,2.7586,2.7105,2.674,2.6396,2.5514,2.5208,2.758,2.7924,2.8537,2.8478,2.8303,2.8335,0.0,3.002,3.0999,3.1732,3.2886,3.3798,3.3798,3.3753,3.346,0.0,0.0,0.0,3.1913,3.1579,3.1219,3.0677,3.0378,2.9764,2.8672,2.7116,2.5596,2.4174,2.4065,2.4045,2.4025,2.4163,2.4404,2.4785,2.4928,2.4883,2.4638,2.4172,2.3804,2.3578,2.3397,2.3048,2.2542,2.3055,2.3322,2.3322,2.3322,2.3322,2.3414,2.4919,2.4919,2.4147,2.5625,2.6215,2.6189,2.5955,2.6333,2.6915,2.6462,2.5767,2.5076,2.541,2.4954,2.4224,2.3824,2.434,2.4778,2.3552,2.3259,2.3307,2.3307,2.3307,2.3344,2.3544,2.3598,2.3642,2.3774,2.3698,2.3598,2.3598,2.3431,2.3376,2.3553,2.3598,2.3723,2.41,2.4028,2.4073,2.4453,2.4847,2.5233,2.5656,2.5416,2.5656,2.6739,2.7049,2.7413,2.7917,2.7961,2.7961,2.7961,2.7961,2.7961,2.7961,2.7722,2.7607,2.7607,2.6809,2.6286,2.6039,2.5206,2.542,2.9304,2.9656,3.0275,3.0276,2.9634,2.9363,0.0,3.0979,3.1224,3.2683,3.341,3.3798,3.3798,3.3798,3.3541,0.0,0.0,0.0,3.0558,3.0898,3.0806,2.9195,2.9723,2.9567,2.797,2.6367,2.5061,2.4254,2.4199,2.417,2.4094,2.4103,2.3955,2.3615,2.4078,2.3932,2.3129,2.383,2.3831,2.3118,2.3109,2.3109,2.31,2.3109,2.3109,2.3109,2.3109,2.3109,2.3232,2.4769,2.5374,2.5436,2.6198,2.6505,2.6409,2.561,2.533,2.5224,2.448,2.4209,2.4094,2.3356,2.3791,2.4468,2.3736,2.3844,2.411,2.3625,2.3642,2.3795,2.3795,2.3795,2.3795,2.3795,2.3795,2.3795,2.3795,2.3795,2.3795,2.3795,2.3786,2.3795,2.3795,2.3795,2.4067,2.4873,2.499,2.5271,2.6077,2.6186,2.6503,2.7299,2.7357,2.7366,2.7384,2.8117,2.8578,2.8587,2.8587,2.8587,2.8587,2.8587,2.8587,2.8587,2.78,2.7393,2.7393,2.6588,2.5796,2.5036,2.5833,2.7299,2.9272,2.9656,3.0296,3.0234,3.0502,3.0844,3.1137,3.1874,3.2596,3.2925,3.3444,3.3798,3.3798,3.3798,3.3715,3.3467,0.0,0.0,0.0,0.0,3.1269,3.0334,2.9442,2.8501,2.7419,2.6247,2.5208,2.4394,2.4247,2.4199,2.417,2.417,2.4074,2.3867,2.4015,2.3963,2.3723,2.3759,2.3668,2.3441,2.3215,2.3096,2.3096,2.3107,2.31,2.31,2.31,2.31,2.3179,2.4181,2.4585,2.469,2.565,2.6012,2.5985,2.5737,2.6106,2.667,2.625,2.6238,2.6263,2.5455,2.5067,2.4726,2.3932,2.4181,2.4594,2.3893,2.3753,2.3795,2.3795,2.3795,2.3795,2.3795,2.3795,2.3795,2.3795,2.423,2.4619,2.4619,2.5063,2.5443,2.5443,2.5443,2.5534,2.5787,2.5823,2.5914,2.6177,2.6684,2.7127,2.7381,2.7881,2.8207,2.8207,2.8442,2.8587,2.8587,2.8587,2.8587,2.8587,2.8062,2.7764,2.7764,2.7001,2.6856,2.7408,2.6593,2.6077,2.586,2.7218,2.8498,0.0,2.9832,3.0356,3.0623,3.1134,3.1671,3.214,3.2862,3.3465,3.3667,3.3911,3.4062,3.4062,3.4062,3.4062,3.4062,0.0,0.0,0.0,3.235,3.146,3.0423,2.8857,2.7656,2.7142,2.5989,2.5043,2.4547,2.4445,2.4393,2.4393,2.4312,2.4247,2.4145,2.4075,2.4045,2.4045,2.3846,2.3744,2.3744,2.3544,2.3446,2.3446,2.3427,2.3422,2.3391,2.3391,2.3399,0.0,2.4197,2.4493,2.4571,2.5234,2.5503,2.5467,2.5162,2.5667,2.6479,2.6294,2.6549,2.6874,2.6367,2.566,2.4846,2.404,2.4148,2.4438,2.3931,2.3795,2.3795,2.3795,2.3795,2.3795,2.3795,2.3795,2.3795,2.3795,2.4429,2.5,2.5,2.5651,2.6204,2.6204,2.6204,2.6303,2.662,2.6656,2.6656,2.6656,2.7372,2.7634,2.7019,2.7951,2.8469,2.8162,2.8424,2.8587,2.8587,2.8587,2.8451,2.8153,2.768,2.7272,2.6955,2.6466,2.6457,2.6955,2.6448,2.6521,2.7145,2.8449,2.9654,0.0,3.018,3.0594,3.1374,3.1613,3.2058,3.3649,3.3846,0.0,3.4728,3.4683,3.4498,3.4498,3.4498,3.4498,3.4498,3.4498,3.4217,3.3441,3.2586,3.144,2.9739,2.8132,2.7137,2.7131,2.5665,2.4713,2.4713,2.4713,2.4707,2.4707,2.4526,2.4424,2.4424,2.4229,2.4113,2.4103,2.4045,2.4016,2.4016,2.4016,2.4016,2.4016,2.3996,2.3976,2.3917,2.3917,2.3867,2.3871,2.4632,2.494,2.494,2.494,2.494,2.4849,2.4097,2.4333,2.5018,2.5094,2.5579,2.6195,2.6131,2.557,2.4782,2.4022,2.3795,2.3795,2.3795,2.3795,2.3795,2.3795,2.3795,2.3795,2.3795,2.3795,2.3795,2.3795,2.4429,2.5018,2.5072,2.5697,2.6222,2.6285,2.6249,2.6457,2.7209,2.7317,2.7317,2.7317,2.7963,2.787,2.6367,2.7568,2.8166,2.7405,2.8123,2.8569,2.8515,2.8496,2.8135,2.7363,2.7272,2.691,2.6213,2.6267,2.6294,2.6294,2.6403,2.7227,2.8696,2.9563,3.0731,2.9775,0.0,3.1703,3.2083,3.2656,3.3251,0.0,3.4312,3.4652,0.0,0.0,0.0,0.0,0.0,3.4498,3.4498,3.4498,3.428,3.362,3.2439,3.1239,3.0164,2.856,2.7555,2.7565,2.5956,2.4929,2.4929,2.4832,2.4784,2.4784,2.4721,2.4682,2.4636,2.4476,2.4339,2.417,2.417,2.4142,2.4142,2.4094,2.4074,2.4065,2.4016,2.3996,2.3976,2.3976,2.3976,2.3965,2.4156,2.4238,2.4238,2.4238,2.4238,2.4201,2.401,2.4435,2.5165,2.5839,2.6141,2.6104,2.5479,2.4737,2.4049,2.3859,2.3795,2.3795,2.3795,2.3795,2.3795,2.3795,2.3795,2.3795,2.3795,2.3795,2.3795,2.3795,2.4429,2.5181,2.5805,2.6077,2.6403,2.7019,2.662,2.6267,2.6457,2.6484,2.6484,2.6484,2.6656,2.6685,2.6444,2.6819,2.7013,2.6891,2.7933,2.8325,2.7734,2.7664,2.7336,2.653,2.5896,2.576,2.6195,2.681,2.7127,2.7127,2.835,2.9137,2.9545,3.0966,3.1537,3.0415,3.0565,3.1034,3.1591,3.2326,3.3091,3.3724,0.0,0.0,0.0,0.0,0.0,0.0,0.0,0.0,3.4766,3.4519,3.4036,3.3332,3.2581,3.1484,2.9847,2.852,2.7582,2.7192,2.5901,2.5091,2.5091,2.5022,2.4975,2.4975,2.4929,2.4888,2.4842,2.4716,2.4536,2.4293,2.4238,2.4199,2.4199,2.417,2.4151,2.4142,2.4122,2.4065,2.4045,2.4045,2.4025,2.3996,2.3996,2.3996,2.3996,2.3996,2.3996,2.3996,2.3996,2.4486,2.5275,2.6111,2.6586,2.6713,2.5904,2.5105,2.4378,2.4005,2.3867,2.3846,2.3816,2.3795,2.3795,2.3795,2.3795,2.3795,2.3795,2.3795,2.3795,2.3795,2.4741,2.5615,2.5687,2.6327,2.6853,2.6935,2.6581,2.6291,2.6291,2.6291,2.6154,2.5782,2.6055,2.6054,2.5421,2.6051,2.6368,2.6053,2.6995,2.7445,2.7113,2.7121,2.6924,2.6499,2.613,2.6257,2.6966,2.7414,2.7958,2.8594,2.9466,3.0266,3.1002,3.152,3.1729,3.0968,3.0357,2.9934,3.0967,3.1736,3.2528,0.0,0.0,0.0,0.0,0.0,0.0,0.0,0.0,0.0,0.0,3.4436,3.3716,3.2905,3.2584,3.1613,2.9458,2.8241,2.737,2.6769,2.5799,2.5223,2.5224,2.5223,2.5222,2.5222,2.5103,2.5053,2.5053,2.4906,2.4717,2.4498,2.4348,2.4275,2.4275,2.4275,2.4256,2.4238,2.4238,2.4181,2.4122,2.4122,2.4074,2.4025,2.4025,2.4025,2.4025,2.4025,2.4025,2.4043,2.4182,2.4636,2.53,2.5974,2.674,2.7283,2.6365,2.5594,2.4898,2.4246,2.3987,2.3896,2.3846,2.3816,2.3816,2.3825,2.3816,2.3816,2.3816,2.3816,2.3816,2.3816,2.4959,2.5772,2.5214,2.6149,2.6877,2.6308,2.6107,2.6025,2.6025,2.6025,2.5779,2.5108,2.5606,2.5528,2.4173,2.526,2.5798,2.5125,2.5743,2.6275,2.6526,2.6708,2.6794,2.6833,2.7046,2.7419,2.7931,2.82,2.8907,3.01,3.0338,3.1178,3.2481,3.1803,3.1803,2.9023,2.9564,3.0522,3.2237,3.278,3.319,0.0,0.0,0.0,0.0,0.0,0.0,0.0,3.4636,3.4827,0.0,3.4085,3.3727,3.2919,3.1588,3.0538,3.0149,2.809,2.6965,2.7624,2.6227,2.5313,2.5364,2.5312,2.5274,2.5274,2.5273,2.5253,2.5251,2.5072,2.4946,2.4919,2.4712,2.462,2.462,2.4626,2.4528,2.4373,2.4373,2.4302,2.417,2.417,2.417,2.417,2.417,2.417,2.417,2.417,2.417,2.4253,2.4922,2.5232,2.5301,2.5366,2.5941,2.6435,2.5075,2.4418,2.42,2.4228,2.4134,2.3987,2.3967,2.3926,2.3896,2.3946,2.3967,2.3967,2.3967,2.3967,2.3967,2.3967,2.4167,2.4534,2.5078,2.4844,2.4725,2.53,2.4826,2.437,2.437,2.437,2.4324,2.4196,2.4288,2.431,2.4181,2.4441,2.4598,2.4523,2.4839,2.5284,2.5829,2.6393,2.6794,2.6969,2.7642,2.8063,2.8147,2.9547,3.0376,3.0595,3.1946,3.276,3.298,3.2817,3.2482,2.8551,2.8957,2.9795,3.1664,3.2571,3.2942,0.0,0.0,0.0,0.0,0.0,0.0,0.0,0.0,3.3738,3.3416,3.3354,3.3073,3.2311,3.1537,3.091,3.0511,2.8626,2.7531,2.797,2.6404,2.5365,2.5397,2.534,2.5293,2.5293,2.5293,2.5303,2.5302,2.5203,2.5161,2.5158,2.5068,2.4919,2.4697,2.47,2.4639,2.4568,2.445,2.4373,2.4312,2.4238,2.4199,2.4199,2.4199,2.4199,2.4199,2.4199,2.4199,2.43,2.5109,2.5667,2.5993,2.5981,2.5926,2.5784,2.5121,2.4549,2.4122,2.4219,2.4152,2.4065,2.4094,2.4036,2.3967,2.3996,2.3996,2.3996,2.3996,2.3996,2.3996,2.3996,2.4374,2.4686,2.462,2.4697,2.4745,2.467,2.4341,2.4122,2.4122,2.4122,2.4122,2.4122,2.4122,2.4133,2.4181,2.4615,2.4902,2.4949,2.5547,2.5968,2.6026,2.7058,2.7785,2.8023,2.8828,2.9441,2.9809,3.0574,3.1337,3.21,3.284,3.3205,3.3205,3.2735,3.2098,2.8369,2.8652,2.9123,3.028,0.0,3.2305,3.1848,0.0,0.0,0.0,0.0,0.0,0.0,3.3295,3.2813,3.3053,3.279,3.2353,3.1773,3.139,3.0954,3.0356,2.8826,2.7806,2.7799,2.634,2.5397,2.5397,2.535,2.5322,2.5293,2.5313,2.5322,2.5293,2.5293,2.5293,2.5293,2.5302,2.5155,2.4842,2.4818,2.4795,2.4774,2.4604,2.4515,2.4458,2.4356,2.4321,2.433,2.433,2.4284,2.4247,2.4312,2.4524,2.4892,2.5528,2.6234,2.6851,2.6677,2.6071,2.5412,2.5433,2.4901,2.4247,2.4247,2.4238,2.4229,2.4247,2.421,2.4144,2.4065,2.4045,2.4045,2.4045,2.4045,2.4045,2.4045,2.4569,2.4866,2.4232,2.4656,2.4925,2.4358,2.4247,2.4266,2.4303,2.433,2.433,2.433,2.4478,2.4589,2.4589,2.5337,2.5828,2.5866,2.673,2.7148,2.6919,2.8123,2.8944,2.9197,2.9851,3.0433,3.0963,3.1181,3.1885,3.3166,3.3166,3.325,3.3439,3.243,3.16,2.7926,2.8766,2.9291,2.8315,0.0,0.0,3.3705,0.0,0.0,0.0,0.0,0.0,0.0,3.3341,3.3058,3.3868,3.274,3.1765,3.1708,3.0476,2.9518,2.9404,2.7913,2.6889,2.6887,2.5992,2.5397,2.5397,2.5405,2.537,2.5293,2.5361,2.5361,2.5293,2.5293,2.5293,2.5293,2.5303,2.5292,2.5261,2.518,2.5103,2.4981,2.4958,2.4855,2.4682,2.4666,2.4654,2.4651,2.4651,2.4552,2.4399,2.4594,2.5469,2.6636,2.6748,2.7187,2.7603,2.686,2.6071,2.5414,2.5551,2.5032,2.4381,2.4381,2.451,2.4619,2.4442,2.451,2.4571,2.4275,2.4199,2.4199,2.4199,2.4199,2.4199,2.4199,2.4236,2.4263,2.4199,2.4236,2.4302,2.4382,2.4381,2.4459,2.4635,2.4651,2.4651,2.4651,2.532,2.5787,2.5787,2.6547,2.7128,2.725,2.7888,2.84,2.8692,2.9405,2.9893,3.0109,3.0166,3.0223,3.0266,3.1068,3.1894,3.2737,3.2737,3.3157,3.3907,3.2294,3.1512,2.7794,2.8325,2.8756,2.9174,0.0,0.0,0.0,0.0,0.0,0.0,3.3251,0.0,0.0,3.301,3.2938,3.3349,3.2032,3.081,3.0392,2.9825,2.9265,2.8737,2.7644,2.6916,2.6922,2.6081,2.5517,2.5517,2.5488,2.5453,2.5426,2.5408,2.5385,2.5361,2.5322,2.5293,2.5293,2.5293,2.5303,2.5302,2.5273,2.521,2.5126,2.5043,2.4968,2.4869,2.4795,2.476,2.4755,2.4725,2.467,2.4635,2.5086,2.6228,2.7537,2.6927,2.7175,2.7677,2.6878,2.6134,2.5532,2.557,2.5147,2.4594,2.4594,2.4642,2.4682,2.461,2.4642,2.4676,2.4547,2.4513,2.4513,2.4513,2.4513,2.4513,2.4513,2.4513,2.4513,2.4513,2.4513,2.453,2.4578,2.4594,2.461,2.4692,2.4707,2.4707,2.4707,2.5399,2.5894,2.5894,2.7125,2.8218,2.891,2.9193,2.9447,2.9693,2.9823,2.9978,3.0195,3.0195,3.0433,3.094,3.1809,3.2396,3.2691,3.3242,3.3137,3.243,3.1752,3.1169,2.7707,2.8029,2.8282,0.0,0.0,0.0,0.0,0.0,0.0,0.0,3.2502,0.0,3.2733,0.0,3.2814,3.2654,3.1458,3.0309,2.9601,2.9521,2.9117,2.8018,2.7358,2.6878,2.6588,2.598,2.5587,2.5572,2.5546,2.5517,2.5502,2.546,2.5437,2.5432,2.5369,2.5332,2.5332,2.5332,2.5332,2.5332,2.5332,2.5302,2.5233,2.5136,2.5091,2.5099,2.5003,2.4942,2.4919,2.4883,2.5021,2.5329,2.5907,2.7017,2.8194,2.7464,2.7544,2.7933,2.7377,2.673,2.6177,2.6429,2.5921,2.518,2.5135,2.4982,2.4856,2.4808,2.4837,2.4856,2.4856,2.4779,2.4707,2.4707,2.4707,2.4707,2.4707,2.4707,2.4707,2.4707,2.4707,2.4713,2.4759,2.4764,2.4779,2.4856,2.4861,2.4851,2.4851,2.5801,2.6677,2.7207,2.8279,2.9247,2.994,2.9994,3.0049,3.0195,3.0074,3.0059,3.0195,3.0195,3.0462,3.1016,3.1618,3.2057,3.2325,3.264,3.2344,3.1494,3.1169,3.0729,2.7589,2.7963,2.7969,0.0,0.0,0.0,0.0,0.0,0.0,0.0,3.3426,3.382,3.2957,3.2904,3.2715,3.1923,3.117,3.0394,2.9596,2.9533,2.893,2.7192,2.6991,2.6624,2.5688,2.5597,2.5567,2.5508,2.5561,2.5571,2.5513,2.55,2.5502,2.5499,2.5437,2.5405,2.5405,2.5405,2.5405,2.5396,2.5396,2.5369,2.5293,2.5293,2.5302,2.5301,2.5301,2.5252,2.5202,2.5202,2.572,2.6571,2.7105,2.7875,2.8698,2.855,2.8501,2.8511,2.8501,2.7988,2.7431,2.8227,2.7503,2.6258,2.6062,2.5612,2.5171,2.5043,2.5103,2.5202,2.5202,2.4945,2.4698,2.4698,2.4698,2.4698,2.4698,2.4698,2.4698,2.4698,2.4698,2.4759,2.4874,2.4892,2.4964,2.5168,2.5195,2.5217,2.5227,2.667,2.8339,3.0013,3.0195,3.0195,3.0195,3.0195,3.0195,3.0195,3.0195,3.0195,3.0195,3.0195,3.0195,3.0195,3.0204,3.0624,3.1494,3.0624,3.0643,3.1475,3.0596,3.0195,2.7069,2.7701,0.0,0.0,0.0,0.0,0.0,0.0,0.0,0.0,3.2575,3.2929,3.2102,3.2037,3.1835,3.1085,3.0341,2.9361,2.7936,2.7762,2.7349,2.6218,2.6093,2.5976,2.5702,2.5666,2.5657,2.5642,2.5655,2.5662,2.5641,2.56,2.5568,2.5571,2.5515,2.5464,2.5473,2.5473,2.5453,2.5396,2.5396,2.5387,2.5369,2.5369,2.537,2.537,2.537,2.5332,2.5273,2.5262,2.6125,2.7424,2.7423,2.8331,2.9521,2.8783,2.8853,2.9251,2.8709,2.8405,2.824,2.7893,2.7188,2.6326,2.5648,2.5329,2.5191,2.5149,2.5169,2.5202,2.5202,2.5126,2.5046,2.5046,2.5046,2.5046,2.5046,2.5046,2.5046,2.5046,2.5046,2.5058,2.5094,2.5115,2.5126,2.5189,2.519,2.5642,2.6868,2.7429,2.8342,3.0012,3.0199,3.0199,3.0194,3.0194,3.0217,3.0263,3.0276,3.0249,3.0195,3.0195,3.0195,3.0195,3.0758,3.0892,3.0586,3.094,3.093,3.0577,3.0319,3.0195,2.6821,0.0,0.0,0.0,0.0,0.0,2.9634,0.0,0.0,0.0,3.1703,3.2066,3.1245,3.1174,3.1001,3.0205,2.9493,2.8545,2.7192,2.6999,2.6679,2.5803,2.5697,2.5699,2.5701,2.5702,2.5703,2.5703,2.5703,2.5703,2.5698,2.566,2.5637,2.5636,2.5564,2.5527,2.5493,2.5502,2.5478,2.5441,2.5441,2.5441,2.5441,2.5405,2.5406,2.5398,2.5398,2.5379,2.5332,2.5341,2.6129,2.7344,2.7475,2.8397,2.9606,2.9264,2.949,2.9916,2.9427,2.9312,2.9243,2.8402,2.7652,2.6895,2.6021,2.5512,2.5243,2.5243,2.5243,2.5243,2.5243,2.5243,2.5223,2.5202,2.5202,2.5202,2.5202,2.5202,2.5202,2.5202,2.5202,2.5202,2.5202,2.5202,2.5202,2.5202,2.552,2.625,2.762,2.8068,2.8763,3.01,3.024,3.024,3.0244,3.0244,3.0266,3.0302,3.0302,3.0276,3.0236,3.0236,3.0236,3.0236,3.0724,3.0724,3.0236,3.0772,3.0752,3.0236,3.0236,3.0236,0.0,0.0,0.0,0.0,0.0,0.0,2.9806,2.9994,3.0125,3.0192,3.089,3.1219,3.0355,3.0356,3.0171,2.9229,2.8567,2.7876,2.7002,2.6875,2.6595,2.5788,2.5702,2.5703,2.5703,2.5703,2.5703,2.5703,2.5703,2.5703,2.5703,2.5698,2.5699,2.5699,2.5639,2.5584,2.5521,2.5521,2.5515,2.5515,2.5507,2.5499,2.5499,2.544,2.5415,2.5405,2.5319,2.5281,2.5283,2.5196,2.5649,2.6437,2.713,2.8008,2.8967,2.9653,3.0024,3.0179,3.0256,3.0237,3.0035,2.9248,2.8449,2.7631,2.6755,2.5938,2.5313,2.5293,2.5293,2.5293,2.5293,2.5293,2.5274,2.5223,2.5213,2.5213,2.5213,2.5213,2.5213,2.5213,2.5213,2.5213,2.5213,2.5213,2.5241,2.5318,2.6049,2.6925,2.7798,2.8614,2.9409,3.0206,3.0302,3.0302,3.0292,3.0292,3.0292,3.0315,3.0315,3.0315,3.0315,3.0302,3.0302,3.0302,3.0302,3.0302,3.0302,3.0302,3.0302,3.0302,3.0302,3.0302,0.0,2.7251,0.0,0.0,0.0,2.9643,2.9721,2.9527,2.9521,3.0145,3.0436,3.0326,2.9504,2.9476,2.9094,2.7579,2.7299,2.6981,2.6104,2.598,2.5915,2.5721,2.5702,2.5703,2.5703,2.5703,2.5703,2.5703,2.5703,2.5703,2.5703,2.5703,2.5703,2.5703,2.5691,2.5675,2.5661,2.5661,2.5636,2.5581,2.5523,2.5499,2.5499,2.5488,2.5448,2.5364,2.4681,2.4384,2.4327,2.37,2.3913,2.4724,2.5553,2.642,2.7306,2.8084,2.8403,2.8539,2.9215,2.9012,2.8404,2.8222,2.7615,2.6795,2.5919,2.5534,2.537,2.5313,2.5293,2.5293,2.5293,2.5293,2.5303,2.5283,2.5283,2.5283,2.5283,2.5283,2.5283,2.5283,2.5283,2.5283,2.5283,2.5283,2.5514,2.6196,2.6476,2.7139,2.8629,2.8972,2.9411,3.0205,3.0296,3.0305,3.0301,3.0292,3.0323,3.0386,3.0386,3.0386,3.0386,3.0327,3.0302,3.0302,3.0302,3.0302,3.0302,3.0302,3.0302,3.0302,3.0302,3.0302,0.0,0.0,0.0,0.0,0.0,2.9051,2.9119,2.8736,2.8528,2.9039,2.9146,2.9023,2.8602,2.8295,2.7819,2.6941,2.6562,2.6223,2.5757,2.57,2.5702,2.5703,2.5703,2.5703,2.5703,2.5703,2.5703,2.5703,2.5703,2.5703,2.5703,2.5703,2.5703,2.5703,2.5703,2.5703,2.5701,2.5702,2.5671,2.5603,2.5532,2.5502,2.5502,2.5497,2.5484,2.5398,2.453,2.4148,2.412,2.3705,2.3515,2.369,2.5368,2.6043,2.6236,2.7451,2.7904,2.7962,2.8415,2.828,2.7836,2.7451,2.7036,2.6534,2.5657,2.5407,2.5388,2.536,2.5351,2.5351,2.5351,2.5351,2.5351,2.5351,2.5322,2.5293,2.5293,2.5293,2.5293,2.5293,2.5293,2.5293,2.5293,2.5293,2.5591,2.6476,2.6957,2.7678,2.8938,2.9465,2.9886,3.03,3.0343,3.0352,3.0357,3.0357,3.0357,3.0398,3.0398,3.0398,3.0398,3.0374,3.034,3.034,3.034,3.034,3.034,3.034,3.034,3.034,3.034,3.034,0.0,0.0,0.0,0.0,0.0,0.0,2.8623,2.8027,2.7471,2.7788,2.7879,2.7842,2.7699,2.7194,2.6744,2.6604,2.6084,2.5696,2.5702,2.5703,2.5703,2.5703,2.5703,2.5702,2.5702,2.5701,2.57,2.57,2.57,2.5701,2.5702,2.5702,2.5703,2.5703,2.5703,2.5703,2.5698,2.57,2.5672,2.5619,2.5552,2.5511,2.5501,2.5501,2.5501,2.5443,2.4418,2.3985,2.3951,2.3661,2.3124,2.2705,2.5106,2.5598,2.5165,2.6862,2.7489,2.7509,2.7644,2.7595,2.7393,2.6872,2.661,2.6359,2.5617,2.5395,2.5405,2.5405,2.5396,2.5396,2.5396,2.5396,2.5396,2.5398,2.5361,2.5313,2.5303,2.5293,2.5341,2.5495,2.5649,2.5755,2.5755,2.5755,2.6043,2.6899,2.765,2.84,2.9217,2.9948,3.0398,3.0398,3.0398,3.0398,3.0398,3.0398,3.0398,3.0398,3.0398,3.0398,3.0398,3.0398,3.041,3.0414,3.041,3.0398,3.0398,3.0398,3.0398,3.0398,3.0398,3.0398,0.0,0.0,0.0,0.0,0.0,2.8362,0.0,0.0,2.6768,2.7493,2.7787,2.767,2.6901,2.6734,2.65,2.5858,2.5733,2.5699,2.5702,2.5703,2.5703,2.5703,2.5703,2.5702,2.5701,2.57,2.57,2.57,2.57,2.57,2.57,2.57,2.57,2.5701,2.5701,2.5701,2.5702,2.5703,2.5702,2.5689,2.5616,2.556,2.5505,2.5505,2.5507,2.5414,2.378,2.3074,2.2958,2.151,2.0837,2.0914,2.2709,2.3338,2.3444,2.5184,2.5814,2.592,2.6616,2.6394,2.592,2.651,2.623,2.563,2.545,2.5393,2.5403,2.5395,2.5396,2.5396,2.5396,2.5396,2.5396,2.5396,2.5396,2.5369,2.5303,2.5293,2.5514,2.6284,2.7044,2.7544,2.7544,2.7544,2.7823,2.864,2.8861,2.9246,3.0121,3.0321,3.0398,3.0398,3.0398,3.0398,3.0398,3.0398,3.0398,3.0398,3.0398,3.0398,3.0398,3.0398,3.0426,3.0482,3.0426,3.0398,3.0398,3.0398,3.0398,3.0398,3.0398,3.0398,2.487,0.0,0.0,0.0,2.7958,2.8042,2.8718,2.7881,2.7083,2.7504,2.7395,2.6959,2.6092,2.6016,2.5976,2.5649,2.5664,2.5699,2.5703,2.5703,2.5703,2.5702,2.57,2.5698,2.5697,2.5696,2.5704,2.5704,2.5704,2.5704,2.5697,2.5697,2.5698,2.57,2.5698,2.5699,2.5703,2.5703,2.5681,2.564,2.5609,2.5562,2.5498,2.5498,2.5503,2.5405,2.3659,2.2904,2.2803,2.162,2.1127,2.1285,2.2968,2.3625,2.378,2.5037,2.5501,2.555,2.5907,2.5801,2.5559,2.5917,2.5791,2.5484,2.5456,2.5456,2.5456,2.5458,2.5468,2.5468,2.5468,2.5788,2.6126,2.6137,2.6495,2.6833,2.6766,2.64,2.6333,2.7171,2.7643,2.7902,2.7902,2.7902,2.8169,2.8977,2.9134,2.9461,3.0294,3.0402,3.0392,3.04,3.0402,3.0417,3.0452,3.0491,3.0511,3.0508,3.0509,3.051,3.051,3.051,3.0528,3.056,3.045,3.0414,3.0461,3.0461,3.0461,3.0461,3.0492,3.0482,0.0,0.0,0.0,0.0,2.7718,2.7701,0.0,2.7921,2.7476,2.7828,2.7251,2.6487,2.5858,2.5654,2.5581,2.5595,2.5661,2.5702,2.5703,2.5702,2.5702,2.5699,2.5696,2.5702,2.5702,2.5699,2.5697,2.5697,2.5697,2.5699,2.5702,2.5702,2.5704,2.5698,2.5704,2.5698,2.5703,2.5703,2.5672,2.5599,2.56,2.557,2.5535,2.5535,2.5524,2.5401,2.3673,2.2927,2.2843,2.1804,2.1504,2.1846,2.332,2.4027,2.4326,2.5178,2.5497,2.5497,2.5497,2.5497,2.5497,2.5499,2.5499,2.5499,2.5499,2.5501,2.5501,2.5501,2.5501,2.555,2.5753,2.6247,2.676,2.6975,2.7526,2.798,2.7914,2.7595,2.7509,2.8107,2.8405,2.8559,2.8559,2.8558,2.8769,2.9375,2.9502,2.9752,3.0346,3.0439,3.045,3.0448,3.0449,3.0472,3.0523,3.0573,3.0597,3.0597,3.0594,3.0597,3.0597,3.0607,3.0614,3.0626,3.051,3.0482,3.0528,3.0528,3.0528,3.0528,3.0804,3.0904,0.0,0.0,0.0,2.6396,0.0,0.0,0.0,2.8147,2.7582,2.8536,2.7601,2.6612,2.6627,2.6011,2.5529,2.5593,2.5657,2.5699,2.5703,2.5701,2.5699,2.5704,2.5704,2.5702,2.5697,2.5697,2.5697,2.5697,2.5697,2.5697,2.5697,2.5697,2.5697,2.5697,2.5697,2.5704,2.5703,2.5702,2.5671,2.5604,2.5599,2.5597,2.5586,2.5586,2.5561,2.5405,2.3718,2.2991,2.2856,2.1169,2.0946,2.1795,2.271,2.3573,2.439,2.5201,2.5502,2.5502,2.5502,2.5502,2.5502,2.5503,2.5495,2.5495,2.5495,2.5499,2.5501,2.5497,2.5499,2.5685,2.6441,2.6673,2.6905,2.7735,2.7967,2.7978,2.7904,2.8512,2.9081,2.9119,2.9795,3.0354,3.0354,3.0354,3.0383,3.0422,3.0431,3.045,3.0489,3.0549,3.0584,3.0593,3.0584,3.0595,3.0594,3.0601,3.0603,3.06,3.06,3.06,3.06,3.0597,3.0631,3.0686,3.0626,3.0596,3.0586,3.0586,3.0586,3.0605,3.1448,3.1827,0.0,0.0,0.0,2.6584,2.7404,2.8092,2.901,2.9456,2.9644,2.9583,2.8405,2.7412,2.7566,2.6483,2.5571,2.5596,2.5662,2.5703,2.5699,2.5697,2.5704,2.5701,2.5699,2.5699,2.5697,2.5697,2.5697,2.5697,2.5697,2.5697,2.5697,2.5697,2.5697,2.5697,2.5696,2.5703,2.5702,2.5658,2.5619,2.5599,2.5603,2.5601,2.5605,2.5605,2.5589,2.5473,2.3748,2.2999,2.2864,2.1172,2.1284,2.2573,2.2881,2.3844,2.5104,2.5385,2.5499,2.5499,2.5499,2.5499,2.5502,2.5495,2.5505,2.5505,2.5505,2.5498,2.5507,2.5498,2.5498,2.5568,2.5858,2.6759,2.795,2.9338,2.9667,2.9658,2.9641,2.9873,3.0095,3.0095,3.0327,3.05,3.05,3.0499,3.0499,3.0499,3.05,3.05,3.0499,3.0521,3.054,3.054,3.054,3.0547,3.0596,3.0593,3.0625,3.0656,3.066,3.0681,3.0735,3.0735,3.0761,3.0833,3.0804,3.0747,3.0661,3.0661,3.0661,3.0671,3.1032,3.1169,2.1325,0.0,0.0,0.0,2.7124,2.804,2.8804,2.9539,3.0047,3.0003,2.8811,2.7825,2.8005,2.6943,2.5948,2.5683,2.5672,2.5699,2.5704,2.5702,2.5701,2.5697,2.5697,2.5697,2.5697,2.5697,2.5697,2.5697,2.5697,2.5697,2.5697,2.5697,2.5699,2.5704,2.5703,2.5694,2.5665,2.5614,2.56,2.5603,2.5607,2.5601,2.5601,2.5601,2.5601,2.5519,2.4094,2.3291,2.2868,2.1192,2.15,2.3023,2.3013,2.4036,2.5528,2.5531,2.5531,2.5531,2.5531,2.5531,2.5531,2.5525,2.5535,2.5535,2.5535,2.5518,2.5499,2.5535,2.5518,2.5635,2.6226,2.7644,2.9224,3.0341,3.0594,3.0604,3.0596,3.0597,3.0598,3.0598,3.0559,3.053,3.053,3.053,3.053,3.053,3.053,3.053,3.053,3.053,3.0529,3.053,3.0529,3.0563,3.0626,3.0633,3.0658,3.0725,3.0753,3.0791,3.0831,3.0828,3.0845,3.0895,3.0905,3.0857,3.0772,3.0772,3.0768,3.0765,3.1089,3.1369,0.0,0.0,0.0,0.0,0.0,2.7113,2.8118,2.8268,2.8521,2.968,2.8706,2.7692,2.7837,2.7313,2.661,2.5835,2.5702,2.5702,2.5702,2.5699,2.5697,2.5697,2.5697,2.5697,2.5697,2.5697,2.5697,2.5697,2.5697,2.5697,2.5697,2.5697,2.5704,2.5703,2.5701,2.5675,2.5603,2.56,2.5603,2.5601,2.5601,2.5601,2.5601,2.5601,2.5601,2.5558,2.4752,2.3876,2.2909,2.1228,2.1547,2.3095,2.3026,2.4053,2.556,2.5587,2.5601,2.5601,2.5601,2.5601,2.5595,2.5602,2.5596,2.5596,2.5596,2.5551,2.5518,2.5586,2.557,2.5945,2.769,2.9358,3.0571,3.06,3.06,3.06,3.06,3.0595,3.0597,3.0607,3.0607,3.0607,3.0597,3.0597,3.0597,3.0597,3.0597,3.0597,3.0597,3.0597,3.06,3.06,3.06,3.0626,3.0687,3.0701,3.0728,3.0789,3.0856,3.0889,3.0898,3.0898,3.0897,3.0897,3.0896,3.0905,3.0905,3.0905,3.0902,3.0917,3.1698,3.2534,1.7894,0.0,0.0,0.0,0.0,0.0,2.6782,2.7705,2.8322,2.8035,2.7215,2.6632,2.6915,2.6411,2.5902,2.5731,2.5701,2.5702,2.5699,2.5697,2.5697,2.5697,2.5697,2.5697,2.5697,2.5703,2.5703,2.5697,2.5703,2.5703,2.5697,2.5697,2.5703,2.5699,2.5703,2.5671,2.5605,2.56,2.5603,2.5601,2.5601,2.5601,2.5601,2.5601,2.5601,2.5549,2.4701,2.4183,2.3806,2.2131,2.2096,2.3091,2.3032,2.3675,2.4743,2.5374,2.5601,2.5601,2.5601,2.5601,2.5601,2.5595,2.5605,2.5605,2.5605,2.5589,2.5579,2.5595,2.6042,2.69,2.8598,2.9424,2.9954,3.0535,3.0664,3.0667,3.0674,3.0666,3.0671,3.0672,3.0664,3.0671,3.0664,3.067,3.0674,3.0674,3.0674,3.0674,3.0674,3.0666,3.0667,3.0667,3.0667,3.0682,3.0696,3.0701,3.0715,3.0728,3.0749,3.0784,3.0829,3.0827,3.0853,3.0898,3.0898,3.0898,3.0898,3.0896,3.0903,3.0912,3.1127,3.1672,1.6577,0.0,0.0,2.1386,0.0,0.0,2.5947,2.6952,2.7731,2.8091,2.7604,2.7197,2.7538,2.7045,2.6509,2.6238,2.5918,2.5698,2.5699,2.5695,2.5705,2.5697,2.5703,2.5701,2.5703,2.5698,2.5696,2.5701,2.5698,2.5701,2.5699,2.57,2.5703,2.5701,2.5671,2.565,2.5639,2.5609,2.5599,2.5604,2.56,2.5594,2.5604,2.5605,2.5605,2.5576,2.5056,2.4635,2.4205,2.2884,2.2862,2.3604,2.3176,2.3748,2.4899,2.5413,2.5597,2.5599,2.5603,2.5603,2.5599,2.5603,2.5597,2.5597,2.56,2.5595,2.56,2.5604,2.6232,2.7206,2.8549,2.8928,2.9076,2.9552,2.9928,3.0196,3.0201,3.0495,3.0733,3.0706,3.0701,3.0697,3.0695,3.0699,3.0704,3.0704,3.0704,3.0704,3.0704,3.07,3.0696,3.0704,3.0696,3.0701,3.0696,3.0728,3.0735,3.0735,3.0768,3.0801,3.0842,3.0842,3.0856,3.0898,3.0898,3.0898,3.0898,3.0898,3.0897,3.0896,3.0905,3.1148,1.5446,1.6611,0.0,1.9658,2.1445,0.0,2.5096,2.5767,2.656,2.8457,2.8388,2.8104,2.8468,2.8153,2.7589,2.6866,2.6228,2.5801,2.5712,2.5703,2.5701,2.5695,2.5698,2.5703,2.5698,2.5703,2.5697,2.57,2.57,2.5698,2.5702,2.5702,2.5702,2.5697,2.5642,2.5642,2.5689,2.5625,2.5595,2.5605,2.5604,2.5604,2.5605,2.5603,2.5598,2.5599,2.5512,2.5028,2.4252,2.3426,2.3563,2.4174,2.3341,2.4009,2.5468,2.5554,2.56,2.56,2.5605,2.56,2.56,2.56,2.5604,2.5604,2.5603,2.5601,2.5615,2.5722,2.6305,2.7103,2.7974,2.8198,2.8196,2.8203,2.8806,2.9386,2.9482,3.0109,3.0672,3.07,3.0707,3.071,3.0723,3.0723,3.0723,3.0723,3.0723,3.0723,3.0723,3.0723,3.0723,3.072,3.0719,3.0722,3.0716,3.0777,3.0806,3.0806,3.0867,3.0898,3.0898,3.0898,3.0898,3.0898,3.0898,3.0898,3.0898,3.0898,3.0898,3.0897,3.0896,3.0895,1.4084,1.5278,1.6698,1.7863,1.9532,0.0,2.2224,2.3094,2.3872,2.4604,2.4824,2.5024,2.5522,2.6262,2.657,2.5876,2.6285,2.6441,2.579,2.5701,2.5701,2.5701,2.5705,2.57,2.57,2.5704,2.5701,2.57,2.57,2.5698,2.5702,2.5702,2.5702,2.5697,2.5688,2.5656,2.5621,2.5604,2.5604,2.5593,2.5598,2.5598,2.5593,2.5598,2.5601,2.5559,2.4921,2.4544,2.4313,2.3452,2.3199,2.3342,2.3151,2.3677,2.4646,2.5342,2.5599,2.5603,2.5603,2.5603,2.5598,2.56,2.5603,2.5603,2.56,2.5599,2.5755,2.6451,2.6773,2.7104,2.797,2.8195,2.8203,2.8197,2.8371,2.8712,2.9362,2.9625,2.9955,3.0647,3.0785,3.0799,3.0849,3.0859,3.0859,3.0859,3.0859,3.0859,3.0859,3.0859,3.0859,3.0859,3.0859,3.0859,3.0859,3.0869,3.0878,3.0878,3.0887,3.0896,3.0896,3.0897,3.0897,3.0897,3.0898,3.0898,3.0898,3.0898,3.0898,3.0898,3.0898,3.0898,1.2993,1.3903,1.5005,1.6516,1.7938,0.0,0.0,2.2053,2.3008,2.4111,2.4644,2.5089,2.5769,2.6146,2.6304,2.6165,2.6544,2.6581,2.5807,2.57,2.5863,2.6302,2.5963,2.5873,2.6315,2.5954,2.5697,2.5704,2.5694,2.5703,2.5697,2.5701,2.5703,2.5705,2.5697,2.5678,2.5652,2.5648,2.5644,2.5645,2.5652,2.5649,2.5645,2.5655,2.5645,2.5632,2.5223,2.4804,2.4372,2.3927,2.3751,2.3745,2.3753,2.424,2.4999,2.5442,2.5619,2.5645,2.5648,2.5652,2.5649,2.5645,2.5626,2.5605,2.5644,2.5652,2.583,2.6703,2.664,2.6499,2.7378,2.7277,2.6949,2.6951,2.7309,2.7764,2.817,2.8594,2.9031,2.9471,2.9548,2.983,3.0698,3.0852,3.0849,3.0849,3.0849,3.0849,3.0849,3.088,3.0891,3.0849,3.0883,3.0903,3.0901,3.0903,3.0905,3.0905,3.0905,3.0905,3.0905,3.0896,3.0896,3.0896,3.0832,3.08,3.08,3.077,3.0798,3.0898,3.0866,3.0855,1.1782,1.2469,1.3335,1.5215,1.6417,1.7721,0.0,0.0,0.0,2.3975,2.4752,2.5375,2.6154,2.6167,2.6143,2.6363,2.6589,2.6491,2.5776,2.5829,2.613,2.6679,2.6412,2.6334,2.6714,2.6112,2.5699,2.5699,2.5699,2.5704,2.5699,2.57,2.5703,2.5703,2.5705,2.5705,2.5701,2.5697,2.5704,2.5703,2.5698,2.5698,2.5693,2.5527,2.5451,2.5427,2.511,2.4569,2.3929,2.4086,2.4151,2.417,2.4333,2.4898,2.5619,2.5622,2.5652,2.5703,2.5704,2.5697,2.5703,2.57,2.5665,2.5632,2.5681,2.5696,2.5849,2.6552,2.6244,2.5863,2.6569,2.6228,2.5703,2.57,2.6239,2.6792,2.6951,2.7532,2.8081,2.825,2.8276,2.8774,3.0298,3.0575,3.0623,3.0782,3.0801,3.0801,3.0801,3.0855,3.0855,3.0811,3.0849,3.0881,3.0876,3.088,3.0883,3.0883,3.087,3.0858,3.0858,3.0847,3.0845,3.0835,3.0746,3.0679,3.0679,3.0628,3.069,3.0856,3.0811,3.0781,1.0169,1.0961,1.2009,1.346,1.4721,1.6068,1.7551,0.0,1.9992,2.1285,0.0,2.2989,2.3603,0.0,0.0,2.5015,2.5838,2.6322,2.5703,2.6282,2.6545,2.5917,2.7067,2.7365,2.5976,2.5757,2.5699,2.5699,2.5699,2.5704,2.5699,2.57,2.5703,2.5697,2.5701,2.5701,2.5697,2.5701,2.5701,2.5695,2.5695,2.5695,2.5666,2.4895,2.4553,2.4456,2.2982,2.2278,2.2239,2.2951,2.3253,2.3322,2.4103,2.4927,2.5687,2.5691,2.5695,2.5695,2.5705,2.5705,2.5697,2.5698,2.5689,2.5686,2.5705,2.5698,2.5715,2.5825,2.5781,2.572,2.5821,2.5768,2.5703,2.5703,2.5781,2.6045,2.6758,2.6992,2.7285,2.8057,2.8211,2.8535,2.9556,2.9745,2.9984,3.0692,3.0801,3.0801,3.0801,3.0811,3.0811,3.0801,3.0811,3.0813,3.0811,3.0811,3.0813,3.0813,3.0758,3.072,3.072,3.0672,3.0637,3.0632,3.0617,3.0617,3.0617,3.0596,3.0642,3.0716,3.0711,3.0706,0.8922,0.9857,1.0919,1.2498,1.3592,1.4734,1.6323,1.7404,1.8396,1.9597,0.0,0.0,0.0,0.0,0.0,0.0,2.5281,2.6062,2.6014,2.6891,2.7267,2.6543,2.7077,2.723,2.6516,2.6448,2.6454,2.6447,2.5986,2.5703,2.5703,2.5703,2.5702,2.5697,2.5695,2.5705,2.5697,2.5695,2.5695,2.5697,2.5697,2.5697,2.5687,2.5317,2.5151,2.5092,2.388,2.3353,2.3382,2.3724,2.3854,2.3945,2.4809,2.5381,2.5701,2.5699,2.5701,2.5701,2.5704,2.5704,2.5701,2.5705,2.5705,2.5702,2.5697,2.5699,2.5704,2.5704,2.57,2.5703,2.5703,2.5703,2.5702,2.5703,2.57,2.5795,2.613,2.6203,2.6314,2.668,2.6751,2.7201,2.8605,2.9227,2.9829,3.0671,3.0798,3.0798,3.0798,3.0798,3.0798,3.0798,3.0804,3.0796,3.0796,3.0799,3.0801,3.0801,3.0771,3.0762,3.0762,3.0732,3.0718,3.0722,3.0646,3.0594,3.0594,3.0516,3.05,3.0527,3.061,3.0639,0.7957,0.8826,0.9841,1.1335,1.23,1.3339,1.4939,1.6089,1.7091,1.8149,1.9448,0.0,0.0,0.0,2.3038,2.3619,0.0,2.5394,2.5806,2.6811,2.7373,2.7023,2.6785,2.6739,2.6979,2.7003,2.6901,2.6664,2.6277,2.5951,2.5712,2.5702,2.57,2.5697,2.5697,2.5697,2.5697,2.5697,2.5697,2.5697,2.5697,2.5697,2.5687,2.5453,2.5336,2.5278,2.4194,2.3839,2.404,2.4038,2.4176,2.4489,2.5362,2.5704,2.5702,2.5704,2.5696,2.5696,2.5699,2.5698,2.5696,2.5702,2.5704,2.5697,2.5697,2.5693,2.5673,2.5673,2.5669,2.567,2.567,2.5666,2.5673,2.5668,2.5673,2.5671,2.5671,2.5675,2.5666,2.5668,2.5872,2.6511,2.8014,2.8762,2.952,3.0632,3.0798,3.0798,3.0798,3.0798,3.0798,3.0798,3.0804,3.0798,3.0798,3.0804,3.0794,3.0765,3.0768,3.0755,3.0745,3.0734,3.072,3.072,3.06,3.0543,3.0534,3.0449,3.0402,3.0406,3.0501,3.0558,0.7235,0.7832,0.8648,0.9771,1.0712,1.1743,1.3101,1.4648,1.6077,1.6879,1.8275,1.9577,2.0329,2.1322,2.2305,0.0,2.3584,0.0,0.0,2.5631,2.642,2.6848,2.6219,2.6067,2.6918,2.7002,2.6654,2.5808,2.6495,2.6591,2.5751,2.5702,2.57,2.5697,2.5697,2.5697,2.5697,2.5697,2.5697,2.5697,2.5697,2.5697,2.5668,2.4827,2.4436,2.4348,2.2704,2.2422,2.314,2.3143,2.364,2.4491,2.5362,2.57,2.57,2.57,2.57,2.57,2.57,2.57,2.57,2.57,2.5703,2.5701,2.5701,2.5652,2.5605,2.5605,2.5597,2.5599,2.5599,2.56,2.5597,2.5597,2.5597,2.5597,2.5597,2.5597,2.5597,2.5604,2.6281,2.7152,2.8048,2.8217,2.8817,3.0544,3.0798,3.0798,3.0798,3.0798,3.0798,3.0798,3.0798,3.0798,3.0798,3.0798,3.0767,3.0711,3.0706,3.0667,3.0617,3.0543,3.051,3.051,3.0439,3.04,3.04,3.04,3.0398,3.04,3.0406,3.0439,0.6023,0.6875,0.7812,0.8631,0.9522,1.0517,1.166,1.2644,1.3772,1.5286,1.6562,1.781,1.9198,2.0242,0.0,0.0,0.0,0.0,0.0,2.5616,2.6089,2.5803,2.6197,2.6835,2.7713,2.7314,2.7363,2.8221,2.6953,2.6259,2.6555,2.6007,2.5702,2.5697,2.5697,2.5697,2.5697,2.5697,2.5697,2.5697,2.5697,2.5697,2.5687,2.5346,2.5194,2.5099,2.3374,2.3131,2.3916,2.3337,2.361,2.4486,2.5359,2.5702,2.5703,2.5702,2.5702,2.5702,2.5702,2.5702,2.5702,2.57,2.5703,2.57,2.57,2.5652,2.5601,2.5601,2.5595,2.5604,2.5604,2.5603,2.5601,2.5601,2.5601,2.5601,2.5601,2.5601,2.5757,2.6291,2.6627,2.7284,2.8744,2.8983,2.9405,3.0623,3.0803,3.0803,3.0803,3.0803,3.0803,3.0803,3.0802,3.0796,3.0796,3.0755,3.0689,3.0574,3.0564,3.0583,3.0601,3.0578,3.057,3.0576,3.0501,3.0471,3.0471,3.0425,3.0398,3.0398,3.039,3.0402,0.5385,0.6256,0.7074,0.7477,0.842,0.9497,1.0387,1.1422,1.252,1.3707,1.5241,1.6744,1.7925,1.9135,2.0226,0.0,0.0,0.0,0.0,2.481,2.5163,2.4845,2.5752,2.6624,2.7195,2.7327,2.7727,2.8538,2.7605,2.6981,2.6971,2.6434,2.5986,2.5673,2.5664,2.5664,2.5664,2.5664,2.5679,2.5697,2.5679,2.5664,2.5664,2.5621,2.5595,2.5521,2.4082,2.3979,2.4758,2.3908,2.4079,2.4918,2.5477,2.5703,2.5703,2.5703,2.5703,2.5703,2.5703,2.5703,2.5703,2.5702,2.5682,2.5658,2.5658,2.5619,2.5564,2.5564,2.556,2.5564,2.5564,2.5564,2.5564,2.5564,2.5564,2.5641,2.5932,2.599,2.6243,2.7074,2.7481,2.8058,2.92,2.962,3.0013,3.0675,3.0764,3.0769,3.0804,3.0799,3.0799,3.0799,3.0779,3.0755,3.0734,3.0669,3.0589,3.0513,3.0503,3.0521,3.0566,3.0543,3.0535,3.0532,3.0463,3.043,3.043,3.039,3.0364,3.0364,3.0327,3.0283]}]]